[[{"header":{"parameterUnit":"m.s-1","parameterCategory":1,"la1":31.0,"la2":29.5877,"lo1":-88.7671,"lo2":-86.6584,"dy":0.0162,"dx":0.0185,"nx":115,"ny":88,"refTime":"2024-05-21T12:00:00:Z","depth":0,"parameterNumber":2,"parameterNumberName":"U-component_of_WINDS"},"data":[0.0,0.0,0.0,0.0,0.0,0.0,0.0,0.0,0.0,0.0,0.0,0.0,0.0,0.0,0.0,0.0,0.0,0.0,0.0,0.0,0.0,0.0,0.0,0.0,0.0,0.0,0.0,0.0,0.0,0.0,0.0,0.0,0.0,0.0,0.0,0.0,0.0,0.0,0.0,0.0,0.0,0.0,0.0,0.0,0.0,0.0,0.0,0.0,0.0,0.0,0.0,0.0,0.0,0.0,0.0,0.0,0.0,0.0,0.0,0.0,0.0,0.0,0.0,0.0,0.0,0.0,0.0,0.0,0.0,0.0,0.0,0.0,0.0,0.0,0.0,0.0,0.0,0.0,0.0,0.0,0.0,0.0,0.0,0.0,0.0,0.0,0.0,0.0,0.0,0.0,0.0,0.0,0.0,0.0,0.0,0.0,0.0,0.0,0.0,0.0,0.0,0.0,0.0,0.0,0.0,0.0,0.0,0.0,0.0,0.0,0.0,0.0,0.0,0.0,0.0,0.0,0.0,0.0,0.0,0.0,0.0,0.0,0.0,0.0,0.0,0.0,0.0,0.0,0.0,0.0,0.0,0.0,0.0,0.0,0.0,0.0,0.0,0.0,0.0,0.0,0.0,0.0,0.0,0.0,0.0,0.0,0.0,0.0,0.0,0.0,0.0,0.0,0.0,0.0,0.0,0.0,0.0,0.0,0.0,0.0,0.0,0.0,0.0,0.0,0.0,0.0,0.0,0.0,0.0,0.0,0.0,0.0,0.0,0.0,0.0,0.0,0.0,0.0,0.0,0.0,0.0,0.0,0.0,0.0,0.0,0.0,0.0,0.0,0.0,0.0,0.0,0.0,0.0,0.0,0.0,0.0,0.0,0.0,0.0,0.0,0.0,0.0,0.0,0.0,0.0,0.0,0.0,0.0,0.0,0.0,0.0,0.0,0.0,0.0,0.0,0.0,0.0,0.0,0.0,0.0,0.0,0.0,0.0,0.0,0.0,0.0,0.0,0.0,0.0,0.0,0.0,0.0,0.0,0.0,0.0,0.0,0.0,0.0,0.0,0.0,0.0,0.0,0.0,0.0,0.0,0.0,0.0,0.0,0.0,0.0,0.0,0.0,0.0,0.0,0.0,0.0,0.0,0.0,0.0,0.0,0.0,0.0,0.0,0.0,0.0,0.0,0.0,0.0,0.0,0.0,0.0,0.0,0.0,0.0,0.0,0.0,0.0,0.0,0.0,0.0,0.0,0.0,0.0,0.0,0.0,0.0,0.0,0.0,0.0,0.0,0.0,0.0,0.0,0.0,0.0,0.0,0.0,0.0,0.0,0.0,0.0,0.0,0.0,0.0,0.0,0.0,0.0,0.0,0.0,0.0,0.0,0.0,0.0,0.0,0.0,0.0,0.0,0.0,0.0,0.0,0.0,0.0,0.0,0.0,0.0,0.0,0.0,0.0,0.0,0.0,0.0,0.0,0.0,0.0,0.0,0.0,0.0,0.0,0.0,0.0,0.0,0.0,0.0,0.0,0.0,0.0,0.0,0.0,0.0,0.0,0.0,0.0,0.0,0.0,0.0,0.0,0.0,0.0,0.0,0.0,0.0,0.0,0.0,0.0,0.0,0.0,0.0,0.0,0.0,0.0,0.0,0.0,0.0,0.0,0.0,0.0,0.0,0.0,0.0,0.0,0.0,0.0,0.0,0.0,0.0,0.0,0.0,0.0,0.0,0.0,0.0,0.0,0.0,0.0,0.0,0.0,0.0,0.0,0.0,0.0,0.0,0.0,0.0,0.0,0.0,0.0,0.0,0.0,0.0,0.0,0.0,0.0,0.0,0.0,0.0,0.0,0.0,0.0,0.0,0.0,0.0,0.0,0.0,0.0,0.0,0.0,0.0,0.0,0.0,0.0,0.0,0.0,0.0,0.0,0.0,0.0,0.0,0.0,0.0,0.0,0.0,0.0,0.0,0.0,0.0,0.0,0.0,0.0,0.0,0.0,0.0,0.0,0.0,0.0,0.0,0.0,0.0,0.0,0.0,0.0,0.0,0.0,0.0,0.0,0.0,0.0,0.0,0.0,0.0,0.0,0.0,0.0,0.0,0.0,0.0,0.0,0.0,0.0,0.0,0.0,0.0,0.0,0.0,0.0,0.0,0.0,0.0,0.0,0.0,0.0,0.0,0.0,0.0,0.0,0.0,0.0,0.0,0.0,0.0,0.0,0.0,0.0,0.0,0.0,0.0,0.0,0.0,0.0,0.0,0.0,0.0,0.0,0.0,0.0,0.0,0.0,0.0,0.0,0.0,0.0,0.0,0.0,0.0,0.0,0.0,0.0,0.0,0.0,0.0,0.0,0.0,0.0,0.0,0.0,0.0,0.0,0.0,0.0,0.0,0.0,0.0,0.0,0.0,0.0,0.0,0.0,0.0,0.0,0.0,0.0,0.0,0.0,0.0,0.0,0.0,0.0,0.0,0.0,0.0,0.0,0.0,0.0,0.0,0.0,0.0,0.0,0.0,0.0,0.0,0.0,0.0,0.0,0.0,0.0,0.0,0.0,0.0,0.0,0.0,0.0,0.0,0.0,0.0,0.0,0.0,0.0,0.0,0.0,0.0,0.0,0.0,0.0,0.0,0.0,0.0,0.0,0.0,0.0,0.0,0.0,0.0,0.0,0.0,0.0,0.0,0.0,0.0,0.0,0.0,0.0,0.0,0.0,0.0,0.0,0.0,0.0,0.0,0.0,0.0,0.0,0.0,0.0,0.0,0.0,0.0,0.0,0.0,0.0,0.0,0.0,0.0,0.0,0.0,0.0,0.0,0.0,0.0,0.0,0.0,0.0,0.0,0.0,0.0,0.0,0.0,0.0,0.0,0.0,0.0,0.0,0.0,0.0,0.0,0.0,0.0,0.0,0.0,0.0,0.0,0.0,0.0,0.0,0.0,0.0,0.0,0.0,0.0,0.0,0.0,0.0,0.0,0.0,0.0,0.0,0.0,0.0,0.0,0.0,0.0,0.0,0.0,0.0,0.0,0.0,0.0,0.0,0.0,0.0,0.0,0.0,0.0,0.0,0.0,0.0,0.0,0.0,0.0,0.0,0.0,0.0,0.0,0.0,0.0,0.0,0.0,0.0,0.0,0.0,0.0,0.0,0.0,0.0,0.0,0.0,0.0,0.0,0.0,0.0,0.0,0.0,0.0,0.0,0.0,0.0,0.0,0.0,0.0,0.0,0.0,0.0,0.0,0.0,0.0,0.0,0.0,0.0,0.0,0.0,0.0,0.0,0.0,0.0,0.0,0.0,0.0,0.0,0.0,0.0,0.0,0.0,0.0,0.0,0.0,0.0,0.0,0.0,0.0,0.0,0.0,0.0,0.0,0.0,0.0,0.0,0.0,0.0,0.0,0.0,0.0,0.0,0.0,0.0,0.0,0.0,0.0,0.0,0.0,0.0,0.0,0.0,0.0,0.0,0.0,0.0,0.0,0.0,0.0,0.0,0.0,0.0,0.0,0.0,0.0,0.0,0.0,0.0,0.0,0.0,0.0,0.0,0.0,0.0,0.0,0.0,0.0,0.0,0.0,0.0,0.0,0.0,0.0,0.0,0.0,0.0,0.0,0.0,0.0,0.0,0.0,0.0,0.0,0.0,0.0,0.0,0.0,0.0,0.0,0.0,0.0,0.0,0.0,0.0,0.0,0.0,0.0,0.0,0.0,0.0,0.0,0.0,0.0,0.0,0.0,0.0,0.0,0.0,0.0,0.0,0.0,0.0,0.0,0.0,0.0,0.0,0.0,0.0,0.0,0.0,0.0,0.0,0.0,0.0,0.0,0.0,0.0,0.0,0.0,0.0,0.0,0.0,0.0,0.0,0.0,0.0,0.0,0.0,0.0,0.0,0.0,0.0,0.0,0.0,0.0,0.0,0.0,0.0,0.0,0.0,0.0,0.0,0.0,0.0,0.0,0.0,0.0,0.0,0.0,0.0,0.0,0.0,0.0,0.0,0.0,0.0,0.0,0.0,0.0,0.0,0.0,0.0,0.0,0.0,0.0,0.0,0.0,0.0,0.0,0.0,0.0,0.0,0.0,0.0,0.0,0.0,0.0,0.0,0.0,0.0,0.0,0.0,0.0,0.0,0.0,0.0,0.0,0.0,0.0,0.0,0.0,0.0,0.0,0.0,0.0,0.0,0.0,0.0,0.0,0.0,0.0,0.0,0.0,0.0,0.0,0.0,0.0,0.0,0.0,0.0,0.0,0.0,0.0,0.0,0.0,0.0,0.0,0.0,-2.5393,0.0,0.0,0.0,0.0,0.0,0.0,0.0,0.0,0.0,0.0,0.0,0.0,0.0,0.0,0.0,0.0,0.0,0.0,0.0,0.0,0.0,0.0,0.0,0.0,0.0,0.0,0.0,0.0,0.0,0.0,0.0,0.0,0.0,0.0,0.0,0.0,0.0,0.0,0.0,0.0,0.0,0.0,0.0,0.0,0.0,0.0,0.0,0.0,0.0,0.0,0.0,0.0,0.0,0.0,0.0,0.0,0.0,0.0,0.0,0.0,0.0,0.0,0.0,0.0,0.0,0.0,0.0,0.0,0.0,0.0,0.0,0.0,0.0,0.0,0.0,0.0,0.0,0.0,0.0,0.0,0.0,0.0,0.0,0.0,0.0,0.0,0.0,0.0,0.0,0.0,0.0,0.0,0.0,0.0,0.0,0.0,0.0,0.0,0.0,0.0,0.0,0.0,0.0,0.0,0.0,0.0,0.0,0.0,0.0,0.0,-2.5673,-2.5595,-2.561,-2.5538,-2.5406,0.0,0.0,0.0,0.0,0.0,0.0,0.0,0.0,0.0,0.0,0.0,0.0,0.0,0.0,0.0,0.0,0.0,0.0,0.0,0.0,0.0,0.0,0.0,0.0,0.0,0.0,0.0,0.0,0.0,0.0,0.0,0.0,0.0,0.0,0.0,0.0,0.0,0.0,0.0,0.0,0.0,0.0,0.0,0.0,0.0,0.0,0.0,0.0,0.0,0.0,0.0,0.0,0.0,0.0,0.0,0.0,0.0,0.0,0.0,0.0,0.0,0.0,0.0,0.0,0.0,0.0,0.0,0.0,0.0,0.0,0.0,0.0,0.0,0.0,0.0,0.0,0.0,0.0,0.0,0.0,0.0,0.0,0.0,0.0,0.0,0.0,0.0,0.0,0.0,0.0,0.0,0.0,0.0,0.0,0.0,0.0,0.0,0.0,0.0,0.0,0.0,0.0,0.0,0.0,0.0,0.0,0.0,0.0,0.0,0.0,0.0,0.0,-2.591,-2.5852,-2.5699,0.0,0.0,0.0,0.0,0.0,0.0,0.0,0.0,0.0,0.0,0.0,0.0,0.0,0.0,0.0,0.0,0.0,0.0,0.0,0.0,0.0,0.0,0.0,0.0,0.0,0.0,0.0,0.0,0.0,0.0,0.0,0.0,0.0,0.0,0.0,0.0,0.0,0.0,0.0,0.0,0.0,0.0,0.0,0.0,0.0,0.0,0.0,0.0,0.0,0.0,0.0,0.0,0.0,0.0,0.0,0.0,0.0,0.0,0.0,0.0,0.0,0.0,0.0,0.0,0.0,0.0,0.0,0.0,0.0,0.0,0.0,0.0,0.0,0.0,0.0,0.0,0.0,0.0,0.0,0.0,0.0,0.0,0.0,0.0,0.0,0.0,0.0,0.0,0.0,0.0,0.0,0.0,0.0,0.0,0.0,0.0,0.0,0.0,0.0,0.0,0.0,0.0,0.0,0.0,0.0,0.0,0.0,0.0,0.0,0.0,-2.6041,-2.6756,-2.6779,0.0,-2.6562,0.0,0.0,0.0,0.0,0.0,0.0,0.0,0.0,0.0,0.0,0.0,0.0,0.0,0.0,0.0,0.0,0.0,0.0,0.0,0.0,0.0,0.0,0.0,0.0,0.0,0.0,0.0,0.0,0.0,0.0,0.0,0.0,0.0,0.0,0.0,0.0,0.0,0.0,0.0,0.0,0.0,0.0,0.0,0.0,0.0,0.0,0.0,0.0,0.0,0.0,0.0,0.0,0.0,0.0,0.0,0.0,0.0,0.0,0.0,0.0,0.0,0.0,0.0,0.0,0.0,0.0,0.0,0.0,0.0,0.0,0.0,0.0,0.0,0.0,0.0,0.0,0.0,0.0,0.0,0.0,0.0,0.0,0.0,0.0,0.0,0.0,0.0,0.0,0.0,0.0,0.0,0.0,0.0,0.0,0.0,0.0,0.0,0.0,0.0,0.0,0.0,0.0,0.0,0.0,0.0,0.0,0.0,0.0,0.0,0.0,0.0,-2.768,-2.7171,-2.6612,0.0,0.0,0.0,0.0,0.0,0.0,0.0,0.0,0.0,0.0,0.0,0.0,0.0,0.0,0.0,0.0,0.0,0.0,0.0,0.0,0.0,0.0,0.0,0.0,0.0,0.0,0.0,0.0,0.0,0.0,0.0,0.0,0.0,0.0,0.0,0.0,0.0,0.0,0.0,0.0,0.0,0.0,0.0,0.0,0.0,0.0,0.0,0.0,0.0,0.0,0.0,0.0,0.0,0.0,0.0,0.0,0.0,0.0,0.0,0.0,0.0,0.0,0.0,0.0,0.0,0.0,0.0,0.0,0.0,0.0,0.0,0.0,0.0,0.0,0.0,0.0,0.0,0.0,0.0,0.0,0.0,0.0,0.0,0.0,0.0,0.0,0.0,0.0,0.0,0.0,0.0,0.0,0.0,0.0,0.0,0.0,0.0,0.0,0.0,0.0,0.0,0.0,0.0,0.0,0.0,0.0,0.0,0.0,0.0,0.0,-2.8425,0.0,-2.8173,-2.7793,-2.7061,-2.5892,0.0,0.0,0.0,0.0,0.0,0.0,0.0,0.0,0.0,0.0,0.0,0.0,0.0,0.0,0.0,0.0,0.0,0.0,0.0,0.0,0.0,0.0,0.0,0.0,0.0,0.0,0.0,0.0,0.0,0.0,0.0,0.0,0.0,0.0,0.0,0.0,0.0,0.0,0.0,0.0,0.0,0.0,0.0,0.0,0.0,0.0,0.0,0.0,0.0,0.0,0.0,0.0,0.0,0.0,0.0,0.0,0.0,0.0,0.0,0.0,0.0,0.0,0.0,0.0,0.0,0.0,0.0,0.0,0.0,0.0,0.0,0.0,0.0,0.0,0.0,0.0,0.0,0.0,0.0,0.0,0.0,0.0,0.0,0.0,0.0,0.0,0.0,0.0,0.0,0.0,0.0,0.0,0.0,0.0,0.0,0.0,0.0,0.0,0.0,0.0,0.0,0.0,0.0,0.0,0.0,0.0,0.0,0.0,0.0,-2.8738,-2.8286,-2.8277,-2.889,-2.8469,0.0,0.0,0.0,0.0,0.0,0.0,0.0,0.0,0.0,0.0,0.0,0.0,0.0,0.0,0.0,0.0,0.0,0.0,0.0,0.0,0.0,0.0,0.0,0.0,0.0,0.0,0.0,0.0,0.0,0.0,0.0,0.0,0.0,0.0,0.0,0.0,0.0,0.0,0.0,0.0,0.0,0.0,0.0,0.0,0.0,0.0,0.0,0.0,0.0,0.0,0.0,0.0,0.0,0.0,0.0,0.0,0.0,0.0,0.0,0.0,0.0,0.0,0.0,0.0,0.0,0.0,0.0,0.0,0.0,0.0,0.0,0.0,0.0,0.0,0.0,0.0,0.0,0.0,0.0,0.0,0.0,0.0,0.0,0.0,0.0,0.0,0.0,0.0,0.0,0.0,0.0,0.0,0.0,0.0,0.0,0.0,0.0,0.0,0.0,0.0,0.0,0.0,0.0,0.0,0.0,0.0,0.0,0.0,0.0,-3.0351,-2.9544,-2.9299,-2.9741,-2.8518,-2.7475,0.0,0.0,0.0,0.0,0.0,0.0,0.0,0.0,0.0,0.0,0.0,0.0,0.0,0.0,0.0,0.0,0.0,0.0,0.0,0.0,0.0,0.0,0.0,0.0,0.0,0.0,0.0,0.0,0.0,0.0,0.0,0.0,0.0,0.0,0.0,0.0,0.0,0.0,0.0,0.0,0.0,0.0,0.0,0.0,0.0,0.0,0.0,0.0,0.0,0.0,0.0,0.0,0.0,0.0,0.0,0.0,0.0,0.0,0.0,0.0,0.0,0.0,0.0,0.0,0.0,0.0,0.0,0.0,0.0,0.0,0.0,0.0,0.0,0.0,0.0,0.0,0.0,0.0,0.0,0.0,0.0,0.0,0.0,0.0,0.0,0.0,0.0,0.0,0.0,0.0,0.0,0.0,0.0,0.0,0.0,0.0,0.0,0.0,0.0,0.0,0.0,0.0,0.0,0.0,0.0,0.0,0.0,0.0,0.0,-3.082,0.0,-3.0485,0.0,-2.876,-2.759,0.0,0.0,0.0,0.0,0.0,0.0,0.0,0.0,0.0,0.0,0.0,0.0,0.0,0.0,0.0,0.0,0.0,0.0,0.0,0.0,0.0,0.0,0.0,0.0,0.0,0.0,0.0,0.0,0.0,0.0,0.0,0.0,0.0,0.0,0.0,0.0,0.0,0.0,0.0,0.0,0.0,0.0,0.0,0.0,0.0,0.0,0.0,0.0,0.0,0.0,0.0,0.0,0.0,0.0,0.0,0.0,0.0,0.0,0.0,0.0,0.0,0.0,0.0,0.0,0.0,0.0,0.0,0.0,0.0,0.0,0.0,0.0,0.0,0.0,0.0,0.0,0.0,0.0,0.0,0.0,0.0,0.0,0.0,0.0,0.0,0.0,0.0,0.0,0.0,0.0,0.0,0.0,0.0,0.0,0.0,0.0,0.0,0.0,0.0,0.0,0.0,0.0,0.0,0.0,0.0,0.0,0.0,0.0,-3.0836,-3.087,-3.2413,-3.1617,-2.8443,-2.9738,-2.903,0.0,0.0,0.0,0.0,0.0,0.0,0.0,0.0,0.0,0.0,0.0,0.0,0.0,0.0,0.0,0.0,0.0,0.0,0.0,0.0,0.0,0.0,0.0,0.0,0.0,0.0,0.0,0.0,0.0,0.0,0.0,0.0,0.0,0.0,0.0,0.0,0.0,0.0,0.0,0.0,0.0,0.0,0.0,0.0,0.0,0.0,0.0,0.0,0.0,0.0,0.0,0.0,0.0,0.0,0.0,0.0,0.0,0.0,0.0,0.0,0.0,0.0,0.0,0.0,0.0,0.0,0.0,0.0,0.0,0.0,0.0,0.0,0.0,0.0,0.0,0.0,0.0,0.0,0.0,0.0,0.0,0.0,0.0,0.0,0.0,0.0,0.0,0.0,0.0,0.0,0.0,0.0,0.0,0.0,0.0,0.0,0.0,0.0,0.0,0.0,0.0,0.0,0.0,0.0,0.0,0.0,0.0,0.0,0.0,-3.1719,-3.1631,-3.1355,-3.0793,-2.9031,-2.787,0.0,0.0,0.0,0.0,0.0,0.0,0.0,0.0,0.0,0.0,0.0,0.0,0.0,0.0,0.0,0.0,0.0,0.0,0.0,0.0,0.0,0.0,0.0,0.0,0.0,0.0,0.0,0.0,0.0,0.0,0.0,0.0,0.0,0.0,0.0,0.0,0.0,0.0,0.0,0.0,0.0,0.0,0.0,0.0,0.0,0.0,0.0,0.0,0.0,0.0,0.0,0.0,0.0,0.0,0.0,0.0,0.0,0.0,0.0,0.0,0.0,0.0,0.0,0.0,0.0,0.0,0.0,0.0,0.0,0.0,0.0,0.0,0.0,0.0,0.0,0.0,0.0,0.0,0.0,0.0,0.0,0.0,0.0,0.0,0.0,0.0,0.0,0.0,0.0,0.0,0.0,0.0,0.0,0.0,0.0,0.0,0.0,0.0,0.0,0.0,0.0,0.0,0.0,0.0,0.0,0.0,0.0,0.0,0.0,-3.3019,-3.2851,-3.2345,-3.1566,-2.9774,-2.8462,-2.769,0.0,0.0,0.0,0.0,0.0,0.0,0.0,0.0,0.0,0.0,0.0,0.0,0.0,0.0,0.0,0.0,0.0,0.0,0.0,0.0,0.0,0.0,0.0,0.0,0.0,0.0,0.0,0.0,0.0,0.0,0.0,0.0,0.0,0.0,0.0,0.0,0.0,0.0,0.0,0.0,0.0,0.0,0.0,0.0,0.0,0.0,0.0,0.0,0.0,0.0,0.0,0.0,0.0,0.0,0.0,0.0,0.0,0.0,0.0,0.0,0.0,0.0,0.0,0.0,0.0,0.0,0.0,0.0,0.0,0.0,0.0,0.0,0.0,0.0,0.0,0.0,0.0,0.0,0.0,0.0,0.0,0.0,0.0,0.0,0.0,0.0,0.0,0.0,0.0,0.0,0.0,0.0,0.0,0.0,0.0,0.0,0.0,0.0,0.0,0.0,0.0,0.0,0.0,0.0,0.0,0.0,0.0,0.0,-3.4585,-3.5545,-3.4466,-3.1267,-3.1685,-3.0477,0.0,0.0,0.0,0.0,0.0,0.0,0.0,0.0,0.0,0.0,0.0,0.0,0.0,0.0,0.0,0.0,0.0,0.0,0.0,0.0,0.0,0.0,0.0,0.0,0.0,0.0,0.0,0.0,0.0,0.0,0.0,0.0,0.0,0.0,0.0,0.0,0.0,0.0,0.0,0.0,0.0,0.0,0.0,0.0,0.0,0.0,0.0,0.0,0.0,0.0,0.0,0.0,0.0,0.0,0.0,0.0,0.0,0.0,0.0,0.0,0.0,0.0,0.0,0.0,0.0,0.0,0.0,0.0,0.0,0.0,0.0,0.0,0.0,0.0,0.0,0.0,0.0,0.0,0.0,0.0,0.0,0.0,0.0,0.0,0.0,0.0,0.0,0.0,0.0,0.0,0.0,0.0,0.0,0.0,0.0,0.0,0.0,0.0,0.0,0.0,0.0,0.0,0.0,0.0,0.0,0.0,0.0,0.0,0.0,-3.4638,-3.6097,-3.6178,-3.4647,-3.2361,-3.0407,0.0,0.0,0.0,0.0,0.0,0.0,0.0,0.0,0.0,0.0,0.0,0.0,0.0,0.0,0.0,0.0,0.0,0.0,0.0,0.0,0.0,0.0,0.0,0.0,0.0,0.0,0.0,0.0,0.0,0.0,0.0,0.0,0.0,0.0,0.0,0.0,0.0,0.0,0.0,0.0,0.0,0.0,0.0,0.0,0.0,0.0,0.0,0.0,0.0,0.0,0.0,0.0,0.0,0.0,0.0,0.0,0.0,0.0,0.0,0.0,0.0,0.0,0.0,0.0,0.0,0.0,0.0,0.0,0.0,0.0,0.0,0.0,0.0,0.0,0.0,0.0,0.0,0.0,0.0,0.0,0.0,0.0,0.0,0.0,0.0,0.0,0.0,0.0,0.0,0.0,0.0,0.0,0.0,0.0,0.0,0.0,0.0,0.0,0.0,0.0,0.0,0.0,0.0,0.0,0.0,0.0,0.0,0.0,-3.4915,-3.5636,-3.6676,-3.713,-3.7002,-3.3684,-3.1132,0.0,0.0,0.0,0.0,0.0,0.0,0.0,0.0,0.0,0.0,0.0,0.0,0.0,0.0,0.0,0.0,0.0,0.0,0.0,0.0,0.0,0.0,0.0,0.0,0.0,0.0,0.0,0.0,0.0,0.0,0.0,0.0,0.0,0.0,0.0,0.0,0.0,0.0,0.0,0.0,0.0,0.0,0.0,0.0,0.0,0.0,0.0,0.0,0.0,0.0,0.0,0.0,0.0,0.0,0.0,0.0,0.0,0.0,0.0,0.0,0.0,0.0,0.0,0.0,0.0,0.0,0.0,0.0,0.0,0.0,0.0,0.0,0.0,0.0,0.0,0.0,0.0,0.0,0.0,0.0,0.0,0.0,0.0,0.0,0.0,0.0,0.0,0.0,0.0,0.0,0.0,0.0,0.0,0.0,0.0,0.0,0.0,0.0,0.0,0.0,0.0,0.0,0.0,0.0,0.0,0.0,0.0,0.0,-3.5514,-3.704,-3.7238,-3.7666,-3.8245,-3.5131,-3.2216,0.0,0.0,0.0,0.0,0.0,0.0,0.0,0.0,0.0,0.0,0.0,0.0,0.0,0.0,0.0,0.0,0.0,0.0,0.0,0.0,0.0,0.0,0.0,0.0,0.0,0.0,0.0,0.0,0.0,0.0,0.0,0.0,0.0,0.0,0.0,0.0,0.0,0.0,0.0,0.0,0.0,0.0,0.0,0.0,0.0,0.0,0.0,0.0,0.0,0.0,0.0,0.0,0.0,0.0,0.0,0.0,0.0,0.0,0.0,0.0,0.0,0.0,0.0,0.0,0.0,0.0,0.0,0.0,0.0,0.0,0.0,0.0,0.0,0.0,0.0,0.0,0.0,0.0,0.0,0.0,0.0,0.0,0.0,0.0,0.0,0.0,0.0,0.0,0.0,0.0,0.0,0.0,0.0,0.0,0.0,0.0,0.0,0.0,0.0,0.0,0.0,0.0,0.0,0.0,0.0,0.0,0.0,0.0,-3.6574,-3.6861,-3.7705,-3.8197,-3.8302,-3.5016,-3.2374,0.0,0.0,0.0,0.0,0.0,0.0,0.0,0.0,0.0,0.0,0.0,0.0,0.0,0.0,0.0,0.0,0.0,0.0,0.0,0.0,0.0,0.0,0.0,0.0,0.0,0.0,0.0,0.0,0.0,0.0,0.0,0.0,0.0,0.0,0.0,0.0,0.0,0.0,0.0,0.0,0.0,0.0,0.0,0.0,0.0,0.0,0.0,0.0,-2.5695,0.0,0.0,0.0,0.0,0.0,0.0,0.0,0.0,0.0,0.0,0.0,0.0,0.0,0.0,0.0,0.0,0.0,0.0,0.0,0.0,0.0,0.0,0.0,0.0,0.0,0.0,0.0,0.0,0.0,0.0,0.0,0.0,0.0,0.0,0.0,0.0,0.0,0.0,0.0,0.0,0.0,0.0,0.0,0.0,0.0,0.0,0.0,0.0,0.0,0.0,0.0,0.0,0.0,0.0,0.0,0.0,0.0,0.0,0.0,-3.6755,-3.6728,-3.7699,-3.7998,-3.7477,-3.4628,-3.25,0.0,0.0,0.0,0.0,0.0,0.0,0.0,0.0,0.0,0.0,0.0,0.0,0.0,0.0,0.0,0.0,0.0,0.0,0.0,0.0,0.0,0.0,0.0,0.0,0.0,0.0,0.0,0.0,0.0,0.0,0.0,0.0,0.0,0.0,0.0,0.0,0.0,0.0,0.0,0.0,0.0,0.0,0.0,0.0,0.0,0.0,0.0,0.0,0.0,0.0,0.0,0.0,0.0,0.0,0.0,0.0,0.0,0.0,0.0,0.0,0.0,0.0,0.0,0.0,0.0,0.0,0.0,0.0,0.0,0.0,0.0,0.0,0.0,0.0,0.0,0.0,0.0,0.0,0.0,0.0,0.0,0.0,0.0,0.0,0.0,0.0,0.0,0.0,0.0,0.0,0.0,0.0,0.0,0.0,0.0,0.0,0.0,0.0,0.0,0.0,0.0,0.0,0.0,0.0,0.0,0.0,0.0,-3.5189,-3.6404,-3.6573,-3.7365,-3.7427,-3.665,-3.4192,-3.2617,-3.2046,0.0,0.0,0.0,0.0,0.0,0.0,0.0,0.0,0.0,0.0,0.0,0.0,0.0,0.0,0.0,0.0,0.0,0.0,0.0,0.0,0.0,0.0,0.0,0.0,0.0,0.0,0.0,0.0,0.0,0.0,0.0,0.0,0.0,0.0,0.0,0.0,0.0,0.0,-2.6679,-2.6587,0.0,0.0,0.0,0.0,0.0,0.0,0.0,0.0,-2.5754,0.0,0.0,0.0,0.0,0.0,0.0,0.0,0.0,0.0,0.0,0.0,0.0,0.0,0.0,0.0,0.0,0.0,0.0,0.0,0.0,0.0,0.0,0.0,0.0,0.0,0.0,0.0,0.0,0.0,0.0,0.0,0.0,0.0,0.0,0.0,0.0,0.0,0.0,0.0,0.0,0.0,0.0,0.0,0.0,0.0,0.0,0.0,0.0,0.0,0.0,0.0,0.0,0.0,0.0,0.0,0.0,-3.3628,-3.4929,-3.5829,-3.6334,-3.6658,-3.673,-3.6469,-3.4067,-3.2723,-3.2595,0.0,0.0,0.0,0.0,0.0,0.0,0.0,0.0,0.0,0.0,0.0,0.0,0.0,0.0,0.0,0.0,0.0,0.0,0.0,0.0,0.0,0.0,0.0,0.0,0.0,0.0,0.0,0.0,0.0,0.0,0.0,0.0,0.0,0.0,0.0,0.0,0.0,0.0,0.0,-2.6038,-2.5867,0.0,0.0,0.0,0.0,0.0,0.0,0.0,0.0,-2.6343,0.0,0.0,0.0,0.0,0.0,0.0,0.0,0.0,0.0,0.0,0.0,0.0,0.0,0.0,0.0,0.0,0.0,0.0,0.0,0.0,0.0,0.0,0.0,0.0,0.0,0.0,0.0,0.0,0.0,0.0,0.0,0.0,0.0,0.0,0.0,0.0,0.0,0.0,0.0,0.0,0.0,0.0,0.0,0.0,0.0,0.0,0.0,0.0,0.0,0.0,0.0,0.0,0.0,0.0,0.0,-3.3162,-3.4798,-3.5627,-3.559,-3.6099,-3.6162,-3.5623,-3.3274,-3.2038,0.0,0.0,0.0,0.0,0.0,0.0,0.0,0.0,0.0,0.0,0.0,0.0,0.0,0.0,0.0,0.0,0.0,0.0,0.0,0.0,0.0,0.0,0.0,0.0,0.0,0.0,0.0,0.0,0.0,0.0,0.0,0.0,0.0,0.0,0.0,0.0,0.0,0.0,0.0,0.0,-2.6978,-2.6697,-2.6617,0.0,0.0,0.0,0.0,0.0,0.0,-2.6687,-2.6118,0.0,0.0,0.0,0.0,0.0,0.0,0.0,0.0,0.0,0.0,0.0,0.0,0.0,0.0,0.0,0.0,0.0,0.0,0.0,0.0,0.0,0.0,0.0,0.0,0.0,0.0,0.0,0.0,0.0,0.0,0.0,0.0,0.0,0.0,0.0,0.0,0.0,0.0,0.0,0.0,0.0,0.0,0.0,0.0,0.0,0.0,0.0,0.0,0.0,0.0,0.0,0.0,0.0,0.0,0.0,-3.2453,-3.4324,-3.5157,-3.4845,-3.5471,-3.5501,-3.4831,-3.2598,-3.1387,0.0,0.0,0.0,0.0,0.0,0.0,0.0,0.0,0.0,0.0,0.0,0.0,0.0,0.0,0.0,0.0,0.0,0.0,0.0,0.0,0.0,0.0,0.0,0.0,0.0,0.0,0.0,0.0,0.0,0.0,0.0,0.0,0.0,0.0,0.0,0.0,0.0,0.0,0.0,0.0,0.0,-2.7503,-2.695,-2.7523,0.0,0.0,0.0,0.0,-2.7782,-2.6582,0.0,0.0,0.0,0.0,0.0,0.0,0.0,0.0,0.0,0.0,0.0,0.0,0.0,0.0,0.0,0.0,0.0,0.0,0.0,0.0,0.0,0.0,0.0,0.0,0.0,0.0,0.0,0.0,0.0,0.0,0.0,0.0,0.0,0.0,0.0,0.0,0.0,0.0,0.0,0.0,0.0,0.0,0.0,0.0,0.0,0.0,0.0,0.0,0.0,0.0,0.0,0.0,0.0,0.0,0.0,0.0,-3.2064,-3.2906,-3.3695,-3.4424,-3.4491,-3.4566,-3.4615,-3.2753,-3.154,0.0,0.0,0.0,0.0,0.0,0.0,0.0,0.0,0.0,0.0,0.0,0.0,0.0,0.0,0.0,0.0,0.0,0.0,0.0,0.0,0.0,0.0,0.0,0.0,0.0,0.0,0.0,0.0,0.0,0.0,0.0,0.0,0.0,0.0,0.0,0.0,0.0,0.0,0.0,0.0,0.0,-2.6988,-2.7663,-2.7899,-2.799,0.0,0.0,-2.8588,-2.7002,-2.6593,0.0,0.0,0.0,0.0,0.0,0.0,0.0,0.0,0.0,0.0,0.0,0.0,0.0,0.0,0.0,0.0,0.0,0.0,0.0,0.0,0.0,0.0,0.0,0.0,0.0,0.0,0.0,0.0,0.0,0.0,0.0,0.0,0.0,0.0,0.0,0.0,0.0,0.0,0.0,0.0,0.0,0.0,0.0,0.0,0.0,0.0,0.0,0.0,0.0,0.0,0.0,0.0,0.0,0.0,0.0,-3.0663,-3.1854,-3.2525,-3.3271,-3.4136,-3.4185,-3.401,-3.3619,-3.1939,-3.0555,0.0,0.0,0.0,0.0,0.0,0.0,0.0,0.0,0.0,0.0,0.0,0.0,0.0,0.0,0.0,0.0,0.0,0.0,0.0,0.0,0.0,0.0,0.0,0.0,0.0,0.0,0.0,0.0,0.0,0.0,0.0,0.0,0.0,0.0,0.0,0.0,0.0,0.0,0.0,0.0,0.0,0.0,-2.6383,-2.7222,0.0,0.0,0.0,-2.8203,-2.7445,0.0,0.0,0.0,0.0,0.0,0.0,0.0,0.0,0.0,0.0,0.0,0.0,0.0,0.0,0.0,0.0,0.0,0.0,0.0,0.0,0.0,0.0,0.0,0.0,0.0,0.0,0.0,0.0,0.0,0.0,0.0,0.0,0.0,0.0,0.0,0.0,0.0,0.0,0.0,0.0,0.0,0.0,0.0,0.0,0.0,0.0,0.0,0.0,0.0,0.0,0.0,0.0,0.0,0.0,0.0,0.0,0.0,-3.1663,-3.2238,-3.2981,-3.3858,-3.3908,-3.3559,-3.2804,-3.134,0.0,0.0,0.0,0.0,0.0,0.0,0.0,0.0,0.0,0.0,0.0,0.0,0.0,0.0,0.0,0.0,0.0,0.0,0.0,0.0,0.0,0.0,0.0,0.0,0.0,0.0,0.0,-2.0303,0.0,0.0,0.0,0.0,0.0,0.0,0.0,0.0,0.0,0.0,0.0,0.0,0.0,0.0,-2.6527,-2.5866,-2.7088,-2.7713,0.0,0.0,-2.7931,-2.7552,-2.6901,-2.5987,0.0,0.0,0.0,0.0,0.0,0.0,0.0,0.0,0.0,0.0,0.0,0.0,0.0,0.0,0.0,0.0,0.0,0.0,0.0,0.0,0.0,0.0,0.0,0.0,0.0,0.0,0.0,0.0,0.0,0.0,0.0,0.0,0.0,0.0,0.0,0.0,0.0,0.0,0.0,0.0,0.0,0.0,0.0,0.0,0.0,0.0,0.0,0.0,0.0,0.0,0.0,0.0,0.0,0.0,0.0,-3.1391,-3.1828,-3.2546,-3.3564,-3.3524,-3.3152,-3.253,-3.1523,-3.0014,0.0,0.0,0.0,0.0,0.0,0.0,0.0,0.0,0.0,0.0,0.0,0.0,0.0,0.0,0.0,0.0,0.0,0.0,0.0,0.0,0.0,0.0,0.0,0.0,0.0,0.0,0.0,0.0,0.0,0.0,0.0,0.0,0.0,0.0,0.0,0.0,0.0,0.0,0.0,0.0,0.0,-2.7472,-2.7355,-2.8103,-2.8337,0.0,0.0,-2.8268,-2.6657,-2.6293,-2.5391,-2.2994,0.0,0.0,0.0,0.0,0.0,0.0,0.0,0.0,0.0,0.0,0.0,0.0,0.0,0.0,0.0,0.0,0.0,0.0,0.0,0.0,0.0,0.0,0.0,0.0,0.0,0.0,0.0,0.0,0.0,0.0,0.0,0.0,0.0,0.0,0.0,0.0,0.0,0.0,0.0,0.0,0.0,0.0,0.0,0.0,0.0,0.0,0.0,0.0,0.0,0.0,0.0,0.0,0.0,-2.9077,-3.1159,-3.1167,-3.1784,-3.3108,-3.3211,-3.291,-3.2202,-3.1189,-2.9854,0.0,0.0,0.0,0.0,0.0,0.0,0.0,0.0,0.0,0.0,0.0,0.0,0.0,0.0,0.0,0.0,0.0,0.0,0.0,0.0,0.0,0.0,0.0,0.0,0.0,0.0,0.0,0.0,-2.0709,-2.1135,-2.2846,0.0,0.0,0.0,0.0,0.0,0.0,0.0,0.0,0.0,0.0,-2.6552,-2.6571,-2.7678,0.0,0.0,-2.7343,-2.735,-2.5693,-2.5799,-2.5415,-2.3452,-2.3144,0.0,0.0,0.0,0.0,0.0,0.0,0.0,0.0,0.0,0.0,0.0,0.0,0.0,0.0,0.0,0.0,0.0,0.0,0.0,0.0,0.0,0.0,0.0,0.0,0.0,0.0,0.0,0.0,0.0,0.0,0.0,0.0,0.0,0.0,0.0,0.0,0.0,0.0,0.0,0.0,0.0,0.0,0.0,0.0,0.0,0.0,0.0,0.0,0.0,0.0,0.0,0.0,-2.8577,-3.1033,-3.0573,-3.1144,-3.285,-3.285,-3.2491,-3.1806,-3.0802,-2.9583,0.0,0.0,0.0,0.0,0.0,0.0,0.0,0.0,0.0,0.0,0.0,0.0,0.0,0.0,0.0,0.0,0.0,0.0,0.0,0.0,0.0,0.0,0.0,0.0,0.0,0.0,0.0,0.0,-2.1445,-2.1978,-2.2917,0.0,0.0,0.0,0.0,0.0,0.0,0.0,0.0,0.0,0.0,-2.6153,-2.5935,-2.7293,-2.7864,-2.6495,-2.6612,-2.6454,-2.5378,-2.5427,-2.5148,-2.3799,0.0,0.0,0.0,0.0,0.0,0.0,0.0,0.0,0.0,0.0,0.0,0.0,0.0,0.0,0.0,0.0,0.0,0.0,0.0,0.0,0.0,0.0,0.0,0.0,0.0,0.0,0.0,0.0,0.0,0.0,0.0,0.0,0.0,0.0,0.0,0.0,0.0,0.0,0.0,0.0,0.0,0.0,0.0,0.0,0.0,0.0,0.0,0.0,0.0,0.0,0.0,0.0,0.0,0.0,-3.0921,-3.0125,-3.0674,-3.2703,-3.2421,-3.1932,-3.1327,-3.0407,-2.9217,-2.7751,0.0,0.0,0.0,0.0,0.0,0.0,0.0,0.0,0.0,0.0,0.0,0.0,0.0,0.0,0.0,0.0,0.0,0.0,0.0,0.0,0.0,0.0,0.0,0.0,0.0,0.0,-2.1957,-2.287,-2.2977,0.0,0.0,0.0,0.0,0.0,0.0,0.0,0.0,0.0,0.0,-2.5398,-2.6673,-2.5875,-2.7158,-2.7932,-2.7112,-2.6365,-2.5867,-2.5891,-2.5252,-2.4432,0.0,0.0,0.0,0.0,0.0,0.0,0.0,0.0,0.0,0.0,0.0,0.0,0.0,0.0,0.0,0.0,0.0,0.0,0.0,0.0,0.0,0.0,0.0,0.0,0.0,0.0,0.0,0.0,-2.5544,0.0,0.0,0.0,0.0,0.0,0.0,0.0,0.0,0.0,0.0,0.0,-2.6983,-2.7062,0.0,0.0,0.0,0.0,0.0,0.0,0.0,0.0,0.0,0.0,0.0,0.0,-2.8546,-3.035,-3.0344,-3.0855,-3.2004,-3.2074,-3.1743,-3.106,-2.9989,-2.8522,-2.6558,0.0,0.0,0.0,0.0,0.0,0.0,0.0,0.0,0.0,0.0,0.0,0.0,0.0,0.0,0.0,0.0,0.0,0.0,0.0,0.0,0.0,0.0,0.0,0.0,0.0,-2.0602,0.0,0.0,0.0,0.0,0.0,0.0,0.0,0.0,0.0,0.0,0.0,-2.4091,-2.4644,-2.6422,-2.7565,-2.7257,-2.8234,-2.8711,0.0,0.0,0.0,0.0,0.0,0.0,0.0,0.0,0.0,0.0,0.0,0.0,0.0,0.0,-2.4923,-2.3971,-2.362,-2.3556,-2.387,0.0,0.0,0.0,0.0,0.0,0.0,0.0,0.0,0.0,0.0,0.0,0.0,0.0,0.0,0.0,0.0,-2.6611,0.0,0.0,0.0,0.0,0.0,0.0,0.0,0.0,-2.7299,-2.7682,-2.8516,-2.8326,-2.8114,0.0,-2.8047,-2.7468,0.0,0.0,0.0,0.0,0.0,0.0,0.0,0.0,-2.8555,-2.9879,-2.9868,-3.0442,-3.1551,-3.1123,-3.0798,-3.0628,-2.9383,-2.7743,-2.5751,-2.5358,-2.4653,0.0,0.0,0.0,0.0,0.0,0.0,0.0,0.0,0.0,0.0,0.0,0.0,0.0,0.0,0.0,0.0,0.0,0.0,0.0,0.0,0.0,0.0,0.0,-2.0132,0.0,0.0,0.0,0.0,0.0,0.0,0.0,0.0,0.0,-2.405,-2.4103,-2.4506,-2.5678,-2.7069,-2.7877,-2.7582,0.0,0.0,0.0,0.0,0.0,0.0,0.0,-2.6234,-2.6314,-2.5922,-2.5532,-2.5295,-2.5085,-2.4959,-2.4985,0.0,0.0,-2.4068,-2.3658,-2.3613,-2.3939,-2.3768,-2.3609,-2.384,-2.3908,-2.3905,0.0,0.0,0.0,0.0,0.0,0.0,0.0,0.0,-2.9082,-2.879,0.0,-2.8448,0.0,0.0,0.0,0.0,0.0,0.0,0.0,0.0,-2.9751,-3.0149,-3.0371,-2.9769,-2.9777,-3.0299,-3.0393,-2.9813,-2.8501,-2.6462,0.0,0.0,0.0,0.0,0.0,0.0,-2.8357,-2.9386,-2.8881,-2.9477,-3.1291,-2.9661,-2.9183,-3.0,-2.8498,-2.6924,-2.543,-2.5525,-2.5048,-2.373,-2.4211,0.0,0.0,0.0,0.0,0.0,0.0,0.0,0.0,0.0,0.0,0.0,0.0,0.0,0.0,0.0,0.0,0.0,0.0,0.0,0.0,-1.9286,0.0,0.0,0.0,0.0,0.0,0.0,0.0,0.0,0.0,0.0,-2.4003,-2.4114,-2.472,-2.6326,0.0,0.0,0.0,0.0,-2.7791,-2.7032,-2.6961,-2.6999,-2.6999,-2.7019,-2.7047,-2.713,0.0,0.0,-2.6227,-2.543,-2.4924,-2.5003,-2.5698,-2.6162,-2.5492,-2.4839,-2.4682,-2.543,-2.498,-2.4736,-2.5371,-2.5412,-2.5455,-3.2916,0.0,0.0,0.0,0.0,-3.0099,-3.0132,-3.0616,-3.0142,-2.9864,-2.9694,-2.9674,0.0,0.0,0.0,0.0,0.0,0.0,-2.8825,-2.9517,-2.9514,-2.9694,-3.0068,-3.0078,-3.015,-3.0328,-3.0685,-3.0653,-3.0243,-2.8858,-2.7705,-2.6805,0.0,0.0,0.0,0.0,-2.878,-2.9673,-2.934,-2.9476,-3.0113,-2.9185,-2.8546,-2.8211,-2.7237,-2.6412,-2.582,-2.536,-2.5046,-2.4803,-2.3979,0.0,0.0,0.0,0.0,0.0,0.0,0.0,0.0,0.0,0.0,0.0,0.0,0.0,0.0,0.0,0.0,0.0,0.0,0.0,-1.8795,-1.9058,-1.9817,0.0,0.0,0.0,0.0,0.0,0.0,0.0,0.0,0.0,-2.6141,-2.6413,-2.6772,0.0,0.0,-2.8666,-2.8463,-2.8709,-2.8857,-2.8635,0.0,0.0,0.0,-2.821,-2.7876,-2.7942,-2.7076,-2.6293,-2.6121,-2.5423,-2.4912,-2.4985,-2.5309,-2.5493,-2.5453,-2.5799,-2.5963,-2.5765,-2.5487,-2.537,-2.5546,-2.5609,-2.5603,-3.5014,-3.4424,-3.3156,-3.2535,-3.2355,-3.1421,-3.1371,-3.1913,-3.1311,-3.0945,-3.0797,-3.07,-3.0058,-2.9014,-2.9572,0.0,0.0,0.0,-2.9525,-3.0027,-2.987,-3.0045,-3.0436,-3.0452,-3.0719,-3.1204,-3.1347,-3.1442,-3.1492,-3.0829,-2.963,-2.7977,0.0,0.0,-2.7801,-2.8381,-2.8973,-2.9503,-2.9079,-2.9019,-2.938,-2.8574,-2.7727,-2.6886,-2.6474,-2.617,-2.6008,-2.5545,-2.5203,-2.4994,-2.4345,-2.3744,0.0,0.0,0.0,0.0,0.0,0.0,0.0,0.0,0.0,0.0,0.0,-1.9411,-1.7754,0.0,0.0,0.0,-1.8979,-1.8898,-1.9659,-1.9807,0.0,0.0,0.0,0.0,0.0,0.0,0.0,-2.4277,-2.549,-2.6562,-2.713,-2.7658,-2.8021,-2.808,-2.8647,-2.9021,-2.9021,0.0,-2.9218,-2.9218,-2.9291,-2.9344,-2.9355,-2.8977,-2.8646,-2.8763,-2.7771,-2.6852,-2.6561,-2.591,-2.53,-2.513,-2.5646,-2.6011,-2.5464,-2.6397,-2.6965,-2.5935,-2.5698,-2.5683,-2.564,-2.5636,-2.5713,-3.6655,-3.5991,-3.4155,-3.3636,-3.3953,-3.2775,-3.2534,-3.2929,-3.251,-3.2025,-3.1596,-3.1723,-3.1384,-3.068,-2.9951,0.0,0.0,-3.0107,-3.027,-3.0791,-3.0672,-3.0836,-3.1219,-3.0896,-3.1359,-3.2489,-3.2179,-3.2133,-3.2319,-3.2282,-3.1286,-2.9351,-2.8269,-2.7666,-2.7607,-2.853,-2.9046,-2.9067,-2.8421,-2.835,-2.8895,-2.7778,-2.6794,-2.6041,-2.6097,-2.6115,-2.5974,-2.5917,-2.5479,-2.4648,-2.4993,-2.4479,-2.2923,0.0,0.0,0.0,0.0,0.0,0.0,0.0,0.0,0.0,0.0,0.0,0.0,0.0,0.0,0.0,-1.9111,0.0,-2.0955,-2.1184,0.0,0.0,0.0,-2.3667,-2.3124,-2.4568,-2.5628,-2.5694,0.0,0.0,0.0,0.0,-2.86,-2.8687,-2.8803,-2.8905,-2.8905,-2.9021,-2.9108,-2.9119,-2.9145,-2.9229,-2.9283,-2.9267,-2.9275,-2.9379,-2.8896,-2.8106,-2.7481,-2.672,-2.5937,-2.5326,-2.6549,-2.7211,-2.5663,-2.6796,-2.7502,-2.5962,-2.5706,-2.5699,-2.5701,-2.5799,-2.6093,-3.683,-3.6521,-3.6049,-3.5349,-3.4552,-3.3959,-3.3684,-3.3626,-3.3213,-3.2696,-3.2236,-3.2853,-3.2991,-3.2659,-3.1786,-3.1369,-3.1354,-3.093,-3.0705,-3.0657,-3.0598,-3.0657,-3.0777,-3.0764,-3.1114,-3.1736,-3.2035,-3.2292,-3.252,-3.2405,-3.1988,-3.1294,-3.0252,-2.9182,-2.8178,-2.897,-2.9446,-2.961,-2.895,-2.8205,-2.7417,-2.6641,-2.6135,-2.5917,-2.5952,-2.5917,-2.5775,-2.5738,-2.5564,-2.5196,-2.4825,-2.4112,-2.3016,-2.2286,0.0,0.0,0.0,0.0,0.0,0.0,0.0,0.0,0.0,-2.0229,-1.7697,0.0,-2.0107,0.0,-2.0077,-2.0766,-2.168,-2.2222,0.0,0.0,-2.4193,-2.4563,-2.4604,-2.5672,-2.6435,-2.6503,-2.7248,-2.7796,-2.7951,-2.8152,-2.834,-2.8518,-2.8755,-2.8905,-2.8905,-2.9021,-2.9108,-2.9108,-2.9145,-2.9229,-2.9283,-2.9347,-2.9392,-2.9482,-2.8886,-2.8342,-2.8242,-2.7557,-2.6956,-2.6832,-2.7205,-2.7223,-2.6392,-2.6697,-2.669,-2.5854,-2.566,-2.5692,-2.5701,-2.6211,-2.6759,-3.6889,-3.6721,-3.6721,-3.6252,-3.5527,-3.5083,-3.4729,-3.4435,-3.3928,-3.3192,-3.2418,-3.2875,-3.3263,-3.3526,-3.3087,-3.2846,-3.2787,-3.2166,-3.1708,-3.1351,-3.0968,-3.0717,-3.0612,-3.0732,-3.1014,-3.1408,-3.1724,-3.2035,-3.2272,-3.2176,-3.2011,-3.1805,-3.0836,-2.9957,-2.9182,-2.9396,-2.9592,-2.976,-2.8758,-2.7712,-2.6633,-2.6035,-2.5731,-2.5656,-2.5752,-2.5772,-2.5701,-2.5607,-2.5349,-2.4893,-2.4523,-2.3887,-2.3004,-2.2096,-2.0926,0.0,0.0,0.0,0.0,0.0,0.0,0.0,0.0,0.0,0.0,0.0,-2.06,0.0,-2.1394,0.0,-2.3329,-2.3763,-2.4179,-2.4709,-2.527,-2.5543,-2.5354,-2.6244,-2.6938,-2.7101,-2.7531,-2.7911,-2.8154,-2.8196,-2.8277,-2.8466,-2.8662,-2.8798,-2.8858,-2.8964,-2.9044,-2.9062,-2.9096,-2.9134,-2.924,-2.931,-2.9384,-2.9445,-2.9185,-2.8848,-2.8553,-2.8179,-2.7786,-2.7498,-2.7823,-2.7937,-2.7283,-2.7213,-2.7039,-2.6365,-2.5885,-2.5695,-2.5666,-2.635,-2.7034,-3.6797,-3.6682,-3.6682,-3.6553,-3.641,-3.6091,-3.5671,-3.5269,-3.4654,-3.3775,-3.2727,-3.2634,-3.3061,-3.3864,-3.394,-3.4044,-3.4117,-3.348,-3.2854,-3.2228,-3.1501,-3.0969,-3.0612,-3.0789,-3.0984,-3.1263,-3.1468,-3.1656,-3.1851,-3.1879,-3.1787,-3.1574,-3.0791,-3.0304,-3.0146,-2.9697,-2.9507,-2.9621,-2.8239,-2.7144,-2.632,-2.5753,-2.541,-2.5259,-2.5454,-2.5589,-2.5591,-2.5435,-2.4994,-2.4292,-2.4244,-2.3851,-2.2965,-2.2056,-2.119,0.0,-1.9371,0.0,0.0,0.0,0.0,0.0,0.0,0.0,0.0,-2.0086,-2.101,-2.2041,-2.2833,-2.3831,-2.5045,-2.5262,-2.5312,-2.5345,-2.61,-2.6371,-2.583,-2.6532,-2.7165,-2.7419,-2.7526,-2.7721,-2.8056,-2.814,-2.825,-2.8388,-2.8536,-2.8637,-2.8737,-2.8881,-2.8975,-2.8987,-2.8987,-2.9085,-2.9178,-2.9249,-2.9353,-2.9472,-2.9513,-2.9373,-2.8807,-2.8728,-2.855,-2.8021,-2.8498,-2.8798,-2.8172,-2.8086,-2.7823,-2.6974,-2.624,-2.5829,-2.59,-2.6544,-2.7325,-3.647,-3.6484,-3.6431,-3.6362,-3.6198,-3.6422,-3.6296,-3.583,-3.5591,-3.5157,-3.4526,-3.3891,-3.3854,-3.4296,-3.4348,-3.4283,-3.4044,-3.3996,-3.332,-3.2137,-3.2079,-3.1544,-3.0656,-3.0997,-3.1137,-3.1087,-3.1664,-3.1797,-3.1595,-3.1794,-3.1819,-3.1684,-3.1086,-3.051,0.0,0.0,0.0,0.0,-2.7937,-2.7116,-2.6878,-2.5512,-2.4835,-2.4958,-2.4875,0.0,-2.5036,-2.5001,-2.4831,-2.4478,-2.4491,0.0,0.0,0.0,0.0,0.0,0.0,0.0,0.0,0.0,0.0,0.0,-2.0185,-2.0174,-2.0348,-2.1756,-2.283,-2.3309,-2.4049,-2.4592,-2.4907,-2.5502,-2.59,-2.6022,-2.6367,-2.6556,-2.6421,-2.6774,-2.7038,-2.7086,-2.7293,-2.7494,-2.7704,-2.7879,-2.8071,-2.8182,-2.838,-2.8523,-2.8556,-2.8773,-2.8929,-2.8994,-2.904,-2.9119,-2.9197,-2.9267,-2.9353,-2.9472,-2.955,-2.9551,-2.9467,-2.951,-2.9571,-2.9355,-2.9654,-2.9608,-2.8868,-2.882,-2.8371,-2.6942,-2.6575,-2.6533,-2.666,-2.7334,-2.8212,-3.6667,0.0,-3.6286,-3.6212,0.0,-3.6424,-3.6351,-3.5974,-3.5654,-3.5166,-3.4581,-3.3989,-3.4255,-3.5065,-3.5155,-3.5399,-3.5756,-3.5676,-3.4885,-3.3598,-3.3059,-3.2137,-3.0791,-3.081,-3.0826,-3.0821,-3.0992,-3.0993,-3.0911,-3.1028,-3.119,-3.1335,-3.0736,-3.0423,-3.0361,-2.9472,-2.8978,-2.8897,-2.7854,-2.7248,-2.709,-2.5697,-2.4963,-2.4979,0.0,0.0,0.0,0.0,0.0,0.0,0.0,0.0,0.0,0.0,0.0,-2.157,-2.1054,-2.0592,-2.025,-2.027,-2.048,-2.0961,-2.1406,-2.1671,-2.1641,-2.2931,-2.3877,-2.4208,-2.4914,-2.5358,-2.5394,-2.574,-2.5972,-2.6043,-2.6205,-2.6312,-2.6329,-2.6504,-2.6691,-2.6792,-2.694,-2.7133,-2.7369,-2.7507,-2.7716,-2.7965,-2.8115,-2.8291,-2.8505,-2.8662,-2.8755,-2.8846,-2.8964,-2.9078,-2.9178,-2.9254,-2.9341,-2.9463,-2.955,-2.9617,-2.9692,-2.9746,-2.9816,-2.9895,-3.001,-2.9934,-2.9639,-2.9014,-2.8176,-2.7436,-2.6953,-2.6912,-2.7322,-2.7822,-2.8411,-3.6999,-3.6583,-3.6207,-3.6073,-3.6192,-3.6302,-3.6192,-3.5946,0.0,0.0,0.0,-3.3854,-3.4317,-3.5415,-3.5723,-3.6384,-3.7217,-3.7103,-3.626,-3.4885,-3.3895,-3.2591,-3.1014,-3.0669,-3.0518,-3.0582,-3.0425,-3.035,-3.0342,-3.0357,-3.0523,-3.0837,-3.0382,-3.0301,-3.0584,-2.9403,-2.8647,-2.8391,-2.7719,-2.7311,-2.7099,-2.5947,-2.5229,-2.5004,-2.4585,-2.4374,-2.441,-2.4261,-2.3881,-2.3254,-2.3046,-2.2973,-2.2932,-2.2649,-2.25,-2.2634,-2.2344,-2.1981,-2.1603,-2.1547,-2.163,-2.1821,-2.247,-2.2813,-2.277,-2.3745,-2.4494,-2.4819,-2.5464,-2.5844,-2.5862,-2.5879,-2.5862,-2.5881,-2.5937,-2.6008,-2.601,-2.6154,-2.6365,-2.6503,-2.664,-2.6791,-2.7069,-2.7181,-2.7321,-2.7666,-2.7829,-2.8,-2.8375,-2.8536,-2.8637,-2.8724,-2.8846,-2.8987,-2.9145,-2.9251,-2.9347,-2.9433,-2.9549,-2.9617,-2.9701,-2.9765,-2.9825,-2.9885,-2.9991,-3.003,-2.9958,-2.9111,-2.8149,-2.7906,-2.7504,-2.7325,-2.7994,-2.8268,-2.8651,-3.7193,-3.7337,-3.621,-3.5897,-3.6094,-3.6134,-3.6009,-3.5752,-3.4831,-3.4453,-3.4495,-3.4187,-3.4153,-3.4375,-3.5317,-3.58,-3.6008,-3.6538,-3.5827,0.0,-3.3863,-3.2766,-3.1043,-3.1241,-3.1074,-3.064,-3.1058,-3.1043,-3.0596,-3.0538,-3.0598,-3.0657,-3.057,-3.0324,-2.9868,-2.8677,-2.808,-2.8147,-2.7315,-2.6892,-2.6829,-2.5901,-2.5158,-2.4687,-2.4395,-2.4052,-2.3754,-2.3724,-2.3586,-2.3302,-2.3259,-2.3208,-2.3069,-2.2847,-2.2786,-2.2847,-2.2802,-2.2751,-2.2672,-2.2775,-2.2952,-2.3198,-2.3316,-2.329,-2.3105,-2.3969,-2.4693,-2.5041,-2.5387,-2.5675,-2.5719,-2.5719,-2.5738,-2.5881,-2.5937,-2.6008,-2.6008,-2.6115,-2.6221,-2.6258,-2.6468,-2.664,-2.6758,-2.7005,-2.7165,-2.726,-2.7567,-2.7786,-2.7961,-2.8304,-2.86,-2.8682,-2.8718,-2.8858,-2.9044,-2.9218,-2.9315,-2.9332,-2.9501,-2.9617,-2.9692,-2.9746,-2.9806,-2.9872,-2.9956,-2.9791,-2.9294,-2.9503,-2.9025,-2.821,-2.8144,-2.8631,-2.8877,-2.9028,-2.9399,-3.736,-3.7111,-3.6116,-3.5764,-3.5871,-3.5756,-3.5703,-3.5523,-3.5006,-3.4639,-3.4331,-3.3878,-3.3825,-3.4138,-3.4894,-3.5563,-3.6212,-3.6768,-3.639,-3.5279,-3.4493,-3.3304,-3.1857,-3.126,-3.0858,-3.0627,-3.0767,-3.0691,-3.0462,-3.0447,-3.0433,-3.0447,-3.0538,-3.0148,-2.9202,-2.8633,-2.8061,-2.7507,-2.7187,-2.7001,-2.7001,-2.6165,-2.5653,-2.5468,-2.4637,-2.4078,-2.3926,-2.3555,-2.3275,-2.3179,-2.3082,-2.3029,-2.2992,-2.2872,-2.2841,-2.2888,-2.2888,-2.2888,-2.2888,-2.3015,-2.3149,-2.3268,-2.3356,-2.3354,-2.3233,-2.3895,-2.4431,-2.4695,-2.493,-2.5127,-2.525,-2.5269,-2.54,-2.5712,-2.5768,-2.5826,-2.5936,-2.6026,-2.6115,-2.6185,-2.631,-2.6399,-2.6469,-2.6674,-2.6908,-2.7021,-2.7415,-2.7654,-2.7644,-2.7886,-2.8183,-2.8349,-2.8556,-2.8743,-2.8929,-2.9152,-2.9265,-2.9293,-2.9481,-2.9598,-2.9645,-2.9719,-2.9808,-2.9841,-2.9924,-2.9855,-2.9448,-2.9334,-2.8995,-2.8674,-2.8599,-2.8957,-2.9069,-2.9494,-3.0161,-3.7743,-3.7126,-3.6239,-3.5845,-3.5777,-3.567,-3.562,-3.559,-3.5325,-3.4899,-3.4284,-3.3754,-3.3669,-3.3948,-3.4413,-3.5145,-3.6041,-3.6553,-3.6484,-3.5919,-3.4734,-3.3559,-3.2482,-3.1219,-3.0642,-3.0568,-3.0417,-3.0326,-3.0357,-3.0372,-3.0372,-3.0387,-3.0507,-3.0118,-2.9159,-2.884,-2.8242,-2.7418,-2.7213,-2.7144,-2.7141,-2.6421,-2.6034,-2.6021,-2.4936,-2.4239,-2.4118,-2.3704,-2.3424,-2.3293,-2.3256,-2.3259,-2.3337,-2.3282,-2.3201,-2.3149,-2.3128,-2.307,-2.2917,-2.2992,-2.3074,-2.3097,-2.3201,-2.3275,-2.3341,-2.3674,-2.4021,-2.4245,-2.4472,-2.4619,-2.4779,-2.4839,-2.4993,-2.5371,-2.5502,-2.56,-2.5768,-2.5917,-2.6045,-2.615,-2.6168,-2.6239,-2.6277,-2.6365,-2.6589,-2.6907,-2.7243,-2.743,-2.7432,-2.7522,-2.7686,-2.795,-2.8295,-2.8551,-2.87,-2.898,-2.9189,-2.9238,-2.9433,-2.9569,-2.9636,-2.9738,-2.9799,-2.9825,-2.9874,-2.978,-2.9671,-2.9379,-2.8973,-2.8753,-2.8938,-2.9195,-2.9359,-2.9877,-3.0516,-3.8445,-3.7979,-3.6906,-3.6348,-3.6086,-3.6243,-3.6281,-3.6182,-3.5511,-3.5041,-3.4673,-3.4298,-3.3817,-3.3494,-3.3914,-3.4274,-3.4461,-3.4894,-3.504,-3.4817,-3.3785,-3.3004,-3.2452,-3.1353,-3.0732,-3.0582,-3.0417,-3.0417,-3.0538,-3.0582,-3.0582,-3.0568,-3.0612,-3.0525,-3.0278,-2.9261,-2.8622,-2.8505,-2.7428,-2.6884,-2.6959,-2.633,-2.5944,-2.5828,-2.5188,-2.4525,-2.4078,-2.4399,-2.4384,-2.3943,-2.4259,-2.4568,-2.465,-2.4592,-2.4308,-2.3862,-2.3804,-2.3557,-2.2975,-2.2925,-2.297,-2.3082,-2.3119,-2.3157,-2.3275,-2.3341,-2.3538,-2.3818,-2.4168,-2.4374,-2.4456,-2.4553,-2.4675,-2.491,-2.5143,-2.5355,-2.5489,-2.5772,-2.6008,-2.6026,-2.6097,-2.622,-2.6203,-2.6277,-2.6435,-2.6691,-2.6841,-2.6988,-2.7197,-2.726,-2.7353,-2.7572,-2.7818,-2.8124,-2.8435,-2.8755,-2.8945,-2.9112,-2.9349,-2.9501,-2.9598,-2.9682,-2.9735,-2.9825,-2.9861,-2.9624,-2.9301,-2.916,-2.9425,-2.9058,-2.9284,-2.9821,-3.0073,-3.0246,-3.0411,-3.8399,-3.7727,-3.6946,-3.6389,-3.6153,-3.6431,-3.6524,-3.6348,-3.5941,-3.5405,-3.4785,-3.436,-3.3866,-3.3326,-3.3542,-3.3791,-3.4119,-3.4341,-3.4578,-3.4708,-3.3797,-3.3052,-3.2423,-3.1531,-3.0883,-3.0447,-3.0447,-3.0507,-3.0612,-3.0612,-3.0612,-3.0612,-3.0612,-3.0249,-2.9479,-2.897,-2.836,-2.7563,-2.6946,-2.6645,-2.6625,-2.6177,-2.5992,-2.6096,-2.5321,-2.4936,-2.4979,-2.4897,-2.4679,-2.4462,-2.4611,-2.4755,-2.4892,-2.4755,-2.464,-2.4433,-2.408,-2.3775,-2.3528,-2.3142,-2.3107,-2.3554,-2.3196,-2.3015,-2.3045,-2.3068,-2.3135,-2.3275,-2.3566,-2.3809,-2.4015,-2.4099,-2.4281,-2.4594,-2.4786,-2.4946,-2.5317,-2.5489,-2.5659,-2.5915,-2.5972,-2.6043,-2.6081,-2.6207,-2.6399,-2.6606,-2.6691,-2.6808,-2.7022,-2.7103,-2.723,-2.7405,-2.7569,-2.7771,-2.8128,-2.8487,-2.87,-2.8851,-2.9097,-2.9343,-2.9414,-2.9598,-2.9726,-2.978,-2.9799,-2.9724,-2.9475,-2.9441,-2.9602,-2.937,-2.9458,-2.9956,-3.0138,-3.0248,-3.0364,-3.8378,-3.746,-3.67,-3.6253,-3.6126,-3.6391,-3.6445,-3.6269,-3.6025,-3.5464,-3.4701,-3.4287,-3.383,-3.3347,-3.3276,-3.3507,-3.3859,-3.3894,-3.4187,-3.4551,-3.3736,-3.3028,-3.2454,-3.1719,-3.0976,-3.0413,-3.0433,-3.0538,-3.0612,-3.0612,-3.0612,-3.0612,-3.0612,-3.0147,-2.9305,-2.9072,-2.8492,-2.765,-2.7095,-2.6757,-2.6656,-2.6058,-2.5954,-2.6337,-2.5561,-2.5288,-2.5749,-2.5491,-2.5235,-2.5036,-2.512,-2.5236,-2.5336,-2.5236,-2.5149,-2.5042,-2.45,-2.4152,-2.4138,-2.3693,-2.3586,-2.3804,-2.3418,-2.3099,-2.296,-2.3062,-2.3186,-2.3223,-2.3353,-2.3592,-2.3575,-2.3646,-2.3861,-2.424,-2.4333,-2.4544,-2.489,-2.5123,-2.5429,-2.5677,-2.5826,-2.5917,-2.5992,-2.6118,-2.6294,-2.652,-2.6623,-2.6742,-2.6925,-2.704,-2.7119,-2.7313,-2.7419,-2.76,-2.7829,-2.8237,-2.8479,-2.8651,-2.8909,-2.9198,-2.923,-2.9494,-2.969,-2.9727,-2.9764,-2.9745,-2.9604,-2.9662,-2.9672,-2.9681,-2.9745,-2.9876,-3.0,-3.0142,-3.0286,-3.86,-3.7377,-3.6252,-3.5912,-3.6086,-3.6166,-3.6126,-3.6125,-3.565,-3.5068,-3.4513,-3.409,-3.3687,-3.3304,-3.3276,-3.3312,-3.3347,-3.3382,-3.3632,-3.4061,-3.3427,-3.2912,-3.2472,-3.1785,-3.1083,-3.0309,-3.0296,-3.0417,-3.0582,-3.0612,-3.0612,-3.0598,-3.0598,-3.0569,-3.0263,-2.974,-2.9508,-2.9102,-2.7992,-2.7363,-2.7124,-2.6067,-2.5804,-2.6354,-2.5991,-2.5734,-2.5865,-2.6373,-2.635,-2.5563,-2.6038,-2.6381,-2.6381,-2.6381,-2.6171,-2.5709,-2.51,-2.4766,-2.4781,-2.4718,-2.453,-2.4074,-2.3876,-2.3586,-2.3099,-2.3374,-2.3688,-2.3842,-2.3784,-2.3672,-2.3391,-2.3349,-2.3407,-2.3581,-2.3855,-2.4051,-2.4168,-2.4811,-2.5236,-2.5375,-2.5659,-2.5899,-2.599,-2.6008,-2.6188,-2.6399,-2.652,-2.6623,-2.6842,-2.6975,-2.7056,-2.7168,-2.734,-2.7539,-2.7716,-2.8035,-2.8309,-2.8461,-2.8719,-2.9104,-2.9283,-2.9444,-2.9561,-2.9654,-2.9682,-2.9692,-2.9683,-2.9664,-2.9636,-2.9626,-2.9617,-2.9737,-2.9872,-3.0007,-3.0136,-3.803,-3.6877,-3.6239,-3.6032,-3.6126,-3.6246,-3.6232,-3.6057,-3.5611,-3.5068,-3.4513,-3.4067,-3.3673,-3.3276,-3.3276,-3.3276,-3.3276,-3.3276,-3.3417,-3.3548,-3.335,-3.2746,-3.1895,-3.1693,-3.1022,-3.0121,-3.0083,-3.0249,-3.0387,-3.0417,-3.0417,-3.0447,-3.0538,-3.0349,-2.9898,-2.9682,-2.9407,-2.8957,-2.7907,-2.7366,-2.7239,-2.6359,-2.5978,-2.6188,-2.5882,-2.5867,-2.6217,-2.6488,-2.6424,-2.6064,-2.6265,-2.6418,-2.651,-2.663,-2.6422,-2.5865,-2.5575,-2.5444,-2.54,-2.5067,-2.495,-2.5052,-2.4326,-2.3818,-2.3548,-2.3389,-2.3418,-2.3804,-2.3914,-2.3938,-2.4092,-2.3631,-2.3223,-2.3378,-2.3575,-2.3747,-2.3909,-2.4287,-2.4655,-2.5033,-2.5473,-2.5809,-2.5899,-2.5956,-2.6099,-2.6312,-2.645,-2.6589,-2.6742,-2.6892,-2.7006,-2.7119,-2.7324,-2.7509,-2.7554,-2.7824,-2.8067,-2.8228,-2.843,-2.8694,-2.8927,-2.922,-2.9395,-2.9483,-2.9522,-2.9598,-2.9598,-2.9588,-2.9559,-2.9578,-2.9588,-2.9636,-2.9753,-2.9934,-3.0041,-3.7541,-3.6619,-3.6143,-3.5978,-3.5978,-3.6112,-3.6098,-3.5937,-3.5646,-3.5107,-3.4455,-3.4112,-3.3723,-3.3255,-3.3122,-3.3157,-3.3192,-3.3192,-3.3192,-3.3192,-3.3206,-3.2694,-3.1954,-3.1919,-3.1419,-3.0531,-3.0389,-3.0442,-3.0477,-3.0336,-3.0249,-3.0235,-3.0357,-3.0199,-2.9735,-2.9707,-2.9478,-2.8857,-2.8197,-2.7683,-2.7297,-2.6662,-2.624,-2.6096,-2.5873,-2.5988,-2.6455,-2.6457,-2.6406,-2.6313,-2.626,-2.6299,-2.6418,-2.6659,-2.6602,-2.6195,-2.6137,-2.6137,-2.6094,-2.5691,-2.5462,-2.5458,-2.4733,-2.4114,-2.3873,-2.3627,-2.3858,-2.4278,-2.4515,-2.4757,-2.4859,-2.4258,-2.3622,-2.3516,-2.3422,-2.3422,-2.3575,-2.3999,-2.4531,-2.4992,-2.5261,-2.5508,-2.5677,-2.5807,-2.5972,-2.624,-2.6346,-2.6468,-2.6657,-2.6809,-2.6941,-2.7071,-2.7246,-2.7402,-2.7494,-2.7692,-2.7885,-2.8039,-2.8268,-2.8466,-2.8657,-2.8978,-2.9188,-2.928,-2.9363,-2.9463,-2.9492,-2.9491,-2.9501,-2.9521,-2.955,-2.9579,-2.9736,-2.9883,-2.9977,-3.7133,-3.6497,-3.5967,-3.571,-3.5764,-3.575,-3.571,-3.575,-3.5723,-3.5148,-3.4268,-3.421,-3.3721,-3.3112,-3.2846,-3.281,-3.2966,-3.2952,-3.2988,-3.2988,-3.2988,-3.2786,-3.2308,-3.234,-3.2102,-3.1457,-3.1123,-3.0948,-3.0894,-3.0352,-3.0066,-3.0066,-3.0111,-3.0099,-3.0038,-3.0013,-2.9845,-2.9402,-2.8982,-2.8338,-2.7426,-2.6947,-2.6539,-2.6141,-2.6096,-2.6231,-2.6457,-2.6379,-2.6272,-2.626,-2.6179,-2.6179,-2.6326,-2.658,-2.6765,-2.6707,-2.6736,-2.675,-2.6736,-2.6649,-2.6028,-2.5313,-2.4839,-2.4457,-2.4071,-2.4245,-2.4737,-2.5279,-2.5503,-2.572,-2.5636,-2.5143,-2.4515,-2.3972,-2.3564,-2.3303,-2.3392,-2.4037,-2.4842,-2.5161,-2.519,-2.5076,-2.5307,-2.5728,-2.6056,-2.6391,-2.6402,-2.6477,-2.6706,-2.6776,-2.6792,-2.6958,-2.7104,-2.7263,-2.7402,-2.7539,-2.7692,-2.7853,-2.8132,-2.8362,-2.8505,-2.8743,-2.8932,-2.9052,-2.9217,-2.932,-2.9411,-2.9401,-2.9401,-2.9431,-2.9463,-2.9541,-2.9673,-2.9815,-2.9932,-3.6889,-3.6008,-3.5764,-3.571,-3.571,-3.571,-3.571,-3.571,-3.571,-3.5124,-3.4326,-3.4227,-3.3679,-3.296,-3.2739,-3.2668,-3.2583,-3.2596,-3.2668,-3.2775,-3.281,-3.2506,-3.209,-3.2027,-3.181,-3.1357,-3.0857,-3.0736,-3.0733,-3.0225,-2.9884,-2.9929,-3.005,-3.0005,-2.9929,-3.0036,-3.0013,-2.9872,-2.9383,-2.8652,-2.7826,-2.7258,-2.6665,-2.6102,-2.6342,-2.6509,-2.6261,-2.6206,-2.6125,-2.6029,-2.5975,-2.6029,-2.6206,-2.6418,-2.6578,-2.6604,-2.6578,-2.6671,-2.6765,-2.6657,-2.6283,-2.5568,-2.5036,-2.4708,-2.4418,-2.4134,-2.4503,-2.5405,-2.5643,-2.5773,-2.5983,-2.5752,-2.5206,-2.4578,-2.4087,-2.3695,-2.3614,-2.3792,-2.4265,-2.492,-2.5172,-2.5644,-2.6368,-2.6663,-2.6787,-2.7235,-2.709,-2.6887,-2.7103,-2.6859,-2.6691,-2.6742,-2.6925,-2.712,-2.7246,-2.7402,-2.7572,-2.7739,-2.7968,-2.8205,-2.8335,-2.8492,-2.8694,-2.8875,-2.9019,-2.9171,-2.9265,-2.9326,-2.9318,-2.9359,-2.9412,-2.9502,-2.9598,-2.9727,-2.9847,-3.6781,-3.575,-3.571,-3.571,-3.571,-3.571,-3.571,-3.571,-3.571,-3.5084,-3.4224,-3.4099,-3.353,-3.2753,-3.2538,-3.2503,-3.2381,-3.2345,-3.2408,-3.2503,-3.2561,-3.2412,-3.2151,-3.2137,-3.202,-3.1729,-3.1313,-3.1166,-3.1242,-3.0489,-3.0069,-3.0069,-2.9964,-2.9851,-2.973,-2.9837,-2.9842,-2.9661,-2.9446,-2.8805,-2.7839,-2.7442,-2.7018,-2.6427,-2.661,-2.6624,-2.6355,-2.6382,-2.6242,-2.6031,-2.5975,-2.6029,-2.6165,-2.6377,-2.6496,-2.651,-2.6578,-2.6645,-2.6671,-2.6563,-2.6133,-2.5503,-2.5113,-2.4823,-2.4646,-2.4193,-2.4751,-2.5566,-2.5862,-2.5964,-2.6195,-2.6117,-2.5787,-2.5427,-2.453,-2.4049,-2.3859,-2.3591,-2.3792,-2.4432,-2.4923,-2.5503,-2.5979,-2.6656,-2.6988,-2.7437,-2.7125,-2.7011,-2.7146,-2.6957,-2.674,-2.6657,-2.6876,-2.7023,-2.7085,-2.7261,-2.7452,-2.7619,-2.7813,-2.8,-2.8136,-2.83,-2.8484,-2.87,-2.8863,-2.9003,-2.9112,-2.92,-2.9243,-2.9289,-2.9351,-2.9463,-2.957,-2.9654,-2.977,-3.6781,-3.5764,-3.571,-3.571,-3.571,-3.571,-3.571,-3.571,-3.571,-3.5005,-3.4084,-3.3946,-3.3343,-3.2514,-3.23,-3.23,-3.2359,-3.2277,-3.2205,-3.2277,-3.2372,-3.2434,-3.2486,-3.2522,-3.2502,-3.2469,-3.2125,-3.1992,-3.188,-3.0895,-3.0484,-3.0389,-2.9915,-2.9602,-2.9634,-2.9602,-2.947,-2.9238,-2.9459,-2.884,-2.7414,-2.7597,-2.7525,-2.6905,-2.6905,-2.6877,-2.6736,-2.6638,-2.6468,-2.6141,-2.6056,-2.6084,-2.6245,-2.6418,-2.6457,-2.6431,-2.6659,-2.6618,-2.6537,-2.6498,-2.6023,-2.5113,-2.5159,-2.5118,-2.4622,-2.4878,-2.5348,-2.5993,-2.6133,-2.6229,-2.6245,-2.6256,-2.6212,-2.6026,-2.4825,-2.4076,-2.3838,-2.3393,-2.3501,-2.4002,-2.4469,-2.4841,-2.4991,-2.5816,-2.6495,-2.7028,-2.6839,-2.6914,-2.7136,-2.7118,-2.6672,-2.664,-2.6742,-2.6792,-2.6808,-2.6989,-2.7182,-2.7388,-2.7602,-2.7842,-2.7986,-2.8154,-2.8313,-2.8523,-2.8675,-2.8803,-2.8945,-2.9037,-2.9134,-2.9189,-2.9296,-2.9412,-2.9522,-2.9598,-2.969,-3.6781,-3.575,-3.571,-3.571,-3.571,-3.571,-3.571,-3.571,-3.571,-3.5005,-3.4097,-3.3908,-3.3281,-3.2309,-3.2205,-3.2205,-3.2228,-3.2205,-3.2205,-3.2205,-3.2241,-3.2277,-3.2336,-3.2431,-3.2489,-3.2442,-3.213,-3.1972,-3.1992,-3.0959,-3.0424,-3.0469,-2.9908,-2.9602,-2.9602,-2.9602,-2.9546,-2.9499,-2.9768,-2.9456,-2.8533,-2.8138,-2.7953,-2.7739,-2.7582,-2.7256,-2.6821,-2.6357,-2.6118,-2.599,-2.5948,-2.5948,-2.6029,-2.6165,-2.6231,-2.6231,-2.6353,-2.6459,-2.6472,-2.6392,-2.6019,-2.5451,-2.53,-2.5248,-2.5274,-2.5142,-2.5528,-2.6008,-2.6192,-2.6111,-2.6056,-2.6179,-2.6101,-2.5626,-2.4848,-2.4148,-2.3669,-2.3207,-2.314,-2.383,-2.421,-2.4935,-2.5953,-2.6703,-2.7456,-2.8238,-2.7957,-2.7368,-2.7569,-2.7092,-2.6567,-2.6416,-2.6452,-2.6469,-2.6555,-2.6725,-2.6907,-2.7135,-2.7386,-2.7739,-2.7871,-2.8014,-2.8205,-2.8401,-2.8471,-2.8582,-2.8743,-2.8863,-2.8975,-2.9096,-2.924,-2.9359,-2.9451,-2.9522,-2.9626,-3.6781,-3.5723,-3.571,-3.571,-3.571,-3.571,-3.571,-3.571,-3.5696,-3.5005,-3.4097,-3.3908,-3.3244,-3.2236,-3.2205,-3.2205,-3.2205,-3.2205,-3.2205,-3.2205,-3.2205,-3.2205,-3.2241,-3.23,-3.2336,-3.2295,-3.2132,-3.2185,-3.2152,-3.1193,-3.0797,-3.0704,-3.0006,-2.9631,-2.9602,-2.9602,-2.9602,-2.9634,-2.9775,-2.9539,-2.887,-2.8576,-2.8236,-2.7978,-2.7806,-2.7496,-2.6835,-2.6217,-2.5893,-2.5893,-2.5921,-2.5921,-2.5975,-2.6056,-2.6098,-2.6111,-2.6233,-2.634,-2.6299,-2.6245,-2.5961,-2.5586,-2.5414,-2.5416,-2.537,-2.5309,-2.5692,-2.6013,-2.6056,-2.5975,-2.5948,-2.6056,-2.5955,-2.5643,-2.5086,-2.4398,-2.3602,-2.3283,-2.3189,-2.3473,-2.3914,-2.4576,-2.6138,-2.665,-2.7653,-2.8423,-2.8077,-2.7944,-2.7964,-2.7177,-2.6543,-2.6413,-2.6365,-2.6452,-2.659,-2.6758,-2.6973,-2.7135,-2.7308,-2.765,-2.7783,-2.79,-2.7993,-2.8142,-2.8228,-2.8367,-2.8505,-2.8694,-2.8851,-2.8998,-2.9163,-2.9294,-2.937,-2.9481,-2.956,-3.6822,-3.571,-3.571,-3.571,-3.571,-3.571,-3.571,-3.571,-3.571,-3.5005,-3.4097,-3.3908,-3.323,-3.2218,-3.2205,-3.2205,-3.2205,-3.2205,-3.2205,-3.2205,-3.2205,-3.2205,-3.2205,-3.2205,-3.2205,-3.2228,-3.2322,-3.2448,-3.2323,-3.1619,-3.1336,-3.1091,-3.0245,-2.9715,-2.9631,-2.9602,-2.9602,-2.9602,-2.9665,-2.9501,-2.9019,-2.8796,-2.8485,-2.8133,-2.7636,-2.7355,-2.6793,-2.6259,-2.5893,-2.5893,-2.5893,-2.5921,-2.6029,-2.6029,-2.6029,-2.6056,-2.6152,-2.6233,-2.6152,-2.6096,-2.5912,-2.5544,-2.572,-2.571,-2.5425,-2.561,-2.585,-2.5975,-2.5921,-2.5893,-2.5921,-2.5921,-2.592,-2.5765,-2.5385,-2.4674,-2.3928,-2.3616,-2.3407,-2.3066,-2.3661,-2.4153,-2.4804,-2.5568,-2.665,-2.8534,-2.8195,-2.8031,-2.7918,-2.738,-2.6804,-2.6449,-2.6452,-2.6504,-2.6657,-2.6808,-2.7039,-2.7247,-2.7357,-2.7589,-2.7709,-2.7813,-2.7824,-2.7879,-2.7979,-2.8105,-2.8286,-2.8479,-2.8682,-2.8881,-2.9017,-2.9167,-2.9299,-2.9402,-2.9512,-3.6822,-3.571,-3.571,-3.571,-3.571,-3.571,-3.571,-3.571,-3.571,-3.5005,-3.4097,-3.3908,-3.3216,-3.2218,-3.2205,-3.2205,-3.2205,-3.2205,-3.2205,-3.2205,-3.2205,-3.2205,-3.2205,-3.2205,-3.2205,-3.2205,-3.2205,-3.2336,-3.2283,-3.1937,-3.1501,-3.1168,-3.0601,-3.0066,-2.9659,-2.9602,-2.9602,-2.9602,-2.9713,-2.9673,-2.9461,-2.9066,-2.8799,-2.8474,-2.7581,-2.7003,-2.675,-2.6217,-2.5907,-2.5893,-2.5866,-2.5811,-2.5839,-2.5893,-2.5893,-2.5866,-2.6002,-2.6125,-2.6111,-2.6069,-2.6041,-2.5873,-2.5834,-2.5892,-2.5915,-2.5821,-2.5948,-2.6002,-2.5948,-2.5921,-2.5893,-2.5893,-2.5893,-2.5837,-2.5739,-2.54,-2.4789,-2.4286,-2.407,-2.4118,-2.4341,-2.4951,-2.5827,-2.6221,-2.7202,-2.8333,-2.838,-2.8084,-2.7766,-2.7427,-2.6961,-2.6445,-2.6329,-2.6383,-2.6624,-2.6792,-2.7023,-2.7215,-2.7357,-2.7419,-2.7557,-2.765,-2.7647,-2.7659,-2.7701,-2.7864,-2.8053,-2.8201,-2.8383,-2.8619,-2.8846,-2.8968,-2.9097,-2.9278,-2.9372,-3.6781,-3.5737,-3.571,-3.571,-3.571,-3.571,-3.571,-3.571,-3.571,-3.5019,-3.4084,-3.3908,-3.3244,-3.2259,-3.2205,-3.2205,-3.2205,-3.2205,-3.2205,-3.2205,-3.2205,-3.2205,-3.2205,-3.2205,-3.2205,-3.2205,-3.2205,-3.2264,-3.2231,-3.192,-3.144,-3.1057,-3.0597,-3.0019,-2.9607,-2.954,-2.9602,-2.9602,-2.9651,-2.9699,-2.9628,-2.9417,-2.884,-2.833,-2.737,-2.6708,-2.6357,-2.5869,-2.5757,-2.577,-2.5647,-2.5564,-2.5674,-2.5702,-2.5688,-2.5729,-2.5811,-2.5948,-2.5975,-2.6002,-2.5975,-2.5921,-2.5879,-2.5879,-2.5921,-2.5893,-2.5921,-2.5975,-2.5948,-2.5893,-2.5893,-2.5893,-2.5893,-2.5893,-2.5839,-2.5685,-2.5388,-2.4932,-2.4524,-2.4544,-2.4536,-2.5154,-2.5874,-2.6504,-2.7179,-2.8011,-2.8091,-2.7775,-2.7541,-2.7212,-2.6831,-2.6435,-2.6236,-2.626,-2.6504,-2.6742,-2.6974,-2.7136,-2.7246,-2.7261,-2.7308,-2.7388,-2.7434,-2.7463,-2.7509,-2.763,-2.7806,-2.7947,-2.8115,-2.8362,-2.8569,-2.8731,-2.8875,-2.8996,-2.9075,-3.6781,-3.571,-3.571,-3.571,-3.571,-3.571,-3.571,-3.571,-3.571,-3.5087,-3.4165,-3.3975,-3.3363,-3.2531,-3.2246,-3.2218,-3.2205,-3.2205,-3.2205,-3.2205,-3.2205,-3.2205,-3.2205,-3.2205,-3.2205,-3.2205,-3.2205,-3.2264,-3.2186,-3.1861,-3.1481,-3.0916,-3.0538,-3.0044,-2.961,-2.9477,-2.9585,-2.9617,-2.9602,-2.9634,-2.9602,-2.9532,-2.9043,-2.8185,-2.7228,-2.6624,-2.619,-2.5744,-2.5536,-2.5811,-2.5383,-2.5355,-2.5522,-2.5605,-2.5522,-2.5619,-2.5647,-2.5743,-2.5798,-2.5825,-2.5771,-2.5674,-2.5771,-2.5757,-2.5702,-2.5743,-2.5798,-2.5825,-2.5825,-2.5825,-2.5853,-2.5798,-2.5811,-2.5839,-2.5757,-2.5757,-2.5741,-2.5375,-2.5057,-2.491,-2.5069,-2.5549,-2.5934,-2.6442,-2.7056,-2.7518,-2.7572,-2.7521,-2.7275,-2.6941,-2.6537,-2.6323,-2.6129,-2.6278,-2.6521,-2.6674,-2.6908,-2.7055,-2.7151,-2.7135,-2.7119,-2.7184,-2.7249,-2.7296,-2.7341,-2.7467,-2.7557,-2.7657,-2.7847,-2.8105,-2.8322,-2.8469,-2.8596,-2.87,-2.8809,-3.6781,-3.571,-3.571,-3.571,-3.571,-3.571,-3.571,-3.571,-3.571,-3.529,-3.4626,-3.4138,-3.3569,-3.2942,-3.2372,-3.2196,-3.2196,-3.2205,-3.2169,-3.2146,-3.2096,-3.2096,-3.1986,-3.195,-3.2059,-3.2205,-3.2132,-3.2132,-3.2228,-3.2159,-3.1615,-3.0863,-3.0744,-3.0358,-2.9668,-2.946,-2.9533,-2.9554,-2.9571,-2.9602,-2.9571,-2.9529,-2.9265,-2.8436,-2.7465,-2.6819,-2.6441,-2.605,-2.5784,-2.5702,-2.5536,-2.5494,-2.555,-2.5564,-2.548,-2.5383,-2.5439,-2.5536,-2.5592,-2.5605,-2.5564,-2.555,-2.5578,-2.5578,-2.5536,-2.5564,-2.5633,-2.5605,-2.5605,-2.5578,-2.5564,-2.5592,-2.5647,-2.5661,-2.5619,-2.5578,-2.5646,-2.5617,-2.5558,-2.5519,-2.5684,-2.5859,-2.6162,-2.6476,-2.6931,-2.724,-2.7213,-2.7231,-2.7104,-2.6666,-2.6183,-2.6043,-2.5987,-2.626,-2.659,-2.6641,-2.6792,-2.6958,-2.7056,-2.7056,-2.704,-2.7024,-2.7073,-2.7277,-2.7342,-2.7404,-2.7447,-2.7506,-2.7739,-2.8132,-2.8219,-2.8246,-2.8365,-2.85,-2.8718,-3.6781,-3.5737,-3.571,-3.571,-3.571,-3.571,-3.571,-3.571,-3.5696,-3.5344,-3.4817,-3.4359,-3.3889,-3.3333,-3.2725,-3.237,-3.2223,-3.2205,-3.2023,-3.179,-3.1666,-3.1468,-3.132,-3.1259,-3.1222,-3.1296,-3.1408,-3.1767,-3.2036,-3.2191,-3.1724,-3.1118,-3.1068,-3.0655,-2.9831,-2.9743,-2.9585,-2.9495,-2.9509,-2.9571,-2.9509,-2.954,-2.9248,-2.8631,-2.7903,-2.7239,-2.6734,-2.6029,-2.5914,-2.6058,-2.5867,-2.5778,-2.5761,-2.5724,-2.5544,-2.5339,-2.5313,-2.5397,-2.5467,-2.5508,-2.5467,-2.5355,-2.5425,-2.5439,-2.5397,-2.5439,-2.548,-2.5508,-2.5508,-2.5508,-2.5508,-2.5508,-2.555,-2.5564,-2.5439,-2.5439,-2.5536,-2.5578,-2.5716,-2.5893,-2.593,-2.6048,-2.6357,-2.6663,-2.6945,-2.6975,-2.6883,-2.6842,-2.6826,-2.6306,-2.5714,-2.5954,-2.5954,-2.6207,-2.6504,-2.659,-2.6674,-2.6842,-2.6942,-2.6942,-2.6942,-2.6942,-2.7198,-2.7488,-2.7487,-2.7604,-2.772,-2.7937,-2.806,-2.8089,-2.8035,-2.8042,-2.816,-2.8335,-2.8518,-3.6781,-3.571,-3.571,-3.571,-3.571,-3.571,-3.571,-3.571,-3.571,-3.5425,-3.5005,-3.4658,-3.4282,-3.3757,-3.3098,-3.254,-3.2209,-3.2182,-3.179,-3.1381,-3.127,-3.0921,-3.0482,-3.0292,-3.0444,-3.0595,-3.0722,-3.1174,-3.1619,-3.1927,-3.1626,-3.1155,-3.1232,-3.0835,-2.9906,-2.9802,-2.961,-2.9452,-2.932,-2.9415,-2.9383,-2.9355,-2.9268,-2.8778,-2.8136,-2.7533,-2.7333,-2.6489,-2.6331,-2.6543,-2.6465,-2.622,-2.629,-2.6165,-2.5918,-2.554,-2.531,-2.5257,-2.5285,-2.5383,-2.5285,-2.5174,-2.5313,-2.5272,-2.5244,-2.5272,-2.5369,-2.5411,-2.5383,-2.5383,-2.5341,-2.5369,-2.5397,-2.5411,-2.53,-2.5202,-2.5369,-2.5453,-2.5522,-2.5688,-2.5893,-2.6138,-2.6392,-2.6525,-2.6738,-2.6671,-2.6568,-2.631,-2.6216,-2.5638,-2.5313,-2.574,-2.599,-2.6206,-2.6399,-2.6537,-2.6623,-2.6742,-2.6826,-2.6842,-2.6842,-2.6842,-2.7216,-2.7588,-2.8063,-2.8202,-2.8288,-2.8271,-2.8213,-2.8113,-2.7886,-2.7836,-2.7982,-2.8132,-2.8327,-3.6781,-3.571,-3.571,-3.571,-3.571,-3.571,-3.571,-3.571,-3.571,-3.5696,-3.5506,-3.5006,-3.4696,-3.4238,-3.3273,-3.2631,-3.2258,-3.2,-3.168,-3.1196,-3.1084,-3.0746,-3.033,-3.0292,-3.0101,-3.0101,-3.0254,-3.0659,-3.1011,-3.141,-3.1402,-3.0949,-3.086,-3.0521,-2.9713,-2.9745,-2.9614,-2.9382,-2.9208,-2.9162,-2.9099,-2.8908,-2.8967,-2.8805,-2.8067,-2.7548,-2.7838,-2.7168,-2.6942,-2.722,-2.7223,-2.7141,-2.7104,-2.6835,-2.6745,-2.6307,-2.5724,-2.499,-2.5112,-2.5183,-2.5212,-2.517,-2.513,-2.5075,-2.5061,-2.5061,-2.5131,-2.5061,-2.5061,-2.509,-2.5131,-2.5075,-2.5118,-2.5146,-2.5131,-2.5118,-2.5216,-2.5328,-2.5383,-2.5522,-2.5771,-2.6016,-2.6245,-2.6353,-2.6443,-2.6363,-2.6248,-2.5989,-2.5682,-2.5217,-2.5068,-2.553,-2.5846,-2.6064,-2.6313,-2.6451,-2.6605,-2.6708,-2.6725,-2.6759,-2.6758,-2.6843,-2.7267,-2.7689,-2.8229,-2.8838,-2.9116,-2.897,-2.8511,-2.8231,-2.8146,-2.7964,-2.7789,-2.7965,-2.8154,-3.6781,-3.5723,-3.571,-3.571,-3.571,-3.571,-3.571,-3.571,-3.571,-3.571,-3.5602,-3.5197,-3.4607,-3.4015,-3.3371,-3.2788,-3.2175,-3.1927,-3.1508,-3.0923,-3.0633,-3.0216,-2.9651,-2.938,-2.9263,-2.9419,-2.9496,-2.9651,-3.0088,-3.0558,-3.0815,-3.0966,-3.0727,-3.0401,-2.9671,-2.9696,-2.9376,-2.9091,-2.892,-2.889,-2.8812,-2.8716,-2.8748,-2.8994,-2.7779,-2.7685,-2.7848,-2.7498,-2.7216,-2.7471,-2.7593,-2.7668,-2.7544,-2.7359,-2.7186,-2.6661,-2.6316,-2.6047,-2.5948,-2.5681,-2.5505,-2.5385,-2.5236,-2.5005,-2.5005,-2.5032,-2.5032,-2.5005,-2.5005,-2.4977,-2.4948,-2.492,-2.4977,-2.5005,-2.4948,-2.5005,-2.5061,-2.5174,-2.5286,-2.5439,-2.5619,-2.588,-2.6098,-2.626,-2.6363,-2.6382,-2.6163,-2.5845,-2.5568,-2.5168,-2.5167,-2.5416,-2.5645,-2.5832,-2.6137,-2.6365,-2.6603,-2.6706,-2.6708,-2.6725,-2.6708,-2.6894,-2.73,-2.7891,-2.853,-2.9156,-2.9785,-2.9656,-2.9173,-2.8819,-2.8468,-2.8138,-2.7847,-2.7868,-2.8042,-3.6781,-3.5737,-3.571,-3.571,-3.571,-3.571,-3.571,-3.571,-3.571,-3.571,-3.5588,-3.5305,-3.4567,-3.3713,-3.3496,-3.2932,-3.2072,-3.1897,-3.1261,-3.0634,-3.0126,-2.9651,-2.9118,-2.8697,-2.859,-2.851,-2.8895,-2.9091,-2.9353,-2.9729,-3.0292,-3.0885,-3.0606,-3.0183,-2.9839,-2.9467,-2.9,-2.8243,-2.8508,-2.8536,-2.8327,-2.8183,-2.83,-2.8157,-2.7749,-2.7377,-2.7927,-2.7557,-2.7391,-2.794,-2.8141,-2.8184,-2.8053,-2.794,-2.7755,-2.7394,-2.724,-2.7226,-2.6982,-2.6647,-2.6145,-2.5805,-2.5588,-2.5288,-2.5233,-2.5194,-2.5001,-2.4932,-2.492,-2.492,-2.4892,-2.4791,-2.482,-2.482,-2.4835,-2.4892,-2.4948,-2.5061,-2.5174,-2.5314,-2.5522,-2.5716,-2.5935,-2.6152,-2.6295,-2.6364,-2.6136,-2.5753,-2.5364,-2.501,-2.5023,-2.5162,-2.5738,-2.5983,-2.6332,-2.6554,-2.6696,-2.6889,-2.6891,-2.6926,-2.7079,-2.7114,-2.7317,-2.7992,-2.8763,-2.9538,-3.0215,-3.0036,-2.9824,-2.914,-2.8527,-2.8168,-2.7934,-2.7891,-2.7929,-3.6781,-3.571,-3.571,-3.571,-3.571,-3.571,-3.571,-3.571,-3.571,-3.5669,-3.5588,-3.544,-3.4996,-3.4299,-3.3618,-3.2979,-3.2315,-3.1835,-3.1101,-3.0432,-2.9922,-2.9496,-2.9013,-2.8709,-2.855,-2.851,-2.863,-2.8816,-2.904,-2.9314,-2.9613,-2.9793,-3.019,-2.9871,-2.9436,-2.8935,-2.8298,-2.7746,-2.7967,-2.802,-2.7709,-2.7477,-2.7543,-2.7709,-2.7242,-2.7154,-2.8379,-2.7987,-2.7921,-2.8619,-2.8619,-2.8619,-2.8493,-2.8415,-2.8229,-2.8111,-2.8134,-2.8121,-2.7913,-2.7267,-2.6538,-2.609,-2.5805,-2.5652,-2.5524,-2.5679,-2.5432,-2.4801,-2.4791,-2.4763,-2.4706,-2.462,-2.4607,-2.4664,-2.4692,-2.4721,-2.4806,-2.4948,-2.5061,-2.5202,-2.5397,-2.5578,-2.5757,-2.5975,-2.6218,-2.6344,-2.6148,-2.5755,-2.507,-2.4706,-2.4704,-2.4952,-2.5763,-2.6253,-2.6727,-2.7041,-2.7483,-2.7651,-2.7675,-2.7664,-2.7686,-2.767,-2.7417,-2.8122,-2.8923,-2.9782,-3.0339,-2.989,-2.9458,-2.9028,-2.8595,-2.816,-2.7875,-2.7806,-2.7871,-3.6822,-3.5723,-3.571,-3.571,-3.571,-3.571,-3.571,-3.571,-3.5723,-3.5562,-3.5358,-3.5453,-3.5036,-3.422,-3.3751,-3.3033,-3.2256,-3.1649,-3.1076,-3.0723,-3.033,-2.9857,-2.9353,-2.8934,-2.8788,-2.859,-2.855,-2.8709,-2.9091,-2.9302,-2.9484,-2.9755,-2.9819,-2.9718,-2.924,-2.8585,-2.7746,-2.7387,-2.7423,-2.7464,-2.7397,-2.7377,-2.7577,-2.7993,-2.7523,-2.7556,-2.8249,-2.8118,-2.8229,-2.8438,-2.8619,-2.8683,-2.8683,-2.8619,-2.849,-2.8406,-2.849,-2.849,-2.8298,-2.7687,-2.7108,-2.6495,-2.6099,-2.5794,-2.5759,-2.5453,-2.5043,-2.4689,-2.4689,-2.4729,-2.462,-2.4492,-2.4463,-2.452,-2.4578,-2.4607,-2.4664,-2.4806,-2.492,-2.5061,-2.523,-2.5425,-2.5591,-2.577,-2.6042,-2.6269,-2.6057,-2.5752,-2.5154,-2.4558,-2.4579,-2.4823,-2.5607,-2.6213,-2.6683,-2.7457,-2.8279,-2.84,-2.8417,-2.8306,-2.8161,-2.7696,-2.7644,-2.8345,-2.881,-2.9276,-2.9513,-2.9386,-2.9095,-2.8734,-2.8389,-2.8045,-2.7853,-2.7747,-2.7865,-3.6781,-3.5764,-3.571,-3.571,-3.571,-3.571,-3.571,-3.571,-3.571,-3.5521,-3.5195,-3.5413,-3.5035,-3.4245,-3.3608,-3.3142,-3.2302,-3.1657,-3.1178,-3.0785,-3.0444,-3.0114,-2.9729,-2.9314,-2.8946,-2.8709,-2.855,-2.8709,-2.8895,-2.9445,-2.9523,-2.9457,-2.9392,-2.9471,-2.9195,-2.8549,-2.7664,-2.7236,-2.713,-2.725,-2.7297,-2.7253,-2.749,-2.7861,-2.7577,-2.7723,-2.8085,-2.8131,-2.8177,-2.8341,-2.849,-2.8587,-2.8587,-2.8554,-2.8471,-2.8406,-2.8406,-2.8471,-2.8225,-2.7808,-2.7516,-2.7242,-2.6698,-2.6351,-2.5949,-2.5624,-2.5681,-2.4792,-2.4768,-2.4704,-2.4582,-2.4332,-2.4261,-2.4361,-2.4392,-2.4408,-2.4507,-2.4622,-2.4778,-2.492,-2.509,-2.5258,-2.5564,-2.5784,-2.6056,-2.6238,-2.6166,-2.5933,-2.5558,-2.5,-2.458,-2.4909,-2.5462,-2.6042,-2.6598,-2.7784,-2.8848,-2.8948,-2.8906,-2.8751,-2.8511,-2.8021,-2.7954,-2.8641,-2.8903,-2.8813,-2.8993,-2.9307,-2.8967,-2.8439,-2.8064,-2.7654,-2.7985,-2.7927,-2.7995,-3.6781,-3.5764,-3.571,-3.571,-3.571,-3.571,-3.571,-3.571,-3.571,-3.5548,-3.5318,-3.5236,-3.5031,-3.4481,-3.3569,-3.2961,-3.2489,-3.166,-3.1035,-3.0672,-3.0558,-3.019,-2.9806,-2.947,-2.9209,-2.9013,-2.8776,-2.863,-2.863,-2.9263,-2.938,-2.938,-2.9419,-2.9318,-2.9096,-2.8693,-2.8037,-2.7299,-2.7193,-2.7304,-2.7357,-2.719,-2.7377,-2.7689,-2.7756,-2.7921,-2.8131,-2.8243,-2.8308,-2.8471,-2.8522,-2.8587,-2.8587,-2.8587,-2.8554,-2.849,-2.8554,-2.8587,-2.8514,-2.7845,-2.7722,-2.7857,-2.7256,-2.6903,-2.6892,-2.6777,-2.6374,-2.5208,-2.508,-2.4771,-2.4462,-2.4154,-2.4184,-2.4288,-2.4347,-2.4405,-2.4532,-2.4662,-2.4847,-2.4775,-2.492,-2.5118,-2.5495,-2.5798,-2.6071,-2.622,-2.6218,-2.605,-2.585,-2.542,-2.492,-2.503,-2.5505,-2.6057,-2.6841,-2.8407,-2.9353,-2.9442,-2.9345,-2.9114,-2.8846,-2.8444,-2.8571,-2.9026,-2.8858,-2.8626,-2.8999,-2.944,-2.8789,-2.8097,-2.7553,-2.7316,-2.7751,-2.8221,-2.8417,-3.6781,-3.5723,-3.571,-3.571,-3.571,-3.571,-3.571,-3.571,-3.5669,-3.5521,-3.5277,-3.5236,-3.499,-3.4373,-3.3541,-3.2817,-3.2489,-3.1587,-3.0861,-3.0823,-3.0748,-3.0558,-3.0203,-2.9896,-2.9625,-2.9209,-2.8934,-2.8816,-2.8946,-2.9275,-2.9445,-2.9484,-2.9277,-2.8858,-2.8354,-2.7948,-2.7593,-2.7134,-2.7164,-2.7356,-2.7659,-2.7604,-2.7712,-2.8146,-2.8185,-2.8237,-2.8373,-2.8373,-2.8471,-2.8554,-2.8587,-2.8587,-2.8587,-2.8587,-2.849,-2.8438,-2.8438,-2.8587,-2.8509,-2.8145,-2.795,-2.7891,-2.7586,-2.7125,-2.6963,-2.6472,-2.6002,-2.5651,-2.5336,-2.5061,-2.4769,-2.4308,-2.4269,-2.4528,-2.4636,-2.4666,-2.4756,-2.4922,-2.5017,-2.4707,-2.465,-2.5075,-2.5453,-2.5743,-2.6016,-2.6313,-2.6364,-2.6367,-2.6169,-2.5762,-2.5295,-2.5311,-2.5608,-2.6189,-2.7045,-2.8297,-2.9091,-2.9175,-2.9278,-2.9309,-2.9027,-2.8677,-2.8796,-2.907,-2.873,-2.8449,-2.8918,-2.9115,-2.8391,-2.7739,-2.7582,-2.7538,-2.7964,-2.8612,-2.9192,-3.6781,-3.575,-3.571,-3.571,-3.571,-3.571,-3.571,-3.571,-3.5669,-3.548,-3.5195,-3.5236,-3.4721,-3.3862,-3.3088,-3.2319,-3.1966,-3.1228,-3.0785,-3.0823,-3.0936,-3.0785,-3.0634,-3.0279,-2.9767,-2.9353,-2.9013,-2.8867,-2.8828,-2.9013,-2.9197,-2.9275,-2.9118,-2.867,-2.8204,-2.8032,-2.7948,-2.7599,-2.7597,-2.7618,-2.7848,-2.7977,-2.8075,-2.8404,-2.8505,-2.849,-2.8525,-2.8554,-2.8509,-2.8554,-2.8587,-2.8587,-2.8587,-2.8554,-2.849,-2.8438,-2.8438,-2.8554,-2.8444,-2.8333,-2.8097,-2.7947,-2.7458,-2.7229,-2.713,-2.6927,-2.6534,-2.6143,-2.572,-2.5471,-2.5223,-2.4766,-2.4771,-2.5083,-2.5091,-2.5109,-2.5131,-2.5301,-2.5129,-2.4797,-2.4629,-2.503,-2.5411,-2.5661,-2.5921,-2.6245,-2.6537,-2.6509,-2.6482,-2.6094,-2.5668,-2.5591,-2.5658,-2.606,-2.682,-2.7841,-2.85,-2.8841,-2.9059,-2.9266,-2.9102,-2.8758,-2.8928,-2.9094,-2.8954,-2.8887,-2.8931,-2.8807,-2.8483,-2.8355,-2.834,-2.8341,-2.8352,-2.8903,-2.9627,-3.6767,-3.5791,-3.571,-3.571,-3.571,-3.571,-3.571,-3.571,-3.571,-3.548,-3.5113,-3.5072,-3.4355,-3.3086,-3.2371,-3.1645,-3.0898,-3.0522,-3.0471,-3.052,-3.0748,-3.0798,-3.0596,-3.019,-2.9767,-2.9419,-2.9079,-2.8749,-2.859,-2.8736,-2.8973,-2.9013,-2.8736,-2.8478,-2.8402,-2.8326,-2.829,-2.8074,-2.7948,-2.8043,-2.8238,-2.8064,-2.814,-2.8313,-2.8373,-2.8345,-2.8351,-2.8346,-2.8411,-2.849,-2.8522,-2.8554,-2.8554,-2.8554,-2.8554,-2.8587,-2.8554,-2.8509,-2.8411,-2.8333,-2.817,-2.802,-2.7815,-2.765,-2.7485,-2.7348,-2.7079,-2.6771,-2.6438,-2.6177,-2.589,-2.5728,-2.5623,-2.566,-2.5649,-2.5654,-2.5634,-2.5558,-2.5275,-2.5034,-2.4848,-2.5022,-2.5354,-2.5605,-2.5854,-2.6111,-2.6433,-2.6707,-2.6656,-2.6545,-2.6114,-2.5748,-2.5819,-2.5918,-2.6688,-2.7522,-2.8046,-2.8434,-2.8897,-2.9082,-2.8935,-2.8803,-2.8803,-2.8943,-2.9273,-2.9335,-2.9189,-2.9118,-2.9021,-2.8983,-2.8971,-2.9008,-2.8996,-2.9317,-2.9875,-3.6402,-3.5737,-3.571,-3.571,-3.571,-3.571,-3.571,-3.571,-3.571,-3.5548,-3.5277,-3.4825,-3.4045,-3.3155,-3.2087,-3.1246,-3.0626,-3.0199,-3.0203,-3.0317,-3.0444,-3.0394,-3.0279,-3.0075,-2.969,-2.9263,-2.8922,-2.8669,-2.851,-2.8578,-2.8578,-2.8578,-2.8471,-2.8431,-2.8379,-2.8339,-2.8379,-2.8383,-2.8215,-2.8339,-2.8442,-2.8286,-2.8257,-2.818,-2.8235,-2.815,-2.8013,-2.8079,-2.8177,-2.8243,-2.8243,-2.8243,-2.8243,-2.8243,-2.8276,-2.8398,-2.8476,-2.8554,-2.849,-2.8365,-2.8254,-2.8105,-2.7941,-2.7723,-2.759,-2.7517,-2.7485,-2.7216,-2.6935,-2.6621,-2.6425,-2.6289,-2.6244,-2.6245,-2.6252,-2.6284,-2.6251,-2.6056,-2.5762,-2.5433,-2.5253,-2.5284,-2.5585,-2.5577,-2.5828,-2.6004,-2.6258,-2.6604,-2.6842,-2.6737,-2.6508,-2.6107,-2.5947,-2.6047,-2.6329,-2.7064,-2.7556,-2.806,-2.8575,-2.8881,-2.8677,-2.8581,-2.8621,-2.8842,-2.9243,-2.9355,-2.9294,-2.9318,-2.9506,-2.9482,-2.9489,-2.9583,-2.9711,-2.9955,-3.023,-3.6252,-3.575,-3.571,-3.571,-3.571,-3.571,-3.571,-3.571,-3.571,-3.5616,-3.5318,-3.4729,-3.3788,-3.26,-3.1581,-3.0648,-2.9692,-2.9605,-2.9613,-2.9741,-3.005,-3.0024,-2.9986,-2.9767,-2.9341,-2.8961,-2.8657,-2.8391,-2.8311,-2.8271,-2.8299,-2.8231,-2.8231,-2.8271,-2.8271,-2.8219,-2.8219,-2.8271,-2.8291,-2.8361,-2.8387,-2.8423,-2.83,-2.8094,-2.814,-2.7853,-2.7741,-2.79,-2.7848,-2.8046,-2.8112,-2.8112,-2.8112,-2.8177,-2.8216,-2.8333,-2.849,-2.8587,-2.8554,-2.8509,-2.8398,-2.8268,-2.8052,-2.7855,-2.7656,-2.7577,-2.753,-2.7372,-2.7196,-2.6987,-2.687,-2.6759,-2.6785,-2.6823,-2.6869,-2.6895,-2.6778,-2.6635,-2.6315,-2.5944,-2.5822,-2.5818,-2.5817,-2.5778,-2.584,-2.6134,-2.6296,-2.6406,-2.6733,-2.6945,-2.6708,-2.6375,-2.622,-2.6161,-2.6482,-2.678,-2.7323,-2.7907,-2.8424,-2.8621,-2.8444,-2.8468,-2.8573,-2.8873,-2.9257,-2.9361,-2.9457,-2.987,-3.007,-2.9992,-2.9914,-3.0013,-3.0139,-3.0343,-3.0695,-3.6212,-3.571,-3.571,-3.571,-3.571,-3.571,-3.571,-3.571,-3.571,-3.5588,-3.5304,-3.4688,-3.3496,-3.2181,-3.1223,-3.0045,-2.9285,-2.8998,-2.9157,-2.9131,-2.9496,-2.96,-2.9406,-2.9106,-2.8882,-2.8618,-2.8311,-2.8111,-2.8002,-2.799,-2.799,-2.7933,-2.8151,-2.8191,-2.8042,-2.8018,-2.7978,-2.7938,-2.803,-2.8108,-2.8211,-2.8323,-2.8443,-2.822,-2.7916,-2.7602,-2.7806,-2.7759,-2.7503,-2.7835,-2.8046,-2.8013,-2.8033,-2.8164,-2.8235,-2.8333,-2.849,-2.8554,-2.8587,-2.8554,-2.8476,-2.8346,-2.8197,-2.8,-2.7835,-2.7603,-2.7536,-2.7503,-2.7294,-2.7255,-2.7163,-2.715,-2.7183,-2.7189,-2.7202,-2.7235,-2.7183,-2.6987,-2.6694,-2.639,-2.6289,-2.6293,-2.6185,-2.6124,-2.5959,-2.6286,-2.6315,-2.629,-2.6551,-2.6912,-2.6836,-2.6578,-2.6488,-2.6396,-2.6547,-2.6892,-2.7255,-2.7772,-2.8283,-2.8453,-2.8348,-2.8444,-2.8589,-2.8842,-2.9113,-2.9522,-2.9766,-3.0027,-3.0199,-3.0276,-3.0252,-3.0398,-3.0551,-3.0617,-3.076,-3.5845,-3.571,-3.571,-3.571,-3.571,-3.571,-3.571,-3.571,-3.571,-3.5669,-3.5467,-3.4719,-3.3539,-3.2043,-3.1223,-3.0029,-2.8903,-2.8749,-2.8867,-2.9013,-2.9236,-2.9145,-2.9015,-2.8791,-2.8538,-2.8191,-2.7962,-2.7841,-2.7841,-2.7788,-2.7777,-2.7841,-2.795,-2.7817,-2.7852,-2.7817,-2.7684,-2.7615,-2.7655,-2.7817,-2.7962,-2.7931,-2.7941,-2.7729,-2.7389,-2.7164,-2.7222,-2.7181,-2.7096,-2.7276,-2.7523,-2.7603,-2.7636,-2.7967,-2.8131,-2.8197,-2.8392,-2.849,-2.8522,-2.8522,-2.8457,-2.8392,-2.8229,-2.8099,-2.7934,-2.7669,-2.7536,-2.7503,-2.7503,-2.7503,-2.7503,-2.7503,-2.7503,-2.7469,-2.7469,-2.7469,-2.7503,-2.7288,-2.7027,-2.6908,-2.6773,-2.6702,-2.6603,-2.6454,-2.6239,-2.6144,-2.605,-2.6071,-2.6449,-2.6762,-2.6846,-2.6669,-2.6705,-2.6684,-2.6814,-2.6901,-2.725,-2.7642,-2.8119,-2.8235,-2.8259,-2.8501,-2.87,-2.87,-2.8897,-2.938,-2.9738,-2.9826,-3.0022,-3.0258,-3.0342,-3.0384,-3.0468,-3.0551,-3.0634,-3.571,-3.571,-3.5858,-3.5817,-3.5723,-3.5804,-3.5804,-3.571,-3.571,-3.571,-3.5588,-3.4802,-3.3649,-3.2219,-3.1455,-3.0313,-2.9001,-2.88,-2.8934,-2.9052,-2.8934,-2.8685,-2.8566,-2.8486,-2.8127,-2.7788,-2.7626,-2.7557,-2.7598,-2.7615,-2.7615,-2.7638,-2.7534,-2.7615,-2.7638,-2.7493,-2.7441,-2.7371,-2.7371,-2.7505,-2.769,-2.7713,-2.7815,-2.7581,-2.7126,-2.684,-2.6846,-2.6824,-2.679,-2.7007,-2.7356,-2.7503,-2.7603,-2.7789,-2.7934,-2.8033,-2.8197,-2.8373,-2.8373,-2.8327,-2.8262,-2.8099,-2.7934,-2.7669,-2.7603,-2.7369,-2.739,-2.739,-2.7503,-2.7503,-2.7503,-2.7503,-2.7503,-2.7503,-2.7503,-2.7503,-2.7503,-2.7398,-2.7288,-2.7229,-2.7236,-2.7377,-2.7255,-2.7081,-2.6904,-2.696,-2.6701,-2.6301,-2.6575,-2.67,-2.6735,-2.6775,-2.6808,-2.6995,-2.7204,-2.7158,-2.7134,-2.7546,-2.8014,-2.8177,-2.8308,-2.8605,-2.8803,-2.8779,-2.892,-2.938,-2.9649,-2.9671,-3.0,-3.0338,-3.0338,-3.0295,-3.0363,-3.0426,-3.0526,-3.571,-3.5723,-3.5938,-3.5938,-3.5764,-3.5938,-3.5898,-3.571,-3.571,-3.571,-3.5642,-3.498,-3.3709,-3.2599,-3.1849,-3.057,-2.9677,-2.9285,-2.9236,-2.9079,-2.8776,-2.8657,-2.8379,-2.803,-2.7736,-2.7534,-2.7342,-2.7313,-2.7272,-2.733,-2.7371,-2.7313,-2.7435,-2.7598,-2.7383,-2.733,-2.7371,-2.726,-2.726,-2.7272,-2.7435,-2.7598,-2.7725,-2.7425,-2.6941,-2.6631,-2.6673,-2.6586,-2.6483,-2.6701,-2.7007,-2.7222,-2.739,-2.7523,-2.7656,-2.7756,-2.7756,-2.7868,-2.7901,-2.7868,-2.7736,-2.7536,-2.7369,-2.7268,-2.7268,-2.7268,-2.7289,-2.7323,-2.7423,-2.7469,-2.7469,-2.7469,-2.7469,-2.7469,-2.7469,-2.7503,-2.7503,-2.7503,-2.751,-2.7484,-2.7604,-2.7802,-2.7754,-2.7554,-2.7521,-2.7584,-2.7434,-2.7093,-2.6835,-2.6844,-2.6868,-2.6881,-2.6916,-2.7168,-2.746,-2.7485,-2.7327,-2.7508,-2.794,-2.8177,-2.8396,-2.8605,-2.8756,-2.8779,-2.902,-2.925,-2.9403,-2.9448,-2.9848,-3.021,-3.0124,-2.9979,-3.0087,-3.0172,-3.0338,-3.571,-3.571,-3.575,-3.5764,-3.571,-3.575,-3.575,-3.571,-3.571,-3.571,-3.5561,-3.4994,-3.3993,-3.2791,-3.2421,-3.1367,-2.9996,-2.969,-2.96,-2.9523,-2.8949,-2.8764,-2.8419,-2.7857,-2.7505,-2.7301,-2.7231,-2.719,-2.719,-2.726,-2.726,-2.7231,-2.7231,-2.7313,-2.7272,-2.726,-2.726,-2.719,-2.7231,-2.7313,-2.7528,-2.7598,-2.7464,-2.7099,-2.6609,-2.6405,-2.6212,-2.5805,-2.5633,-2.5838,-2.6358,-2.6735,-2.6939,-2.7121,-2.7255,-2.7356,-2.7356,-2.7343,-2.7356,-2.739,-2.7255,-2.7087,-2.7019,-2.7167,-2.7188,-2.7255,-2.7289,-2.7289,-2.7356,-2.7302,-2.7302,-2.7302,-2.7335,-2.7369,-2.7403,-2.7503,-2.7536,-2.7536,-2.7523,-2.7543,-2.7577,-2.7729,-2.7808,-2.7653,-2.7538,-2.7552,-2.7458,-2.7179,-2.7364,-2.7216,-2.7042,-2.7081,-2.7109,-2.7244,-2.7494,-2.772,-2.7699,-2.7795,-2.7865,-2.8088,-2.8332,-2.8573,-2.87,-2.8677,-2.8708,-2.8897,-2.9013,-2.9175,-2.9403,-2.9671,-2.9649,-2.9649,-2.9782,-2.9892,-3.006]},{"header":{"parameterUnit":"m.s-1","parameterCategory":1,"la1":31.0,"la2":29.5877,"lo1":-88.7671,"lo2":-86.6584,"dy":0.0162,"dx":0.0185,"nx":115,"ny":88,"refTime":"2024-05-21T12:00:00:Z","depth":0,"parameterNumber":3,"parameterNumberName":"V-component_of_WINDS"},"data":[0.0,0.0,0.0,0.0,0.0,0.0,0.0,0.0,0.0,0.0,0.0,0.0,0.0,0.0,0.0,0.0,0.0,0.0,0.0,0.0,0.0,0.0,0.0,0.0,0.0,0.0,0.0,0.0,0.0,0.0,0.0,0.0,0.0,0.0,0.0,0.0,0.0,0.0,0.0,0.0,0.0,0.0,0.0,0.0,0.0,0.0,0.0,0.0,0.0,0.0,0.0,0.0,0.0,0.0,0.0,0.0,0.0,0.0,0.0,0.0,0.0,0.0,0.0,0.0,0.0,0.0,0.0,0.0,0.0,0.0,0.0,0.0,0.0,0.0,0.0,0.0,0.0,0.0,0.0,0.0,0.0,0.0,0.0,0.0,0.0,0.0,0.0,0.0,0.0,0.0,0.0,0.0,0.0,0.0,0.0,0.0,0.0,0.0,0.0,0.0,0.0,0.0,0.0,0.0,0.0,0.0,0.0,0.0,0.0,0.0,0.0,0.0,0.0,0.0,0.0,0.0,0.0,0.0,0.0,0.0,0.0,0.0,0.0,0.0,0.0,0.0,0.0,0.0,0.0,0.0,0.0,0.0,0.0,0.0,0.0,0.0,0.0,0.0,0.0,0.0,0.0,0.0,0.0,0.0,0.0,0.0,0.0,0.0,0.0,0.0,0.0,0.0,0.0,0.0,0.0,0.0,0.0,0.0,0.0,0.0,0.0,0.0,0.0,0.0,0.0,0.0,0.0,0.0,0.0,0.0,0.0,0.0,0.0,0.0,0.0,0.0,0.0,0.0,0.0,0.0,0.0,0.0,0.0,0.0,0.0,0.0,0.0,0.0,0.0,0.0,0.0,0.0,0.0,0.0,0.0,0.0,0.0,0.0,0.0,0.0,0.0,0.0,0.0,0.0,0.0,0.0,0.0,0.0,0.0,0.0,0.0,0.0,0.0,0.0,0.0,0.0,0.0,0.0,0.0,0.0,0.0,0.0,0.0,0.0,0.0,0.0,0.0,0.0,0.0,0.0,0.0,0.0,0.0,0.0,0.0,0.0,0.0,0.0,0.0,0.0,0.0,0.0,0.0,0.0,0.0,0.0,0.0,0.0,0.0,0.0,0.0,0.0,0.0,0.0,0.0,0.0,0.0,0.0,0.0,0.0,0.0,0.0,0.0,0.0,0.0,0.0,0.0,0.0,0.0,0.0,0.0,0.0,0.0,0.0,0.0,0.0,0.0,0.0,0.0,0.0,0.0,0.0,0.0,0.0,0.0,0.0,0.0,0.0,0.0,0.0,0.0,0.0,0.0,0.0,0.0,0.0,0.0,0.0,0.0,0.0,0.0,0.0,0.0,0.0,0.0,0.0,0.0,0.0,0.0,0.0,0.0,0.0,0.0,0.0,0.0,0.0,0.0,0.0,0.0,0.0,0.0,0.0,0.0,0.0,0.0,0.0,0.0,0.0,0.0,0.0,0.0,0.0,0.0,0.0,0.0,0.0,0.0,0.0,0.0,0.0,0.0,0.0,0.0,0.0,0.0,0.0,0.0,0.0,0.0,0.0,0.0,0.0,0.0,0.0,0.0,0.0,0.0,0.0,0.0,0.0,0.0,0.0,0.0,0.0,0.0,0.0,0.0,0.0,0.0,0.0,0.0,0.0,0.0,0.0,0.0,0.0,0.0,0.0,0.0,0.0,0.0,0.0,0.0,0.0,0.0,0.0,0.0,0.0,0.0,0.0,0.0,0.0,0.0,0.0,0.0,0.0,0.0,0.0,0.0,0.0,0.0,0.0,0.0,0.0,0.0,0.0,0.0,0.0,0.0,0.0,0.0,0.0,0.0,0.0,0.0,0.0,0.0,0.0,0.0,0.0,0.0,0.0,0.0,0.0,0.0,0.0,0.0,0.0,0.0,0.0,0.0,0.0,0.0,0.0,0.0,0.0,0.0,0.0,0.0,0.0,0.0,0.0,0.0,0.0,0.0,0.0,0.0,0.0,0.0,0.0,0.0,0.0,0.0,0.0,0.0,0.0,0.0,0.0,0.0,0.0,0.0,0.0,0.0,0.0,0.0,0.0,0.0,0.0,0.0,0.0,0.0,0.0,0.0,0.0,0.0,0.0,0.0,0.0,0.0,0.0,0.0,0.0,0.0,0.0,0.0,0.0,0.0,0.0,0.0,0.0,0.0,0.0,0.0,0.0,0.0,0.0,0.0,0.0,0.0,0.0,0.0,0.0,0.0,0.0,0.0,0.0,0.0,0.0,0.0,0.0,0.0,0.0,0.0,0.0,0.0,0.0,0.0,0.0,0.0,0.0,0.0,0.0,0.0,0.0,0.0,0.0,0.0,0.0,0.0,0.0,0.0,0.0,0.0,0.0,0.0,0.0,0.0,0.0,0.0,0.0,0.0,0.0,0.0,0.0,0.0,0.0,0.0,0.0,0.0,0.0,0.0,0.0,0.0,0.0,0.0,0.0,0.0,0.0,0.0,0.0,0.0,0.0,0.0,0.0,0.0,0.0,0.0,0.0,0.0,0.0,0.0,0.0,0.0,0.0,0.0,0.0,0.0,0.0,0.0,0.0,0.0,0.0,0.0,0.0,0.0,0.0,0.0,0.0,0.0,0.0,0.0,0.0,0.0,0.0,0.0,0.0,0.0,0.0,0.0,0.0,0.0,0.0,0.0,0.0,0.0,0.0,0.0,0.0,0.0,0.0,0.0,0.0,0.0,0.0,0.0,0.0,0.0,0.0,0.0,0.0,0.0,0.0,0.0,0.0,0.0,0.0,0.0,0.0,0.0,0.0,0.0,0.0,0.0,0.0,0.0,0.0,0.0,0.0,0.0,0.0,0.0,0.0,0.0,0.0,0.0,0.0,0.0,0.0,0.0,0.0,0.0,0.0,0.0,0.0,0.0,0.0,0.0,0.0,0.0,0.0,0.0,0.0,0.0,0.0,0.0,0.0,0.0,0.0,0.0,0.0,0.0,0.0,0.0,0.0,0.0,0.0,0.0,0.0,0.0,0.0,0.0,0.0,0.0,0.0,0.0,0.0,0.0,0.0,0.0,0.0,0.0,0.0,0.0,0.0,0.0,0.0,0.0,0.0,0.0,0.0,0.0,0.0,0.0,0.0,0.0,0.0,0.0,0.0,0.0,0.0,0.0,0.0,0.0,0.0,0.0,0.0,0.0,0.0,0.0,0.0,0.0,0.0,0.0,0.0,0.0,0.0,0.0,0.0,0.0,0.0,0.0,0.0,0.0,0.0,0.0,0.0,0.0,0.0,0.0,0.0,0.0,0.0,0.0,0.0,0.0,0.0,0.0,0.0,0.0,0.0,0.0,0.0,0.0,0.0,0.0,0.0,0.0,0.0,0.0,0.0,0.0,0.0,0.0,0.0,0.0,0.0,0.0,0.0,0.0,0.0,0.0,0.0,0.0,0.0,0.0,0.0,0.0,0.0,0.0,0.0,0.0,0.0,0.0,0.0,0.0,0.0,0.0,0.0,0.0,0.0,0.0,0.0,0.0,0.0,0.0,0.0,0.0,0.0,0.0,0.0,0.0,0.0,0.0,0.0,0.0,0.0,0.0,0.0,0.0,0.0,0.0,0.0,0.0,0.0,0.0,0.0,0.0,0.0,0.0,0.0,0.0,0.0,0.0,0.0,0.0,0.0,0.0,0.0,0.0,0.0,0.0,0.0,0.0,0.0,0.0,0.0,0.0,0.0,0.0,0.0,0.0,0.0,0.0,0.0,0.0,0.0,0.0,0.0,0.0,0.0,0.0,0.0,0.0,0.0,0.0,0.0,0.0,0.0,0.0,0.0,0.0,0.0,0.0,0.0,0.0,0.0,0.0,0.0,0.0,0.0,0.0,0.0,0.0,0.0,0.0,0.0,0.0,0.0,0.0,0.0,0.0,0.0,0.0,0.0,0.0,0.0,0.0,0.0,0.0,0.0,0.0,0.0,0.0,0.0,0.0,0.0,0.0,0.0,0.0,0.0,0.0,0.0,0.0,0.0,0.0,0.0,0.0,0.0,0.0,0.0,0.0,0.0,0.0,0.0,0.0,0.0,0.0,0.0,0.0,0.0,0.0,0.0,0.0,0.0,0.0,0.0,0.0,0.0,0.0,0.0,0.0,0.0,0.0,0.0,0.0,0.0,0.0,0.0,0.0,0.0,0.0,0.0,0.0,0.0,0.0,0.0,0.0,0.0,0.0,0.0,0.0,0.0,0.0,0.0,0.0,0.0,0.0,0.0,0.0,0.0,0.0,0.0,0.0,0.0,0.0,0.0,-0.3852,0.0,0.0,0.0,0.0,0.0,0.0,0.0,0.0,0.0,0.0,0.0,0.0,0.0,0.0,0.0,0.0,0.0,0.0,0.0,0.0,0.0,0.0,0.0,0.0,0.0,0.0,0.0,0.0,0.0,0.0,0.0,0.0,0.0,0.0,0.0,0.0,0.0,0.0,0.0,0.0,0.0,0.0,0.0,0.0,0.0,0.0,0.0,0.0,0.0,0.0,0.0,0.0,0.0,0.0,0.0,0.0,0.0,0.0,0.0,0.0,0.0,0.0,0.0,0.0,0.0,0.0,0.0,0.0,0.0,0.0,0.0,0.0,0.0,0.0,0.0,0.0,0.0,0.0,0.0,0.0,0.0,0.0,0.0,0.0,0.0,0.0,0.0,0.0,0.0,0.0,0.0,0.0,0.0,0.0,0.0,0.0,0.0,0.0,0.0,0.0,0.0,0.0,0.0,0.0,0.0,0.0,0.0,0.0,0.0,0.0,-0.188,-0.2747,-0.2607,-0.291,-0.3769,0.0,0.0,0.0,0.0,0.0,0.0,0.0,0.0,0.0,0.0,0.0,0.0,0.0,0.0,0.0,0.0,0.0,0.0,0.0,0.0,0.0,0.0,0.0,0.0,0.0,0.0,0.0,0.0,0.0,0.0,0.0,0.0,0.0,0.0,0.0,0.0,0.0,0.0,0.0,0.0,0.0,0.0,0.0,0.0,0.0,0.0,0.0,0.0,0.0,0.0,0.0,0.0,0.0,0.0,0.0,0.0,0.0,0.0,0.0,0.0,0.0,0.0,0.0,0.0,0.0,0.0,0.0,0.0,0.0,0.0,0.0,0.0,0.0,0.0,0.0,0.0,0.0,0.0,0.0,0.0,0.0,0.0,0.0,0.0,0.0,0.0,0.0,0.0,0.0,0.0,0.0,0.0,0.0,0.0,0.0,0.0,0.0,0.0,0.0,0.0,0.0,0.0,0.0,0.0,0.0,0.0,0.0,0.0,0.0,0.0,0.0,0.0,-0.2552,-0.2917,-0.3784,0.0,0.0,0.0,0.0,0.0,0.0,0.0,0.0,0.0,0.0,0.0,0.0,0.0,0.0,0.0,0.0,0.0,0.0,0.0,0.0,0.0,0.0,0.0,0.0,0.0,0.0,0.0,0.0,0.0,0.0,0.0,0.0,0.0,0.0,0.0,0.0,0.0,0.0,0.0,0.0,0.0,0.0,0.0,0.0,0.0,0.0,0.0,0.0,0.0,0.0,0.0,0.0,0.0,0.0,0.0,0.0,0.0,0.0,0.0,0.0,0.0,0.0,0.0,0.0,0.0,0.0,0.0,0.0,0.0,0.0,0.0,0.0,0.0,0.0,0.0,0.0,0.0,0.0,0.0,0.0,0.0,0.0,0.0,0.0,0.0,0.0,0.0,0.0,0.0,0.0,0.0,0.0,0.0,0.0,0.0,0.0,0.0,0.0,0.0,0.0,0.0,0.0,0.0,0.0,0.0,0.0,0.0,0.0,0.0,0.0,-0.165,-0.2311,-0.249,0.0,-0.3822,0.0,0.0,0.0,0.0,0.0,0.0,0.0,0.0,0.0,0.0,0.0,0.0,0.0,0.0,0.0,0.0,0.0,0.0,0.0,0.0,0.0,0.0,0.0,0.0,0.0,0.0,0.0,0.0,0.0,0.0,0.0,0.0,0.0,0.0,0.0,0.0,0.0,0.0,0.0,0.0,0.0,0.0,0.0,0.0,0.0,0.0,0.0,0.0,0.0,0.0,0.0,0.0,0.0,0.0,0.0,0.0,0.0,0.0,0.0,0.0,0.0,0.0,0.0,0.0,0.0,0.0,0.0,0.0,0.0,0.0,0.0,0.0,0.0,0.0,0.0,0.0,0.0,0.0,0.0,0.0,0.0,0.0,0.0,0.0,0.0,0.0,0.0,0.0,0.0,0.0,0.0,0.0,0.0,0.0,0.0,0.0,0.0,0.0,0.0,0.0,0.0,0.0,0.0,0.0,0.0,0.0,0.0,0.0,0.0,0.0,0.0,-0.2027,-0.2497,-0.2973,0.0,0.0,0.0,0.0,0.0,0.0,0.0,0.0,0.0,0.0,0.0,0.0,0.0,0.0,0.0,0.0,0.0,0.0,0.0,0.0,0.0,0.0,0.0,0.0,0.0,0.0,0.0,0.0,0.0,0.0,0.0,0.0,0.0,0.0,0.0,0.0,0.0,0.0,0.0,0.0,0.0,0.0,0.0,0.0,0.0,0.0,0.0,0.0,0.0,0.0,0.0,0.0,0.0,0.0,0.0,0.0,0.0,0.0,0.0,0.0,0.0,0.0,0.0,0.0,0.0,0.0,0.0,0.0,0.0,0.0,0.0,0.0,0.0,0.0,0.0,0.0,0.0,0.0,0.0,0.0,0.0,0.0,0.0,0.0,0.0,0.0,0.0,0.0,0.0,0.0,0.0,0.0,0.0,0.0,0.0,0.0,0.0,0.0,0.0,0.0,0.0,0.0,0.0,0.0,0.0,0.0,0.0,0.0,0.0,0.0,-0.0837,0.0,-0.197,-0.2554,-0.2994,-0.3237,0.0,0.0,0.0,0.0,0.0,0.0,0.0,0.0,0.0,0.0,0.0,0.0,0.0,0.0,0.0,0.0,0.0,0.0,0.0,0.0,0.0,0.0,0.0,0.0,0.0,0.0,0.0,0.0,0.0,0.0,0.0,0.0,0.0,0.0,0.0,0.0,0.0,0.0,0.0,0.0,0.0,0.0,0.0,0.0,0.0,0.0,0.0,0.0,0.0,0.0,0.0,0.0,0.0,0.0,0.0,0.0,0.0,0.0,0.0,0.0,0.0,0.0,0.0,0.0,0.0,0.0,0.0,0.0,0.0,0.0,0.0,0.0,0.0,0.0,0.0,0.0,0.0,0.0,0.0,0.0,0.0,0.0,0.0,0.0,0.0,0.0,0.0,0.0,0.0,0.0,0.0,0.0,0.0,0.0,0.0,0.0,0.0,0.0,0.0,0.0,0.0,0.0,0.0,0.0,0.0,0.0,0.0,0.0,0.0,-0.0815,-0.139,-0.2163,-0.2782,-0.3055,0.0,0.0,0.0,0.0,0.0,0.0,0.0,0.0,0.0,0.0,0.0,0.0,0.0,0.0,0.0,0.0,0.0,0.0,0.0,0.0,0.0,0.0,0.0,0.0,0.0,0.0,0.0,0.0,0.0,0.0,0.0,0.0,0.0,0.0,0.0,0.0,0.0,0.0,0.0,0.0,0.0,0.0,0.0,0.0,0.0,0.0,0.0,0.0,0.0,0.0,0.0,0.0,0.0,0.0,0.0,0.0,0.0,0.0,0.0,0.0,0.0,0.0,0.0,0.0,0.0,0.0,0.0,0.0,0.0,0.0,0.0,0.0,0.0,0.0,0.0,0.0,0.0,0.0,0.0,0.0,0.0,0.0,0.0,0.0,0.0,0.0,0.0,0.0,0.0,0.0,0.0,0.0,0.0,0.0,0.0,0.0,0.0,0.0,0.0,0.0,0.0,0.0,0.0,0.0,0.0,0.0,0.0,0.0,0.0,0.0,-0.0645,-0.1471,-0.2471,-0.2558,-0.2797,0.0,0.0,0.0,0.0,0.0,0.0,0.0,0.0,0.0,0.0,0.0,0.0,0.0,0.0,0.0,0.0,0.0,0.0,0.0,0.0,0.0,0.0,0.0,0.0,0.0,0.0,0.0,0.0,0.0,0.0,0.0,0.0,0.0,0.0,0.0,0.0,0.0,0.0,0.0,0.0,0.0,0.0,0.0,0.0,0.0,0.0,0.0,0.0,0.0,0.0,0.0,0.0,0.0,0.0,0.0,0.0,0.0,0.0,0.0,0.0,0.0,0.0,0.0,0.0,0.0,0.0,0.0,0.0,0.0,0.0,0.0,0.0,0.0,0.0,0.0,0.0,0.0,0.0,0.0,0.0,0.0,0.0,0.0,0.0,0.0,0.0,0.0,0.0,0.0,0.0,0.0,0.0,0.0,0.0,0.0,0.0,0.0,0.0,0.0,0.0,0.0,0.0,0.0,0.0,0.0,0.0,0.0,0.0,0.0,-0.0034,0.0,-0.1598,0.0,-0.2485,-0.2626,0.0,0.0,0.0,0.0,0.0,0.0,0.0,0.0,0.0,0.0,0.0,0.0,0.0,0.0,0.0,0.0,0.0,0.0,0.0,0.0,0.0,0.0,0.0,0.0,0.0,0.0,0.0,0.0,0.0,0.0,0.0,0.0,0.0,0.0,0.0,0.0,0.0,0.0,0.0,0.0,0.0,0.0,0.0,0.0,0.0,0.0,0.0,0.0,0.0,0.0,0.0,0.0,0.0,0.0,0.0,0.0,0.0,0.0,0.0,0.0,0.0,0.0,0.0,0.0,0.0,0.0,0.0,0.0,0.0,0.0,0.0,0.0,0.0,0.0,0.0,0.0,0.0,0.0,0.0,0.0,0.0,0.0,0.0,0.0,0.0,0.0,0.0,0.0,0.0,0.0,0.0,0.0,0.0,0.0,0.0,0.0,0.0,0.0,0.0,0.0,0.0,0.0,0.0,0.0,0.0,0.0,0.0,0.0,0.0505,-0.0741,-0.1344,-0.1657,-0.174,-0.2504,-0.254,0.0,0.0,0.0,0.0,0.0,0.0,0.0,0.0,0.0,0.0,0.0,0.0,0.0,0.0,0.0,0.0,0.0,0.0,0.0,0.0,0.0,0.0,0.0,0.0,0.0,0.0,0.0,0.0,0.0,0.0,0.0,0.0,0.0,0.0,0.0,0.0,0.0,0.0,0.0,0.0,0.0,0.0,0.0,0.0,0.0,0.0,0.0,0.0,0.0,0.0,0.0,0.0,0.0,0.0,0.0,0.0,0.0,0.0,0.0,0.0,0.0,0.0,0.0,0.0,0.0,0.0,0.0,0.0,0.0,0.0,0.0,0.0,0.0,0.0,0.0,0.0,0.0,0.0,0.0,0.0,0.0,0.0,0.0,0.0,0.0,0.0,0.0,0.0,0.0,0.0,0.0,0.0,0.0,0.0,0.0,0.0,0.0,0.0,0.0,0.0,0.0,0.0,0.0,0.0,0.0,0.0,0.0,0.0,0.0,-0.0104,-0.0759,-0.1403,-0.2018,-0.203,-0.2102,0.0,0.0,0.0,0.0,0.0,0.0,0.0,0.0,0.0,0.0,0.0,0.0,0.0,0.0,0.0,0.0,0.0,0.0,0.0,0.0,0.0,0.0,0.0,0.0,0.0,0.0,0.0,0.0,0.0,0.0,0.0,0.0,0.0,0.0,0.0,0.0,0.0,0.0,0.0,0.0,0.0,0.0,0.0,0.0,0.0,0.0,0.0,0.0,0.0,0.0,0.0,0.0,0.0,0.0,0.0,0.0,0.0,0.0,0.0,0.0,0.0,0.0,0.0,0.0,0.0,0.0,0.0,0.0,0.0,0.0,0.0,0.0,0.0,0.0,0.0,0.0,0.0,0.0,0.0,0.0,0.0,0.0,0.0,0.0,0.0,0.0,0.0,0.0,0.0,0.0,0.0,0.0,0.0,0.0,0.0,0.0,0.0,0.0,0.0,0.0,0.0,0.0,0.0,0.0,0.0,0.0,0.0,0.0,0.0,0.0757,-0.0215,-0.1094,-0.1862,-0.1723,-0.1741,-0.1876,0.0,0.0,0.0,0.0,0.0,0.0,0.0,0.0,0.0,0.0,0.0,0.0,0.0,0.0,0.0,0.0,0.0,0.0,0.0,0.0,0.0,0.0,0.0,0.0,0.0,0.0,0.0,0.0,0.0,0.0,0.0,0.0,0.0,0.0,0.0,0.0,0.0,0.0,0.0,0.0,0.0,0.0,0.0,0.0,0.0,0.0,0.0,0.0,0.0,0.0,0.0,0.0,0.0,0.0,0.0,0.0,0.0,0.0,0.0,0.0,0.0,0.0,0.0,0.0,0.0,0.0,0.0,0.0,0.0,0.0,0.0,0.0,0.0,0.0,0.0,0.0,0.0,0.0,0.0,0.0,0.0,0.0,0.0,0.0,0.0,0.0,0.0,0.0,0.0,0.0,0.0,0.0,0.0,0.0,0.0,0.0,0.0,0.0,0.0,0.0,0.0,0.0,0.0,0.0,0.0,0.0,0.0,0.0,0.1737,0.031,-0.0677,-0.116,-0.1453,-0.1364,0.0,0.0,0.0,0.0,0.0,0.0,0.0,0.0,0.0,0.0,0.0,0.0,0.0,0.0,0.0,0.0,0.0,0.0,0.0,0.0,0.0,0.0,0.0,0.0,0.0,0.0,0.0,0.0,0.0,0.0,0.0,0.0,0.0,0.0,0.0,0.0,0.0,0.0,0.0,0.0,0.0,0.0,0.0,0.0,0.0,0.0,0.0,0.0,0.0,0.0,0.0,0.0,0.0,0.0,0.0,0.0,0.0,0.0,0.0,0.0,0.0,0.0,0.0,0.0,0.0,0.0,0.0,0.0,0.0,0.0,0.0,0.0,0.0,0.0,0.0,0.0,0.0,0.0,0.0,0.0,0.0,0.0,0.0,0.0,0.0,0.0,0.0,0.0,0.0,0.0,0.0,0.0,0.0,0.0,0.0,0.0,0.0,0.0,0.0,0.0,0.0,0.0,0.0,0.0,0.0,0.0,0.0,0.0,0.0,0.2194,0.1615,0.0987,0.0265,-0.0353,-0.0431,0.0,0.0,0.0,0.0,0.0,0.0,0.0,0.0,0.0,0.0,0.0,0.0,0.0,0.0,0.0,0.0,0.0,0.0,0.0,0.0,0.0,0.0,0.0,0.0,0.0,0.0,0.0,0.0,0.0,0.0,0.0,0.0,0.0,0.0,0.0,0.0,0.0,0.0,0.0,0.0,0.0,0.0,0.0,0.0,0.0,0.0,0.0,0.0,0.0,0.0,0.0,0.0,0.0,0.0,0.0,0.0,0.0,0.0,0.0,0.0,0.0,0.0,0.0,0.0,0.0,0.0,0.0,0.0,0.0,0.0,0.0,0.0,0.0,0.0,0.0,0.0,0.0,0.0,0.0,0.0,0.0,0.0,0.0,0.0,0.0,0.0,0.0,0.0,0.0,0.0,0.0,0.0,0.0,0.0,0.0,0.0,0.0,0.0,0.0,0.0,0.0,0.0,0.0,0.0,0.0,0.0,0.0,0.0,0.317,0.3,0.2444,0.2068,0.1899,0.0698,0.0204,0.0,0.0,0.0,0.0,0.0,0.0,0.0,0.0,0.0,0.0,0.0,0.0,0.0,0.0,0.0,0.0,0.0,0.0,0.0,0.0,0.0,0.0,0.0,0.0,0.0,0.0,0.0,0.0,0.0,0.0,0.0,0.0,0.0,0.0,0.0,0.0,0.0,0.0,0.0,0.0,0.0,0.0,0.0,0.0,0.0,0.0,0.0,0.0,0.0,0.0,0.0,0.0,0.0,0.0,0.0,0.0,0.0,0.0,0.0,0.0,0.0,0.0,0.0,0.0,0.0,0.0,0.0,0.0,0.0,0.0,0.0,0.0,0.0,0.0,0.0,0.0,0.0,0.0,0.0,0.0,0.0,0.0,0.0,0.0,0.0,0.0,0.0,0.0,0.0,0.0,0.0,0.0,0.0,0.0,0.0,0.0,0.0,0.0,0.0,0.0,0.0,0.0,0.0,0.0,0.0,0.0,0.0,0.0,0.385,0.4097,0.3053,0.284,0.343,0.1764,0.0808,0.0,0.0,0.0,0.0,0.0,0.0,0.0,0.0,0.0,0.0,0.0,0.0,0.0,0.0,0.0,0.0,0.0,0.0,0.0,0.0,0.0,0.0,0.0,0.0,0.0,0.0,0.0,0.0,0.0,0.0,0.0,0.0,0.0,0.0,0.0,0.0,0.0,0.0,0.0,0.0,0.0,0.0,0.0,0.0,0.0,0.0,0.0,0.0,0.0,0.0,0.0,0.0,0.0,0.0,0.0,0.0,0.0,0.0,0.0,0.0,0.0,0.0,0.0,0.0,0.0,0.0,0.0,0.0,0.0,0.0,0.0,0.0,0.0,0.0,0.0,0.0,0.0,0.0,0.0,0.0,0.0,0.0,0.0,0.0,0.0,0.0,0.0,0.0,0.0,0.0,0.0,0.0,0.0,0.0,0.0,0.0,0.0,0.0,0.0,0.0,0.0,0.0,0.0,0.0,0.0,0.0,0.0,0.0,0.4856,0.5345,0.4296,0.393,0.4406,0.291,0.2086,0.0,0.0,0.0,0.0,0.0,0.0,0.0,0.0,0.0,0.0,0.0,0.0,0.0,0.0,0.0,0.0,0.0,0.0,0.0,0.0,0.0,0.0,0.0,0.0,0.0,0.0,0.0,0.0,0.0,0.0,0.0,0.0,0.0,0.0,0.0,0.0,0.0,0.0,0.0,0.0,0.0,0.0,0.0,0.0,0.0,0.0,0.0,0.0,0.2107,0.0,0.0,0.0,0.0,0.0,0.0,0.0,0.0,0.0,0.0,0.0,0.0,0.0,0.0,0.0,0.0,0.0,0.0,0.0,0.0,0.0,0.0,0.0,0.0,0.0,0.0,0.0,0.0,0.0,0.0,0.0,0.0,0.0,0.0,0.0,0.0,0.0,0.0,0.0,0.0,0.0,0.0,0.0,0.0,0.0,0.0,0.0,0.0,0.0,0.0,0.0,0.0,0.0,0.0,0.0,0.0,0.0,0.0,0.0,0.6027,0.6187,0.555,0.5256,0.5309,0.452,0.3739,0.0,0.0,0.0,0.0,0.0,0.0,0.0,0.0,0.0,0.0,0.0,0.0,0.0,0.0,0.0,0.0,0.0,0.0,0.0,0.0,0.0,0.0,0.0,0.0,0.0,0.0,0.0,0.0,0.0,0.0,0.0,0.0,0.0,0.0,0.0,0.0,0.0,0.0,0.0,0.0,0.0,0.0,0.0,0.0,0.0,0.0,0.0,0.0,0.0,0.0,0.0,0.0,0.0,0.0,0.0,0.0,0.0,0.0,0.0,0.0,0.0,0.0,0.0,0.0,0.0,0.0,0.0,0.0,0.0,0.0,0.0,0.0,0.0,0.0,0.0,0.0,0.0,0.0,0.0,0.0,0.0,0.0,0.0,0.0,0.0,0.0,0.0,0.0,0.0,0.0,0.0,0.0,0.0,0.0,0.0,0.0,0.0,0.0,0.0,0.0,0.0,0.0,0.0,0.0,0.0,0.0,0.0,0.68,0.6994,0.6944,0.6631,0.6389,0.6298,0.6067,0.5312,0.4077,0.0,0.0,0.0,0.0,0.0,0.0,0.0,0.0,0.0,0.0,0.0,0.0,0.0,0.0,0.0,0.0,0.0,0.0,0.0,0.0,0.0,0.0,0.0,0.0,0.0,0.0,0.0,0.0,0.0,0.0,0.0,0.0,0.0,0.0,0.0,0.0,0.0,0.0,0.4226,0.4181,0.0,0.0,0.0,0.0,0.0,0.0,0.0,0.0,0.2906,0.0,0.0,0.0,0.0,0.0,0.0,0.0,0.0,0.0,0.0,0.0,0.0,0.0,0.0,0.0,0.0,0.0,0.0,0.0,0.0,0.0,0.0,0.0,0.0,0.0,0.0,0.0,0.0,0.0,0.0,0.0,0.0,0.0,0.0,0.0,0.0,0.0,0.0,0.0,0.0,0.0,0.0,0.0,0.0,0.0,0.0,0.0,0.0,0.0,0.0,0.0,0.0,0.0,0.0,0.0,0.0,0.7494,0.6908,0.7086,0.8013,0.7126,0.6849,0.7172,0.6738,0.6176,0.5564,0.0,0.0,0.0,0.0,0.0,0.0,0.0,0.0,0.0,0.0,0.0,0.0,0.0,0.0,0.0,0.0,0.0,0.0,0.0,0.0,0.0,0.0,0.0,0.0,0.0,0.0,0.0,0.0,0.0,0.0,0.0,0.0,0.0,0.0,0.0,0.0,0.0,0.0,0.0,0.4153,0.3981,0.0,0.0,0.0,0.0,0.0,0.0,0.0,0.0,0.2914,0.0,0.0,0.0,0.0,0.0,0.0,0.0,0.0,0.0,0.0,0.0,0.0,0.0,0.0,0.0,0.0,0.0,0.0,0.0,0.0,0.0,0.0,0.0,0.0,0.0,0.0,0.0,0.0,0.0,0.0,0.0,0.0,0.0,0.0,0.0,0.0,0.0,0.0,0.0,0.0,0.0,0.0,0.0,0.0,0.0,0.0,0.0,0.0,0.0,0.0,0.0,0.0,0.0,0.0,0.0,0.7694,0.8074,0.8389,0.8627,0.8168,0.7976,0.8061,0.7377,0.681,0.0,0.0,0.0,0.0,0.0,0.0,0.0,0.0,0.0,0.0,0.0,0.0,0.0,0.0,0.0,0.0,0.0,0.0,0.0,0.0,0.0,0.0,0.0,0.0,0.0,0.0,0.0,0.0,0.0,0.0,0.0,0.0,0.0,0.0,0.0,0.0,0.0,0.0,0.0,0.0,0.4213,0.4109,0.4365,0.0,0.0,0.0,0.0,0.0,0.0,0.3336,0.3323,0.0,0.0,0.0,0.0,0.0,0.0,0.0,0.0,0.0,0.0,0.0,0.0,0.0,0.0,0.0,0.0,0.0,0.0,0.0,0.0,0.0,0.0,0.0,0.0,0.0,0.0,0.0,0.0,0.0,0.0,0.0,0.0,0.0,0.0,0.0,0.0,0.0,0.0,0.0,0.0,0.0,0.0,0.0,0.0,0.0,0.0,0.0,0.0,0.0,0.0,0.0,0.0,0.0,0.0,0.0,0.8054,0.9318,0.975,0.9337,0.9339,0.9223,0.8927,0.8279,0.7644,0.0,0.0,0.0,0.0,0.0,0.0,0.0,0.0,0.0,0.0,0.0,0.0,0.0,0.0,0.0,0.0,0.0,0.0,0.0,0.0,0.0,0.0,0.0,0.0,0.0,0.0,0.0,0.0,0.0,0.0,0.0,0.0,0.0,0.0,0.0,0.0,0.0,0.0,0.0,0.0,0.0,0.4264,0.4389,0.4267,0.0,0.0,0.0,0.0,0.3843,0.3825,0.0,0.0,0.0,0.0,0.0,0.0,0.0,0.0,0.0,0.0,0.0,0.0,0.0,0.0,0.0,0.0,0.0,0.0,0.0,0.0,0.0,0.0,0.0,0.0,0.0,0.0,0.0,0.0,0.0,0.0,0.0,0.0,0.0,0.0,0.0,0.0,0.0,0.0,0.0,0.0,0.0,0.0,0.0,0.0,0.0,0.0,0.0,0.0,0.0,0.0,0.0,0.0,0.0,0.0,0.0,0.0,0.9346,0.9943,1.0302,1.0319,1.0504,1.0321,0.9803,0.9702,0.9119,0.0,0.0,0.0,0.0,0.0,0.0,0.0,0.0,0.0,0.0,0.0,0.0,0.0,0.0,0.0,0.0,0.0,0.0,0.0,0.0,0.0,0.0,0.0,0.0,0.0,0.0,0.0,0.0,0.0,0.0,0.0,0.0,0.0,0.0,0.0,0.0,0.0,0.0,0.0,0.0,0.0,0.4395,0.4381,0.4263,0.4183,0.0,0.0,0.4145,0.4307,0.4391,0.0,0.0,0.0,0.0,0.0,0.0,0.0,0.0,0.0,0.0,0.0,0.0,0.0,0.0,0.0,0.0,0.0,0.0,0.0,0.0,0.0,0.0,0.0,0.0,0.0,0.0,0.0,0.0,0.0,0.0,0.0,0.0,0.0,0.0,0.0,0.0,0.0,0.0,0.0,0.0,0.0,0.0,0.0,0.0,0.0,0.0,0.0,0.0,0.0,0.0,0.0,0.0,0.0,0.0,0.0,0.9192,0.9777,1.0568,1.1052,1.1174,1.1149,1.0928,1.0479,1.0224,0.9415,0.0,0.0,0.0,0.0,0.0,0.0,0.0,0.0,0.0,0.0,0.0,0.0,0.0,0.0,0.0,0.0,0.0,0.0,0.0,0.0,0.0,0.0,0.0,0.0,0.0,0.0,0.0,0.0,0.0,0.0,0.0,0.0,0.0,0.0,0.0,0.0,0.0,0.0,0.0,0.0,0.0,0.0,0.4801,0.4769,0.0,0.0,0.0,0.4593,0.4624,0.0,0.0,0.0,0.0,0.0,0.0,0.0,0.0,0.0,0.0,0.0,0.0,0.0,0.0,0.0,0.0,0.0,0.0,0.0,0.0,0.0,0.0,0.0,0.0,0.0,0.0,0.0,0.0,0.0,0.0,0.0,0.0,0.0,0.0,0.0,0.0,0.0,0.0,0.0,0.0,0.0,0.0,0.0,0.0,0.0,0.0,0.0,0.0,0.0,0.0,0.0,0.0,0.0,0.0,0.0,0.0,0.0,1.025,1.1416,1.2004,1.199,1.1966,1.1719,1.1215,1.0906,0.0,0.0,0.0,0.0,0.0,0.0,0.0,0.0,0.0,0.0,0.0,0.0,0.0,0.0,0.0,0.0,0.0,0.0,0.0,0.0,0.0,0.0,0.0,0.0,0.0,0.0,0.0,0.374,0.0,0.0,0.0,0.0,0.0,0.0,0.0,0.0,0.0,0.0,0.0,0.0,0.0,0.0,0.5397,0.541,0.548,0.5544,0.0,0.0,0.524,0.5138,0.532,0.5405,0.0,0.0,0.0,0.0,0.0,0.0,0.0,0.0,0.0,0.0,0.0,0.0,0.0,0.0,0.0,0.0,0.0,0.0,0.0,0.0,0.0,0.0,0.0,0.0,0.0,0.0,0.0,0.0,0.0,0.0,0.0,0.0,0.0,0.0,0.0,0.0,0.0,0.0,0.0,0.0,0.0,0.0,0.0,0.0,0.0,0.0,0.0,0.0,0.0,0.0,0.0,0.0,0.0,0.0,0.0,1.1232,1.2618,1.3191,1.2842,1.3163,1.2934,1.2041,1.2219,1.1409,0.0,0.0,0.0,0.0,0.0,0.0,0.0,0.0,0.0,0.0,0.0,0.0,0.0,0.0,0.0,0.0,0.0,0.0,0.0,0.0,0.0,0.0,0.0,0.0,0.0,0.0,0.0,0.0,0.0,0.0,0.0,0.0,0.0,0.0,0.0,0.0,0.0,0.0,0.0,0.0,0.0,0.5933,0.619,0.6424,0.6542,0.0,0.0,0.5944,0.6001,0.6191,0.6184,0.5786,0.0,0.0,0.0,0.0,0.0,0.0,0.0,0.0,0.0,0.0,0.0,0.0,0.0,0.0,0.0,0.0,0.0,0.0,0.0,0.0,0.0,0.0,0.0,0.0,0.0,0.0,0.0,0.0,0.0,0.0,0.0,0.0,0.0,0.0,0.0,0.0,0.0,0.0,0.0,0.0,0.0,0.0,0.0,0.0,0.0,0.0,0.0,0.0,0.0,0.0,0.0,0.0,0.0,1.1016,1.1805,1.295,1.3696,1.3926,1.3884,1.359,1.3051,1.3199,1.2595,0.0,0.0,0.0,0.0,0.0,0.0,0.0,0.0,0.0,0.0,0.0,0.0,0.0,0.0,0.0,0.0,0.0,0.0,0.0,0.0,0.0,0.0,0.0,0.0,0.0,0.0,0.0,0.0,0.5719,0.5936,0.6122,0.0,0.0,0.0,0.0,0.0,0.0,0.0,0.0,0.0,0.0,0.6929,0.6934,0.7255,0.0,0.0,0.6912,0.6724,0.6346,0.6642,0.6721,0.6202,0.6066,0.0,0.0,0.0,0.0,0.0,0.0,0.0,0.0,0.0,0.0,0.0,0.0,0.0,0.0,0.0,0.0,0.0,0.0,0.0,0.0,0.0,0.0,0.0,0.0,0.0,0.0,0.0,0.0,0.0,0.0,0.0,0.0,0.0,0.0,0.0,0.0,0.0,0.0,0.0,0.0,0.0,0.0,0.0,0.0,0.0,0.0,0.0,0.0,0.0,0.0,0.0,0.0,1.1437,1.2185,1.3492,1.4317,1.4669,1.4669,1.4466,1.4036,1.4078,1.3599,0.0,0.0,0.0,0.0,0.0,0.0,0.0,0.0,0.0,0.0,0.0,0.0,0.0,0.0,0.0,0.0,0.0,0.0,0.0,0.0,0.0,0.0,0.0,0.0,0.0,0.0,0.0,0.0,0.648,0.6536,0.6598,0.0,0.0,0.0,0.0,0.0,0.0,0.0,0.0,0.0,0.0,0.7778,0.7621,0.7987,0.8122,0.7723,0.7599,0.7367,0.6859,0.7052,0.7033,0.6488,0.0,0.0,0.0,0.0,0.0,0.0,0.0,0.0,0.0,0.0,0.0,0.0,0.0,0.0,0.0,0.0,0.0,0.0,0.0,0.0,0.0,0.0,0.0,0.0,0.0,0.0,0.0,0.0,0.0,0.0,0.0,0.0,0.0,0.0,0.0,0.0,0.0,0.0,0.0,0.0,0.0,0.0,0.0,0.0,0.0,0.0,0.0,0.0,0.0,0.0,0.0,0.0,0.0,0.0,1.2415,1.4329,1.521,1.4947,1.5594,1.5618,1.4984,1.4913,1.4368,1.3274,0.0,0.0,0.0,0.0,0.0,0.0,0.0,0.0,0.0,0.0,0.0,0.0,0.0,0.0,0.0,0.0,0.0,0.0,0.0,0.0,0.0,0.0,0.0,0.0,0.0,0.0,0.64,0.6477,0.667,0.0,0.0,0.0,0.0,0.0,0.0,0.0,0.0,0.0,0.0,0.7977,0.8282,0.8283,0.8628,0.8773,0.8516,0.8155,0.7847,0.77,0.745,0.7121,0.0,0.0,0.0,0.0,0.0,0.0,0.0,0.0,0.0,0.0,0.0,0.0,0.0,0.0,0.0,0.0,0.0,0.0,0.0,0.0,0.0,0.0,0.0,0.0,0.0,0.0,0.0,0.0,1.298,0.0,0.0,0.0,0.0,0.0,0.0,0.0,0.0,0.0,0.0,0.0,1.8115,1.7997,0.0,0.0,0.0,0.0,0.0,0.0,0.0,0.0,0.0,0.0,0.0,0.0,1.2859,1.3513,1.5129,1.6062,1.6219,1.621,1.5956,1.5486,1.5611,1.5086,1.3825,0.0,0.0,0.0,0.0,0.0,0.0,0.0,0.0,0.0,0.0,0.0,0.0,0.0,0.0,0.0,0.0,0.0,0.0,0.0,0.0,0.0,0.0,0.0,0.0,0.0,0.7805,0.0,0.0,0.0,0.0,0.0,0.0,0.0,0.0,0.0,0.0,0.0,0.8324,0.8516,0.8809,0.9023,0.9021,0.9174,0.9225,0.0,0.0,0.0,0.0,0.0,0.0,0.0,0.0,0.0,0.0,0.0,0.0,0.0,0.0,0.4311,0.3316,0.2483,0.1647,0.0886,0.0,0.0,0.0,0.0,0.0,0.0,0.0,0.0,0.0,0.0,0.0,0.0,0.0,0.0,0.0,0.0,1.4637,0.0,0.0,0.0,0.0,0.0,0.0,0.0,0.0,1.9071,1.9882,2.0529,2.0392,1.9915,0.0,1.9052,1.7626,0.0,0.0,0.0,0.0,0.0,0.0,0.0,0.0,1.412,1.4614,1.6007,1.6831,1.7042,1.6767,1.6462,1.62,1.6162,1.5616,1.4495,1.3876,1.2833,0.0,0.0,0.0,0.0,0.0,0.0,0.0,0.0,0.0,0.0,0.0,0.0,0.0,0.0,0.0,0.0,0.0,0.0,0.0,0.0,0.0,0.0,0.0,0.8754,0.0,0.0,0.0,0.0,0.0,0.0,0.0,0.0,0.0,0.8902,0.8982,0.9132,0.9283,0.9453,0.9565,0.9464,0.0,0.0,0.0,0.0,0.0,0.0,0.0,0.8052,0.792,0.7525,0.7111,0.6867,0.6517,0.6223,0.6114,0.0,0.0,0.3329,0.2304,0.1367,0.0548,-0.0259,-0.1057,-0.1772,-0.2144,-0.2381,0.0,0.0,0.0,0.0,0.0,0.0,0.0,0.0,2.0744,2.0347,0.0,1.8123,0.0,0.0,0.0,0.0,0.0,0.0,0.0,0.0,2.3401,2.3874,2.3463,2.2997,2.2439,2.1762,2.153,2.0827,1.9634,1.6696,0.0,0.0,0.0,0.0,0.0,0.0,1.5799,1.579,1.6928,1.7494,1.7434,1.7298,1.7147,1.706,1.6578,1.5978,1.5356,1.4774,1.3992,1.2985,1.1711,0.0,0.0,0.0,0.0,0.0,0.0,0.0,0.0,0.0,0.0,0.0,0.0,0.0,0.0,0.0,0.0,0.0,0.0,0.0,0.0,0.8968,0.0,0.0,0.0,0.0,0.0,0.0,0.0,0.0,0.0,0.0,0.9881,0.9499,0.9396,0.9843,0.0,0.0,0.0,0.0,0.9333,0.9078,0.8858,0.874,0.874,0.8616,0.8463,0.8327,0.0,0.0,0.7089,0.6665,0.6359,0.6205,0.5726,0.5026,0.3981,0.283,0.178,0.0999,0.0136,-0.0702,-0.1413,-0.1693,-0.192,2.762,0.0,0.0,0.0,0.0,2.217,2.2552,2.3176,2.2765,2.2453,2.2224,2.0923,0.0,0.0,0.0,0.0,0.0,0.0,2.1232,2.2394,2.3007,2.3567,2.4132,2.3712,2.3398,2.3167,2.2758,2.2373,2.1973,2.0113,1.8121,1.6026,0.0,0.0,0.0,0.0,1.6868,1.7003,1.776,1.8063,1.7915,1.745,1.711,1.6909,1.6406,1.6185,1.6213,1.5732,1.5161,1.4501,1.3463,0.0,0.0,0.0,0.0,0.0,0.0,0.0,0.0,0.0,0.0,0.0,0.0,0.0,0.0,0.0,0.0,0.0,0.0,0.0,1.0205,1.0294,1.0152,0.0,0.0,0.0,0.0,0.0,0.0,0.0,0.0,0.0,1.0995,1.0538,1.021,0.0,0.0,1.0151,1.0079,0.985,0.9655,0.9581,0.0,0.0,0.0,0.8996,0.8756,0.8609,0.7892,0.7292,0.703,0.6693,0.6327,0.6114,0.5495,0.4782,0.3974,0.3196,0.2186,0.09,0.0222,-0.0277,-0.1032,-0.1342,-0.1454,3.2155,2.9013,2.7576,2.6641,2.6026,2.5844,2.6149,2.6719,2.6099,2.5622,2.5218,2.3932,2.265,2.1371,2.042,0.0,0.0,0.0,2.3119,2.437,2.4623,2.4933,2.5257,2.4714,2.4381,2.427,2.3568,2.3213,2.3144,2.2296,2.0747,1.8561,0.0,0.0,1.687,1.7606,1.806,1.8168,1.8259,1.8354,1.8403,1.7553,1.6991,1.6719,1.6382,1.6353,1.6609,1.6392,1.6056,1.5656,1.4773,1.3951,0.0,0.0,0.0,0.0,0.0,0.0,0.0,0.0,0.0,0.0,0.0,0.8744,0.8731,0.0,0.0,0.0,0.9644,1.0261,1.1379,1.1436,0.0,0.0,0.0,0.0,0.0,0.0,0.0,1.116,1.1416,1.155,1.1516,1.121,1.0932,1.0779,1.0604,1.0491,1.0491,0.0,0.9989,0.9989,0.9836,0.9676,0.9644,0.9415,0.917,0.8862,0.816,0.7541,0.7273,0.6912,0.6543,0.6178,0.5598,0.488,0.4033,0.3446,0.2596,0.1076,0.0505,0.0084,-0.0476,-0.0643,-0.0701,3.5398,3.468,3.199,3.042,2.9711,2.9771,3.0206,3.0842,3.0117,2.9346,2.8512,2.6974,2.5301,2.3542,2.1811,0.0,0.0,2.4271,2.5456,2.7302,2.7436,2.7222,2.6722,2.5925,2.5394,2.5099,2.4249,2.3723,2.3535,2.3454,2.2731,2.1374,1.9932,1.9193,1.9107,1.9244,1.9316,1.9285,1.8633,1.8455,1.8764,1.7612,1.6865,1.663,1.6506,1.6477,1.6627,1.6751,1.6744,1.6547,1.5731,1.4928,1.4289,0.0,0.0,0.0,0.0,0.0,0.0,0.0,0.0,0.0,0.0,0.0,0.0,0.0,0.0,0.0,1.0923,0.0,1.2374,1.2447,0.0,0.0,0.0,1.2485,1.1878,1.2049,1.2189,1.2049,0.0,0.0,0.0,0.0,1.1591,1.1373,1.1021,1.0807,1.0807,1.0491,1.0308,1.0276,1.0142,0.9958,0.9798,0.9722,0.9512,0.9052,0.8559,0.8059,0.7686,0.7285,0.6889,0.652,0.5947,0.5259,0.4266,0.3706,0.2921,0.1673,0.0926,0.0449,0.0308,0.0281,0.0228,3.5722,3.5732,3.5041,3.4136,3.3076,3.2509,3.2457,3.2686,3.1933,3.1231,3.0524,2.9451,2.7682,2.5516,2.489,2.5008,2.5617,2.6127,2.675,2.7423,2.749,2.7423,2.7289,2.6979,2.6574,2.6045,2.5425,2.5003,2.4673,2.3815,2.3294,2.3051,2.1728,2.0672,1.996,2.0191,2.019,1.9878,1.939,1.8713,1.7848,1.7177,1.681,1.6751,1.6733,1.6751,1.6899,1.6955,1.7041,1.7236,1.6705,1.6225,1.5856,1.4164,0.0,0.0,0.0,0.0,0.0,0.0,0.0,0.0,0.0,1.1445,1.0818,0.0,1.2231,0.0,1.2093,1.2539,1.3027,1.3452,0.0,0.0,1.348,1.3129,1.2672,1.2591,1.2538,1.2394,1.2598,1.2668,1.2371,1.2351,1.2212,1.174,1.1146,1.0807,1.0807,1.0491,1.0308,1.0308,1.0142,0.9958,0.9798,0.9606,0.9338,0.9049,0.8659,0.8227,0.7865,0.7481,0.716,0.6939,0.6406,0.5693,0.4862,0.4109,0.3307,0.2518,0.1794,0.1262,0.1066,0.1001,0.0993,3.5858,3.6086,3.6086,3.5392,3.4233,3.4102,3.3905,3.3619,3.2907,3.2123,3.1238,3.0124,2.8598,2.6907,2.6674,2.6599,2.661,2.6812,2.7081,2.7494,2.7338,2.7356,2.7503,2.7369,2.7019,2.653,2.6151,2.5769,2.5441,2.4801,2.4342,2.3967,2.3078,2.2066,2.1008,2.0775,2.0529,2.0215,1.9535,1.878,1.8006,1.7355,1.7071,1.7183,1.7004,1.6937,1.7011,1.7151,1.7219,1.7229,1.6973,1.6726,1.6485,1.5436,1.4789,0.0,0.0,0.0,0.0,0.0,0.0,0.0,0.0,0.0,0.0,0.0,1.3029,0.0,1.3046,0.0,1.4226,1.4526,1.4745,1.4774,1.459,1.4268,1.3802,1.3625,1.3468,1.3181,1.3279,1.3164,1.2683,1.259,1.2406,1.1864,1.1435,1.109,1.0933,1.0649,1.0428,1.0434,1.0339,1.0174,0.9926,0.9594,0.93,0.9037,0.8749,0.8443,0.7985,0.765,0.738,0.7016,0.6423,0.5716,0.4872,0.4097,0.335,0.2713,0.2179,0.1853,0.171,0.1727,0.1742,3.5924,3.6126,3.6126,3.5531,3.4552,3.5082,3.4673,3.3542,3.2885,3.2051,3.1057,2.9838,2.8803,2.7854,2.7545,2.7323,2.7138,2.6871,2.7022,2.7525,2.7203,2.7219,2.7503,2.7481,2.7232,2.676,2.664,2.6386,2.5965,2.5931,2.5455,2.4558,2.4165,2.3358,2.2205,2.1428,2.0854,2.0453,1.9499,1.8918,1.8731,1.7907,1.7545,1.7728,1.7412,1.7179,1.714,1.744,1.746,1.7168,1.7134,1.7013,1.6838,1.662,1.637,0.0,1.5897,0.0,0.0,0.0,0.0,0.0,0.0,0.0,0.0,1.374,1.3906,1.3673,1.4026,1.464,1.5499,1.5594,1.5625,1.5608,1.5682,1.5495,1.4988,1.4821,1.4558,1.416,1.395,1.3558,1.2897,1.2713,1.2467,1.205,1.1747,1.1498,1.1247,1.087,1.0618,1.0586,1.0586,1.0371,1.0047,0.9716,0.9396,0.9081,0.8882,0.8596,0.8091,0.7866,0.755,0.7019,0.6448,0.5696,0.4778,0.4198,0.3539,0.2895,0.2584,0.2373,0.2237,0.2264,0.2301,3.6312,3.6325,3.6351,3.6282,3.6198,3.6027,3.4218,3.1422,3.0264,2.9961,3.0212,2.9722,2.917,2.8587,2.7506,2.7148,2.7385,2.7163,2.7285,2.7752,2.7519,2.7421,2.7542,2.8155,2.7913,2.7024,2.7343,2.7097,2.6277,2.6035,2.5881,2.583,2.5173,2.4487,0.0,0.0,0.0,0.0,1.9928,1.9431,1.9394,1.8749,1.8251,1.805,1.8197,0.0,1.7941,1.7957,1.8124,1.8404,1.8289,0.0,0.0,0.0,0.0,0.0,0.0,0.0,0.0,0.0,0.0,0.0,1.6751,1.6083,1.5056,1.5375,1.5471,1.5101,1.5432,1.5742,1.5829,1.6168,1.6342,1.6221,1.5921,1.5642,1.5524,1.5148,1.4834,1.4745,1.4359,1.3971,1.3549,1.3186,1.2867,1.2621,1.212,1.1778,1.1646,1.1153,1.0744,1.0624,1.0498,1.0276,1.0053,0.9722,0.9396,0.9081,0.8894,0.8683,0.8415,0.8115,0.7889,0.7558,0.7085,0.6496,0.5939,0.5374,0.4652,0.4057,0.3587,0.314,0.2508,0.2421,0.2468,3.6667,0.0,3.6524,3.6212,0.0,3.5328,3.3529,3.0929,3.1267,3.1112,3.0594,3.0671,3.0107,2.9099,2.8278,2.7657,2.7128,2.652,2.6467,2.6785,2.6771,2.6907,2.7302,2.7925,2.7878,2.7268,2.7722,2.7663,2.7108,2.6913,2.6756,2.6586,2.5963,2.5303,2.464,2.3813,2.2742,2.1431,2.0705,2.044,2.0553,1.9673,1.9155,1.9037,0.0,0.0,0.0,0.0,0.0,0.0,0.0,0.0,0.0,0.0,0.0,1.8261,1.8262,1.8138,1.7876,1.7854,1.7881,1.7982,1.8122,1.7588,1.6197,1.6319,1.6258,1.5796,1.618,1.6428,1.6373,1.6557,1.6666,1.6591,1.6335,1.6124,1.6095,1.5768,1.5449,1.5274,1.501,1.4617,1.4172,1.3902,1.348,1.3003,1.2628,1.2228,1.1771,1.1435,1.1146,1.0965,1.0649,1.0333,1.0047,0.9824,0.9498,0.9113,0.8894,0.8738,0.8549,0.8214,0.7954,0.7731,0.7274,0.6739,0.6165,0.5607,0.5095,0.456,0.4118,0.3722,0.3294,0.3047,0.2861,3.6999,3.6503,3.6684,3.6073,3.495,3.4751,3.3529,3.1733,0.0,0.0,0.0,3.1569,3.1035,2.9716,2.9252,2.8426,2.7227,2.6282,2.5984,2.611,2.6185,2.651,2.7019,2.7615,2.7782,2.7536,2.7941,2.7994,2.7743,2.7756,2.7543,2.7103,2.6644,2.6052,2.5324,2.4238,2.325,2.2382,2.1656,2.1386,2.1653,2.0686,2.0113,2.0113,1.9512,1.9086,1.8815,1.904,1.8953,1.858,1.8746,1.8896,1.8946,1.9344,1.9516,1.9331,1.9725,1.9662,1.9029,1.9063,1.8969,1.8719,1.8981,1.8598,1.7198,1.7094,1.6913,1.6467,1.6695,1.6864,1.6835,1.6846,1.6835,1.6807,1.6684,1.6609,1.657,1.6343,1.6038,1.5846,1.5575,1.5235,1.4736,1.4529,1.4222,1.3494,1.3199,1.2834,1.2081,1.1747,1.1498,1.1279,1.0965,1.0586,1.0142,0.9894,0.9606,0.921,0.8964,0.8738,0.8517,0.822,0.7922,0.7694,0.7269,0.6761,0.6163,0.5823,0.5344,0.4826,0.451,0.4267,0.4153,0.3753,0.3359,3.7274,3.6852,3.6928,3.6769,3.6411,3.6371,3.5696,3.445,3.2268,3.1089,3.072,3.1121,3.1158,3.0884,2.9832,2.925,2.8964,2.8164,2.7615,0.0,2.7422,2.7312,2.7045,2.7884,2.8041,2.7589,2.8088,2.8075,2.7609,2.7556,2.749,2.7423,2.7345,2.6946,2.6193,2.5093,2.441,2.4093,2.2718,2.1972,2.2018,2.1638,2.1157,2.0623,2.0697,2.0407,1.9668,1.9643,1.9747,1.9902,1.9953,2.0042,2.0231,2.0481,2.0607,2.0481,2.0531,2.053,2.0414,2.0328,2.0128,1.9813,1.9826,1.937,1.8297,1.8268,1.8147,1.7698,1.7407,1.7155,1.6983,1.6983,1.6955,1.6807,1.6684,1.6609,1.6609,1.6477,1.6345,1.6249,1.5904,1.5575,1.5294,1.4854,1.4558,1.438,1.3782,1.329,1.2964,1.2197,1.1591,1.1334,1.124,1.0933,1.0428,0.9989,0.9702,0.946,0.9055,0.8738,0.8549,0.8214,0.7917,0.7587,0.733,0.7015,0.6561,0.6608,0.6236,0.5547,0.5375,0.521,0.4703,0.4241,0.3838,3.7769,3.7273,3.7074,3.6954,3.6822,3.6306,3.5781,3.5214,3.3365,3.2302,3.1944,3.18,3.1542,3.1145,3.0266,2.9447,2.8676,2.7959,2.7359,2.6949,2.7071,2.715,2.7148,2.7657,2.7785,2.7516,2.7885,2.7939,2.7669,2.7656,2.7643,2.7656,2.7556,2.7026,2.6121,2.5556,2.4935,2.4176,2.3323,2.2909,2.2909,2.2595,2.2201,2.1848,2.1464,2.0977,2.0525,2.0297,2.0233,2.0372,2.0511,2.06,2.0612,2.0775,2.0838,2.0699,2.0699,2.0699,2.0699,2.0587,2.0436,2.0271,2.0169,1.9902,1.9409,1.9092,1.8789,1.8441,1.8154,1.7881,1.7639,1.7611,1.7457,1.7099,1.7015,1.6892,1.6722,1.6581,1.6477,1.6402,1.6202,1.6019,1.5826,1.5478,1.5108,1.4824,1.4082,1.3563,1.367,1.3078,1.2474,1.2143,1.1646,1.1178,1.0744,1.018,0.9792,0.9518,0.9119,0.8802,0.8641,0.8312,0.7987,0.7787,0.7461,0.7167,0.6934,0.6907,0.6727,0.6554,0.6079,0.5793,0.542,0.4803,0.4038,3.8324,3.7698,3.7363,3.7119,3.6886,3.6061,3.5698,3.559,3.4412,3.3702,3.3326,3.2667,3.2021,3.1381,3.0782,2.9884,2.8797,2.8112,2.7493,2.6945,2.7016,2.7115,2.7195,2.7378,2.7469,2.7523,2.7689,2.7789,2.7756,2.7709,2.7709,2.7723,2.759,2.7059,2.6198,2.591,2.5318,2.4365,2.3918,2.37,2.3645,2.3222,2.2982,2.2819,2.2013,2.1445,2.1197,2.1017,2.0861,2.0744,2.1078,2.122,2.1105,2.1194,2.1167,2.0935,2.087,2.0818,2.0725,2.0612,2.0549,2.0524,2.0347,2.0233,2.0156,1.9734,1.9279,1.9028,1.8735,1.8509,1.8294,1.8213,1.8034,1.7601,1.7445,1.7267,1.7015,1.6751,1.6552,1.6459,1.6431,1.6316,1.6181,1.6038,1.5662,1.503,1.4371,1.4052,1.4091,1.3872,1.3541,1.3033,1.2266,1.1608,1.1233,1.0548,1.0015,0.9748,0.921,0.8899,0.8673,0.8317,0.8019,0.7922,0.7657,0.7391,0.7261,0.7223,0.7157,0.7069,0.6714,0.6372,0.5973,0.5235,0.4323,3.8866,3.8145,3.7886,3.7394,3.6721,3.6401,3.6281,3.6103,3.4669,3.4061,3.4073,3.3339,3.2657,3.2063,3.1418,3.0996,3.0758,3.0266,2.9402,2.8447,2.8286,2.7879,2.7291,2.7314,2.7369,2.7536,2.7689,2.7689,2.7556,2.7536,2.7536,2.7523,2.7503,2.7425,2.7203,2.6289,2.5715,2.561,2.4588,2.3995,2.3852,2.3295,2.3054,2.3154,2.258,2.2034,2.1537,2.1969,2.1956,2.1511,2.2036,2.2365,2.2244,2.2338,2.2128,2.1485,2.1433,2.1211,2.0777,2.0687,2.0637,2.0511,2.0499,2.0398,2.0233,2.0156,1.9926,1.9591,1.9095,1.883,1.8724,1.8629,1.8467,1.8182,1.7893,1.759,1.7396,1.6937,1.6609,1.6581,1.6506,1.6384,1.6374,1.6181,1.5884,1.541,1.5147,1.4844,1.4499,1.438,1.4201,1.386,1.3268,1.2558,1.1888,1.1146,1.0643,1.0238,0.9536,0.9055,0.8732,0.8441,0.8107,0.7922,0.7862,0.7765,0.7612,0.7609,0.7678,0.738,0.72,0.7056,0.6187,0.5503,0.4885,3.9075,3.8559,3.8092,3.7436,3.671,3.6351,3.6286,3.6269,3.5012,3.4415,3.4183,3.3472,3.2775,3.2182,3.19,3.1579,3.1196,3.0921,3.0391,2.9644,2.9444,2.905,2.8434,2.8204,2.799,2.7656,2.7656,2.759,2.7503,2.7503,2.7503,2.7503,2.7503,2.7177,2.6543,2.6028,2.548,2.4818,2.4423,2.4203,2.4079,2.3467,2.3352,2.3704,2.29,2.2452,2.2492,2.2467,2.227,2.2074,2.2404,2.2535,2.2413,2.2535,2.243,2.2048,2.1681,2.1407,2.1185,2.0883,2.0806,2.1069,2.0794,2.0587,2.0524,2.0498,2.0423,2.0233,1.9862,1.954,1.9317,1.9212,1.9013,1.8575,1.8383,1.8166,1.7645,1.7396,1.7145,1.679,1.6666,1.6591,1.6495,1.6257,1.598,1.5633,1.5488,1.5245,1.4863,1.4715,1.4478,1.4228,1.3821,1.3321,1.2597,1.1763,1.1233,1.0895,1.0161,0.9428,0.9204,0.8592,0.8139,0.8014,0.8019,0.7999,0.7795,0.7923,0.8001,0.7733,0.755,0.733,0.6544,0.5914,0.5286,3.9397,3.8791,3.8004,3.7296,3.6682,3.6391,3.6365,3.6348,3.5401,3.4774,3.4324,3.3547,3.2812,3.2273,3.2205,3.1936,3.1505,3.1468,3.1121,3.0568,3.0309,2.9869,2.9222,2.8812,2.8322,2.7868,2.7643,2.7556,2.7503,2.7503,2.7503,2.7503,2.7503,2.7085,2.6328,2.6119,2.5654,2.4896,2.4665,2.4572,2.448,2.3774,2.3627,2.4134,2.3218,2.282,2.3184,2.3003,2.2821,2.2691,2.2918,2.3023,2.2913,2.3023,2.2944,2.2597,2.206,2.1747,2.1734,2.138,2.1237,2.1433,2.1132,2.0844,2.0764,2.0856,2.0923,2.091,2.0706,2.0373,1.9913,1.9798,1.9539,1.9066,1.9011,1.8706,1.8209,1.792,1.7518,1.7117,1.6892,1.6751,1.6599,1.64,1.6153,1.5817,1.5643,1.54,1.5117,1.4911,1.4686,1.4446,1.416,1.3761,1.3199,1.2351,1.1833,1.1358,1.0629,0.9805,0.9709,0.8877,0.8269,0.8209,0.8149,0.8144,0.814,0.8226,0.8333,0.8301,0.8144,0.7727,0.7064,0.6338,0.5716,3.9971,3.879,3.754,3.6945,3.6721,3.6642,3.6682,3.6601,3.5806,3.5145,3.4513,3.372,3.296,3.2232,3.2205,3.2169,3.2132,3.2096,3.1776,3.1143,3.0765,3.0026,2.9174,2.8682,2.8234,2.7895,2.7822,2.7689,2.7536,2.7503,2.7503,2.749,2.749,2.7464,2.7249,2.6837,2.6627,2.6261,2.5537,2.5183,2.5183,2.4254,2.3905,2.4202,2.3557,2.3171,2.3289,2.3746,2.383,2.3476,2.3912,2.4173,2.4173,2.4173,2.3824,2.3199,2.265,2.2349,2.2362,2.2256,2.2086,2.1629,2.1498,2.1237,2.0844,2.1093,2.1328,2.142,2.1368,2.1082,2.0604,2.0297,2.008,1.9875,1.9577,1.9303,1.9095,1.8317,1.7794,1.7562,1.7145,1.6779,1.6637,1.6609,1.6324,1.6019,1.5856,1.5682,1.5264,1.5068,1.4882,1.4636,1.427,1.3881,1.348,1.285,1.2236,1.1825,1.1132,1.0021,0.955,0.9107,0.8721,0.8398,0.8441,0.8479,0.8511,0.8576,0.8673,0.8705,0.8668,0.8247,0.7587,0.6859,0.6268,3.9381,3.8187,3.72,3.6747,3.6682,3.6563,3.6549,3.6612,3.5845,3.5145,3.4513,3.3771,3.2946,3.2205,3.2205,3.2205,3.2205,3.2205,3.2059,3.1836,3.1648,3.1007,3.0003,2.9619,2.8992,2.8211,2.8052,2.7901,2.7723,2.7689,2.7689,2.7656,2.7556,2.7386,2.7098,2.6843,2.6536,2.613,2.5572,2.5352,2.5345,2.4742,2.4491,2.4582,2.3821,2.3548,2.3918,2.4113,2.4213,2.4199,2.4385,2.4421,2.4292,2.4189,2.3895,2.3289,2.3027,2.291,2.2871,2.257,2.2465,2.2557,2.1904,2.1446,2.125,2.1106,2.1132,2.1433,2.1485,2.1459,2.155,2.0953,2.0322,2.0144,1.9913,1.9707,1.9448,1.8975,1.8494,1.7979,1.7385,1.6881,1.6779,1.6655,1.6467,1.6124,1.5972,1.574,1.54,1.5137,1.4931,1.4686,1.43,1.3941,1.3851,1.3346,1.2828,1.2421,1.1849,1.1195,1.0636,0.9741,0.9198,0.8979,0.892,0.8732,0.8732,0.8835,0.8931,0.8867,0.8835,0.8603,0.8042,0.7256,0.6798,3.8875,3.7838,3.7102,3.6772,3.6772,3.6668,3.6654,3.673,3.6195,3.5492,3.4681,3.4112,3.3285,3.2395,3.2336,3.23,3.2264,3.2264,3.2264,3.2264,3.2277,3.1711,3.0791,3.0489,2.9881,2.8973,2.8525,2.8326,2.8173,2.7981,2.7901,2.7888,2.7756,2.7552,2.7307,2.7221,2.6835,2.6269,2.6065,2.5871,2.5455,2.5246,2.501,2.4765,2.4233,2.4023,2.4295,2.435,2.4463,2.4591,2.4649,2.4578,2.4421,2.4216,2.39,2.3535,2.3483,2.3483,2.3443,2.3132,2.2977,2.2923,2.2269,2.176,2.159,2.1367,2.1577,2.1957,2.2073,2.2242,2.2334,2.1746,2.0991,2.0669,2.0361,2.0093,1.9913,1.9739,1.9296,1.8663,1.7894,1.7368,1.7117,1.692,1.6666,1.6278,1.6105,1.5904,1.5546,1.5284,1.5049,1.4813,1.4449,1.4151,1.3971,1.3619,1.3263,1.2889,1.2328,1.1864,1.1397,1.044,0.9837,0.962,0.9364,0.9113,0.9017,0.9087,0.9055,0.899,0.8894,0.8727,0.8177,0.7624,0.7162,3.8536,3.7793,3.7245,3.6978,3.6954,3.694,3.6978,3.694,3.6911,3.6081,3.4948,3.4813,3.3868,3.2681,3.2561,3.2596,3.2467,3.2453,3.2417,3.2417,3.2417,3.2009,3.1268,3.1094,3.0664,2.9982,2.9342,2.8986,2.8872,2.8365,2.8099,2.8099,2.8079,2.8006,2.8072,2.7926,2.7649,2.712,2.7085,2.6658,2.5631,2.5684,2.5461,2.4916,2.4765,2.4622,2.435,2.4492,2.4607,2.4649,2.4734,2.4734,2.4549,2.4303,2.4099,2.4047,2.4073,2.4086,2.4073,2.3995,2.3487,2.2792,2.2414,2.2167,2.1865,2.2023,2.2469,2.3063,2.3165,2.3158,2.3134,2.2689,2.2073,2.1538,2.0939,2.0527,2.0514,2.0485,2.0252,1.9569,1.8724,1.8052,1.7761,1.76,1.7287,1.6772,1.6498,1.6265,1.5849,1.5537,1.5274,1.5059,1.4754,1.4458,1.4151,1.3881,1.3619,1.3285,1.2636,1.2112,1.1771,1.1069,1.0566,1.0288,0.9811,0.9562,0.9344,0.9376,0.9376,0.928,0.9113,0.8856,0.8404,0.7884,0.7428,3.8283,3.7288,3.7116,3.6978,3.6978,3.6978,3.6978,3.6978,3.6978,3.6214,3.5083,3.4906,3.4048,3.2889,3.2668,3.2739,3.2797,3.281,3.2739,3.2632,3.2596,3.2294,3.1742,3.1611,3.1191,3.048,2.9733,2.9295,2.91,2.8557,2.8235,2.8216,2.8145,2.8164,2.8216,2.8131,2.7926,2.7734,2.74,2.6894,2.6176,2.5867,2.547,2.5042,2.5327,2.5266,2.4704,2.4706,2.4791,2.4863,2.492,2.4863,2.4706,2.4421,2.4247,2.4218,2.4247,2.4173,2.4099,2.416,2.3874,2.3122,2.2691,2.2443,2.218,2.2115,2.2551,2.333,2.3446,2.3565,2.3913,2.3443,2.2795,2.2179,2.1498,2.1056,2.103,2.0501,2.0092,2.0,1.949,1.9062,1.8765,1.8583,1.8196,1.7518,1.7092,1.6679,1.6326,1.5782,1.5488,1.54,1.5079,1.4725,1.4449,1.4151,1.386,1.3567,1.3042,1.2521,1.2174,1.1802,1.1303,1.0832,1.0383,1.0009,0.9792,0.967,0.9632,0.9504,0.9274,0.8985,0.8662,0.8209,0.7684,3.8171,3.7021,3.6978,3.6978,3.6978,3.6978,3.6978,3.6978,3.6978,3.6252,3.5209,3.5004,3.4195,3.304,3.2895,3.2931,3.3023,3.3058,3.3051,3.2931,3.2846,3.2553,3.2151,3.2137,3.1951,3.1385,3.0638,3.0229,3.0038,2.9187,2.8722,2.8722,2.8435,2.8327,2.8398,2.8314,2.8195,2.7902,2.7761,2.7216,2.6418,2.6099,2.5808,2.5465,2.5697,2.5654,2.5229,2.5201,2.5121,2.4974,2.492,2.4863,2.4721,2.4436,2.4279,2.4292,2.4247,2.4203,2.4173,2.4234,2.3894,2.3165,2.3012,2.2896,2.2683,2.2511,2.303,2.3789,2.3959,2.4106,2.4374,2.4142,2.3578,2.3248,2.2086,2.1511,2.1342,2.0643,2.0321,2.041,2.0182,1.9702,1.9267,1.9101,1.8766,1.8031,1.7364,1.696,1.6594,1.6038,1.5791,1.5546,1.5205,1.4902,1.4706,1.4419,1.4139,1.3808,1.3415,1.3019,1.2674,1.2305,1.1872,1.1341,1.0863,1.0485,1.0238,0.9983,0.9856,0.9658,0.9466,0.9113,0.8759,0.8398,0.7977,3.8171,3.7035,3.6978,3.6978,3.6978,3.6978,3.6978,3.6978,3.6978,3.6328,3.5372,3.5152,3.4377,3.3303,3.3157,3.3157,3.3072,3.3206,3.3276,3.3206,3.3086,3.2861,3.27,3.2664,3.2573,3.2469,3.1846,3.1507,3.126,3.0031,2.9502,2.9347,2.8825,2.8587,2.8554,2.8587,2.8273,2.7867,2.8201,2.7548,2.6072,2.6361,2.6465,2.5925,2.5982,2.5955,2.5819,2.5668,2.5393,2.4916,2.4835,2.4806,2.4635,2.4421,2.435,2.4379,2.4216,2.4232,2.4263,2.4334,2.3898,2.3012,2.3308,2.3525,2.3111,2.3352,2.3793,2.4505,2.4584,2.4567,2.4635,2.4538,2.4443,2.4269,2.2748,2.1773,2.1511,2.0925,2.0746,2.1003,2.0761,2.016,1.9437,1.9322,1.8855,1.8188,1.7555,1.7187,1.6833,1.6415,1.5868,1.5575,1.54,1.5313,1.5206,1.4883,1.4567,1.4219,1.3799,1.3354,1.305,1.2683,1.2274,1.1778,1.1404,1.1021,1.0643,1.039,1.0174,1.0015,0.9696,0.9274,0.892,0.8592,0.8269,3.8171,3.7021,3.6978,3.6978,3.6978,3.6978,3.6978,3.6978,3.6978,3.6328,3.5386,3.5189,3.4464,3.3311,3.3276,3.3276,3.3227,3.3276,3.3276,3.3276,3.3241,3.3206,3.3122,3.3002,3.2917,3.2798,3.22,3.1694,3.1507,3.0357,2.9703,2.9488,2.8945,2.8587,2.8587,2.8587,2.8532,2.83,2.8187,2.7892,2.7077,2.6585,2.6411,2.6381,2.6462,2.6321,2.59,2.5453,2.5166,2.4989,2.4948,2.4948,2.4863,2.4721,2.4622,2.4622,2.452,2.4405,2.4363,2.445,2.4105,2.3424,2.3644,2.37,2.3414,2.3755,2.4172,2.4573,2.4692,2.4778,2.4835,2.4734,2.4446,2.3897,2.307,2.2273,2.1784,2.1219,2.0973,2.1316,2.1092,2.0784,2.0552,2.0351,1.9994,1.9362,1.8592,1.7816,1.7395,1.6683,1.6081,1.599,1.5855,1.5826,1.5681,1.5352,1.503,1.4656,1.4181,1.3567,1.3294,1.2989,1.2521,1.2019,1.1903,1.1584,1.1178,1.0863,1.0618,1.0339,0.9926,0.9504,0.9215,0.892,0.8565,3.8171,3.6993,3.6978,3.6978,3.6978,3.6978,3.6978,3.6978,3.6964,3.6328,3.5386,3.5189,3.45,3.3382,3.3276,3.3276,3.3276,3.3276,3.3276,3.3276,3.3276,3.3276,3.3241,3.3157,3.3122,3.308,3.2556,3.2255,3.1873,3.0788,3.0132,2.978,2.904,2.8614,2.8587,2.8587,2.8587,2.8554,2.8379,2.8032,2.7517,2.7117,2.6795,2.6725,2.6735,2.6495,2.5914,2.5317,2.5005,2.5005,2.4977,2.4977,2.492,2.4835,2.482,2.4778,2.4677,2.4563,2.4578,2.4635,2.4368,2.3911,2.4065,2.4119,2.397,2.4175,2.4595,2.4739,2.4835,2.492,2.4948,2.4835,2.463,2.4334,2.3702,2.2951,2.2057,2.1569,2.1296,2.1275,2.1251,2.1176,2.1072,2.0962,2.0649,2.0087,1.9251,1.854,1.7901,1.7064,1.6345,1.6146,1.5999,1.5855,1.5623,1.5332,1.4951,1.4656,1.433,1.3748,1.3476,1.3233,1.2942,1.2566,1.2421,1.2151,1.1771,1.1303,1.0895,1.0555,1.0149,0.9766,0.9472,0.9119,0.8791,3.8131,3.6978,3.6978,3.6978,3.6978,3.6978,3.6978,3.6978,3.6978,3.6328,3.5386,3.5189,3.4486,3.329,3.3276,3.3276,3.3276,3.3276,3.3276,3.3276,3.3276,3.3276,3.3276,3.3276,3.3276,3.3227,3.3108,3.2875,3.2394,3.1413,3.0726,3.0222,2.9271,2.8695,2.8614,2.8587,2.8587,2.8587,2.8522,2.8241,2.7841,2.7566,2.7269,2.6931,2.663,2.6416,2.5873,2.5358,2.5005,2.5005,2.5005,2.4977,2.4863,2.4863,2.4863,2.4835,2.4763,2.4677,2.4763,2.4765,2.459,2.424,2.4622,2.4773,2.4393,2.4623,2.4909,2.492,2.4977,2.5005,2.4977,2.4977,2.4921,2.4772,2.4407,2.3568,2.2509,2.2071,2.178,2.1228,2.1445,2.1275,2.1091,2.0937,2.0962,2.0637,1.9834,1.9041,1.826,1.7401,1.6628,1.605,1.5894,1.5729,1.5507,1.5245,1.4872,1.4488,1.4279,1.3868,1.3627,1.3415,1.3346,1.3186,1.2972,1.2697,1.2336,1.1833,1.1334,1.087,1.0561,1.0079,0.9626,0.9306,0.8952,3.8131,3.6978,3.6978,3.6978,3.6978,3.6978,3.6978,3.6978,3.6978,3.6328,3.5386,3.5189,3.4472,3.329,3.3276,3.3276,3.3276,3.3276,3.3276,3.3276,3.3276,3.3276,3.3276,3.3276,3.3276,3.3276,3.3276,3.3122,3.2708,3.2007,3.1227,3.0562,2.9745,2.9034,2.8641,2.8587,2.8587,2.8587,2.8444,2.8344,2.8142,2.7764,2.7449,2.7139,2.6519,2.6077,2.5833,2.5317,2.5018,2.5005,2.5033,2.509,2.5061,2.5005,2.5005,2.5033,2.4892,2.4791,2.4778,2.4793,2.4766,2.466,2.4785,2.4894,2.47,2.4827,2.4948,2.4892,2.4948,2.4977,2.5005,2.5005,2.5005,2.4951,2.4856,2.4475,2.373,2.3097,2.2643,2.2392,2.2207,2.2172,2.2058,2.1711,2.1492,2.1109,2.0384,1.9482,1.8596,1.7726,1.6929,1.6206,1.6095,1.5931,1.5565,1.5274,1.4902,1.4547,1.4279,1.416,1.389,1.3748,1.3709,1.364,1.3511,1.3216,1.2858,1.2482,1.2011,1.149,1.0965,1.0579,1.0161,0.969,0.9402,3.8171,3.7007,3.6978,3.6978,3.6978,3.6978,3.6978,3.6978,3.6978,3.6342,3.5372,3.5189,3.45,3.3333,3.3276,3.3276,3.3276,3.3276,3.3276,3.3276,3.3276,3.3276,3.3276,3.3276,3.3276,3.3276,3.3276,3.3192,3.287,3.2271,3.1509,3.0787,3.0002,2.9307,2.8779,2.8651,2.8587,2.8587,2.8509,2.843,2.8363,2.816,2.7548,2.712,2.6316,2.5792,2.5453,2.5422,2.5201,2.5104,2.5258,2.5342,2.523,2.5202,2.5244,2.5174,2.509,2.4948,2.492,2.4892,2.492,2.4977,2.4991,2.4991,2.4977,2.5005,2.4977,2.492,2.4948,2.5005,2.5005,2.5005,2.5005,2.5005,2.5061,2.4912,2.4517,2.3919,2.3272,2.2938,2.2631,2.2648,2.2542,2.2438,2.2206,2.1885,2.0976,2.0087,1.8928,1.8054,1.7135,1.6519,1.6394,1.6171,1.5729,1.5362,1.499,1.4695,1.4449,1.4419,1.433,1.4219,1.413,1.4031,1.3941,1.37,1.3338,1.2995,1.2628,1.2112,1.1615,1.1209,1.0832,1.0446,1.0225,3.8171,3.6978,3.6978,3.6978,3.6978,3.6978,3.6978,3.6978,3.6978,3.6413,3.5456,3.5259,3.4548,3.3613,3.3319,3.329,3.3276,3.3276,3.3276,3.3276,3.3276,3.3276,3.3276,3.3276,3.3276,3.3276,3.3276,3.3192,3.2968,3.2493,3.1826,3.0983,3.0339,2.9589,2.8971,2.8716,2.8633,2.86,2.8587,2.8554,2.8587,2.8519,2.7985,2.7159,2.6294,2.5767,2.5457,2.5409,2.537,2.509,2.555,2.5578,2.5411,2.5383,2.5467,2.5286,2.5258,2.5188,2.5131,2.5103,2.5159,2.523,2.5159,2.5146,2.5202,2.5188,2.5131,2.5103,2.5103,2.5103,2.5075,2.5131,2.509,2.5061,2.5146,2.5146,2.4966,2.4558,2.3987,2.3433,2.3377,2.3462,2.33,2.3138,2.2905,2.2533,2.159,2.0597,1.941,1.8386,1.7481,1.677,1.6566,1.6142,1.57,1.5478,1.5108,1.4843,1.4627,1.4656,1.4686,1.4606,1.4526,1.4437,1.4309,1.4109,1.389,1.3601,1.3208,1.2697,1.2205,1.1756,1.1445,1.1233,1.0951,3.8171,3.6978,3.6978,3.6978,3.6978,3.6978,3.6978,3.6978,3.6978,3.6624,3.5934,3.5428,3.4837,3.4112,3.3522,3.334,3.334,3.3276,3.3312,3.3361,3.3382,3.3382,3.3486,3.3521,3.3417,3.3276,3.3347,3.3347,3.3227,3.294,3.2242,3.1338,3.0879,3.016,2.9219,2.8761,2.877,2.8665,2.8619,2.8587,2.8619,2.8578,2.8261,2.7461,2.6639,2.6126,2.587,2.5432,2.5118,2.5202,2.5425,2.555,2.555,2.5564,2.5592,2.555,2.5495,2.5425,2.5369,2.5383,2.5397,2.5439,2.5411,2.5411,2.5425,2.5397,2.5355,2.5383,2.5383,2.5411,2.5397,2.5369,2.5313,2.5272,2.5286,2.5355,2.5203,2.5009,2.4789,2.4323,2.432,2.4219,2.3921,2.3631,2.341,2.2807,2.1792,2.0754,1.9647,1.8715,1.7869,1.7237,1.6715,1.6171,1.5584,1.5497,1.5274,1.5059,1.4882,1.4882,1.4911,1.4941,1.4891,1.4926,1.4807,1.4609,1.4402,1.4204,1.383,1.3381,1.2823,1.2282,1.2004,1.1732,1.124,3.8171,3.7007,3.6978,3.6978,3.6978,3.6978,3.6978,3.6978,3.6964,3.668,3.6212,3.5892,3.5478,3.482,3.4185,3.3741,3.3368,3.3276,3.3452,3.3646,3.3736,3.3894,3.4031,3.4113,3.4147,3.4079,3.3977,3.3695,3.3466,3.3262,3.2709,3.2154,3.1684,3.0857,2.9831,2.9421,2.9136,2.8921,2.8683,2.8619,2.8683,2.8651,2.8307,2.7709,2.742,2.712,2.6851,2.7131,2.6835,2.6749,2.6962,2.6694,2.6329,2.612,2.605,2.5786,2.5647,2.5564,2.5522,2.5508,2.5522,2.5578,2.5536,2.555,2.5564,2.555,2.5536,2.5508,2.5508,2.5508,2.5508,2.5508,2.5439,2.5397,2.5495,2.5495,2.5425,2.5355,2.5216,2.5005,2.4769,2.4503,2.4257,2.4008,2.3839,2.309,2.2013,2.0971,1.9895,1.8851,1.7963,1.7301,1.6694,1.6257,1.5768,1.5623,1.5478,1.5264,1.5088,1.5088,1.5088,1.5088,1.5349,1.5591,1.5393,1.5223,1.5051,1.4854,1.4452,1.4005,1.3447,1.2928,1.2574,1.2174,1.174,3.8171,3.6978,3.6978,3.6978,3.6978,3.6978,3.6978,3.6978,3.6978,3.6764,3.6328,3.6283,3.6047,3.5495,3.4802,3.4066,3.3354,3.3326,3.3646,3.3948,3.4051,3.4341,3.4758,3.4924,3.4791,3.4658,3.4572,3.4244,3.3833,3.357,3.3182,3.2687,3.2342,3.1584,3.0499,2.9998,2.961,2.9132,2.8876,2.878,2.8812,2.8785,2.8511,2.8034,2.8321,2.8202,2.7633,2.7853,2.7868,2.7666,2.7767,2.7812,2.6987,2.6918,2.6722,2.6218,2.5924,2.5702,2.5674,2.5605,2.5674,2.5729,2.5647,2.5661,2.5688,2.5661,2.5592,2.5578,2.5605,2.5605,2.5619,2.5592,2.5564,2.5578,2.5633,2.5702,2.5592,2.5508,2.5411,2.5244,2.5005,2.475,2.445,2.4305,2.4128,2.3441,2.2392,2.1449,2.0344,1.8841,1.7889,1.7199,1.6637,1.6296,1.598,1.5788,1.5643,1.5439,1.5293,1.5225,1.5225,1.5225,1.5555,1.5888,1.612,1.5956,1.5761,1.547,1.5001,1.4518,1.4018,1.3501,1.3011,1.2636,1.2243,3.8171,3.6978,3.6978,3.6978,3.6978,3.6978,3.6978,3.6978,3.6978,3.6964,3.6768,3.6409,3.6165,3.5765,3.4986,3.4086,3.3551,3.3501,3.375,3.4119,3.4221,3.4524,3.489,3.4924,3.5088,3.5088,3.4957,3.4654,3.4366,3.4054,3.3528,3.3043,3.2805,3.2023,3.1039,3.0601,2.9744,2.9064,2.9017,2.9035,2.9099,2.9289,2.9093,2.8868,2.8937,2.884,2.8205,2.8257,2.796,2.7579,2.7522,2.7438,2.7282,2.7547,2.7634,2.7242,2.6638,2.5935,2.6061,2.602,2.5937,2.5951,2.5853,2.5853,2.5839,2.5839,2.5798,2.5839,2.5839,2.5811,2.5798,2.5853,2.5784,2.5757,2.5798,2.5784,2.5716,2.5605,2.555,2.5411,2.5159,2.4905,2.4635,2.452,2.4337,2.3582,2.2767,2.1807,2.0704,1.9175,1.7963,1.7301,1.6825,1.6485,1.6085,1.5933,1.5789,1.5615,1.5508,1.5371,1.5332,1.5381,1.5663,1.5986,1.6339,1.6692,1.6599,1.6224,1.5601,1.505,1.4496,1.3904,1.3329,1.3003,1.2683,3.8171,3.6993,3.6978,3.6978,3.6978,3.6978,3.6978,3.6978,3.6978,3.6978,3.7028,3.7009,3.6628,3.5923,3.5243,3.4476,3.3684,3.357,3.3937,3.4419,3.4624,3.499,3.5494,3.572,3.5816,3.5688,3.5623,3.5494,3.5151,3.4691,3.4148,3.372,3.3753,3.3469,3.2098,3.1567,3.0956,3.0256,2.9687,2.9334,2.9383,2.9477,2.9446,2.9121,2.9724,2.9624,2.9282,2.9424,2.9314,2.9075,2.9013,2.8589,2.8274,2.8208,2.8213,2.785,2.737,2.7032,2.7046,2.6652,2.6469,2.6287,2.6132,2.5893,2.5893,2.5921,2.5921,2.5893,2.5893,2.5921,2.5948,2.5975,2.5921,2.5893,2.5948,2.5893,2.5839,2.5729,2.5619,2.5495,2.5341,2.5047,2.482,2.4649,2.4423,2.3911,2.2894,2.1735,2.0659,1.94,1.8327,1.7468,1.7095,1.6775,1.6332,1.6038,1.5945,1.581,1.5654,1.5546,1.542,1.5527,1.5762,1.6184,1.6638,1.6961,1.7239,1.6993,1.638,1.5688,1.4978,1.4298,1.3657,1.3255,1.2928,3.8171,3.7007,3.6978,3.6978,3.6978,3.6978,3.6978,3.6978,3.6978,3.6978,3.7095,3.7285,3.6907,3.6074,3.5608,3.4932,3.3944,3.376,3.4191,3.4702,3.5118,3.5494,3.5958,3.632,3.6429,3.6492,3.6163,3.6005,3.5767,3.5429,3.4924,3.4452,3.4518,3.4266,3.3579,3.2655,3.1786,3.089,2.9976,2.9679,2.9851,2.996,2.9822,2.9931,3.0283,3.0673,3.0146,3.0405,3.0555,3.0027,2.9785,2.9313,2.8923,2.887,2.8804,2.8554,2.8269,2.8255,2.8002,2.7593,2.7074,2.6722,2.6497,2.6244,2.6244,2.6146,2.606,2.6045,2.5975,2.5975,2.6002,2.6125,2.6098,2.6098,2.6056,2.6002,2.5948,2.5839,2.5729,2.5591,2.5411,2.5216,2.499,2.4763,2.4467,2.4105,2.3073,2.1753,2.0631,1.954,1.8686,1.7865,1.7689,1.7362,1.6937,1.6512,1.6319,1.6077,1.5959,1.5821,1.5753,1.5654,1.5771,1.6243,1.6858,1.7313,1.7665,1.7429,1.7132,1.6319,1.5489,1.4624,1.3965,1.3566,1.3172,3.8171,3.6978,3.6978,3.6978,3.6978,3.6978,3.6978,3.6978,3.6978,3.7017,3.7095,3.7183,3.6959,3.6381,3.5815,3.5289,3.4654,3.4139,3.439,3.4854,3.5267,3.5623,3.6068,3.6336,3.646,3.6492,3.6398,3.6226,3.6022,3.5799,3.5527,3.535,3.5037,3.459,3.4011,3.336,3.2126,3.1155,3.0189,3.0113,3.0372,3.0583,3.0523,3.0372,3.0792,3.0896,2.9775,3.0144,3.0205,2.9571,2.9571,2.9571,2.9313,2.9361,2.9296,2.9301,2.9198,2.9184,2.9031,2.8298,2.7481,2.7017,2.6722,2.668,2.6721,2.6708,2.6567,2.625,2.6125,2.6152,2.6206,2.6286,2.6272,2.6218,2.6192,2.6165,2.6084,2.5948,2.5839,2.5702,2.5508,2.5355,2.5146,2.492,2.4664,2.4299,2.3441,2.2143,2.0897,1.9829,1.9042,1.8422,1.8334,1.8043,1.769,1.7351,1.709,1.6779,1.6588,1.6377,1.6186,1.6096,1.5989,1.6524,1.7165,1.7631,1.7916,1.7563,1.7179,1.6675,1.5932,1.4934,1.4126,1.3562,1.3294,3.8131,3.6993,3.6978,3.6978,3.6978,3.6978,3.6978,3.6978,3.6993,3.7148,3.7341,3.7197,3.7001,3.6616,3.5878,3.5346,3.4895,3.4312,3.4438,3.465,3.4968,3.5347,3.5767,3.6132,3.6273,3.6429,3.646,3.6336,3.6005,3.5784,3.5608,3.5382,3.5379,3.526,3.4769,3.3916,3.263,3.1367,3.0657,3.0569,3.0628,3.0673,3.0493,3.0085,3.0568,3.0538,2.9898,3.0021,2.9943,2.9772,2.9571,2.9509,2.9509,2.9571,2.9696,2.9803,2.9696,2.9696,2.969,2.8923,2.8071,2.7496,2.7145,2.7004,2.7145,2.6763,2.6505,2.6302,2.6302,2.6345,2.6286,2.6379,2.6406,2.6353,2.6299,2.6272,2.6218,2.6084,2.5975,2.5839,2.5674,2.5481,2.5314,2.5104,2.4821,2.4496,2.3513,2.2534,2.1342,2.0289,1.9551,1.9048,1.8948,1.8612,1.821,1.8002,1.7843,1.7575,1.7286,1.7092,1.6879,1.6477,1.6487,1.6989,1.7354,1.7678,1.7777,1.757,1.7181,1.6715,1.6021,1.5148,1.4384,1.3683,1.3441,3.8171,3.7035,3.6978,3.6978,3.6978,3.6978,3.6978,3.6978,3.6978,3.7187,3.7495,3.7236,3.7244,3.6966,3.6119,3.5618,3.5251,3.4623,3.4399,3.4568,3.4868,3.5103,3.5429,3.5799,3.6147,3.6336,3.646,3.6336,3.6163,3.564,3.5576,3.5655,3.5735,3.5593,3.5416,3.4556,3.3337,3.2243,3.1486,3.1279,3.1264,3.0939,3.0598,3.0206,3.0493,3.0387,3.0052,3.0036,3.0019,2.9865,2.9696,2.9602,2.9602,2.9634,2.9741,2.9803,2.9803,2.9741,2.9678,2.924,2.8681,2.8457,2.795,2.7768,2.7584,2.7299,2.73,2.682,2.6736,2.6608,2.6535,2.6553,2.6592,2.6527,2.6445,2.6404,2.6338,2.6231,2.6111,2.5975,2.5811,2.5647,2.5342,2.5118,2.4835,2.4414,2.3509,2.2742,2.2071,2.1071,2.0263,1.9858,1.9626,1.9182,1.871,1.8918,1.9049,1.8754,1.8459,1.8009,1.7729,1.7297,1.7256,1.7854,1.8061,1.7873,1.7767,1.774,1.7319,1.6794,1.5999,1.5172,1.4763,1.4153,1.3843,3.8171,3.7035,3.6978,3.6978,3.6978,3.6978,3.6978,3.6978,3.6978,3.7134,3.738,3.7457,3.7649,3.7465,3.6474,3.5971,3.5767,3.4779,3.4317,3.4668,3.4769,3.5037,3.5365,3.5671,3.591,3.6068,3.6258,3.6398,3.6398,3.5816,3.572,3.572,3.5688,3.5644,3.585,3.5197,3.4546,3.4013,3.2915,3.2467,3.1961,3.1486,3.1012,3.0417,3.0357,3.0205,3.0036,2.9958,2.9896,2.9741,2.9665,2.9602,2.9602,2.9602,2.9634,2.9696,2.9634,2.9602,2.9591,2.9151,2.9213,2.9355,2.8848,2.8724,2.9028,2.8841,2.8283,2.7631,2.743,2.7211,2.699,2.6767,2.6741,2.6857,2.6804,2.6751,2.6714,2.6621,2.6529,2.6221,2.5975,2.5784,2.5439,2.5131,2.4848,2.429,2.3451,2.2845,2.2421,2.1663,2.0771,2.0268,2.0017,1.9814,1.9546,2.0076,2.0221,1.9953,1.9608,1.9179,1.8733,1.8383,1.851,1.885,1.8606,1.828,1.8165,1.8085,1.7427,1.6757,1.5988,1.5259,1.4911,1.4691,1.444,3.8171,3.6993,3.6978,3.6978,3.6978,3.6978,3.6978,3.6978,3.7017,3.7187,3.7419,3.7457,3.7687,3.7512,3.6764,3.6129,3.6004,3.5004,3.4501,3.4534,3.4601,3.4769,3.5052,3.5314,3.5542,3.591,3.6132,3.6226,3.6147,3.5831,3.564,3.5608,3.5753,3.5716,3.5645,3.5294,3.5002,3.4419,3.377,3.3186,3.2242,3.1825,3.1185,3.0183,3.0093,3.0017,2.9834,2.9834,2.9741,2.9634,2.9602,2.9602,2.9602,2.9602,2.9696,2.9772,2.9772,2.9602,2.9651,2.9593,2.9777,2.9779,2.9583,2.9344,2.9361,2.9016,2.8626,2.8364,2.8016,2.7712,2.7449,2.6997,2.6953,2.7482,2.7542,2.7515,2.7434,2.7257,2.7064,2.6553,2.6204,2.5853,2.5508,2.5188,2.4905,2.4591,2.3843,2.3225,2.2798,2.1954,2.1084,2.0542,2.0233,2.0187,2.0288,2.0465,2.0799,2.0715,2.0501,2.0285,1.9903,1.948,1.9653,1.9979,1.9333,1.8697,1.8512,1.8237,1.7441,1.6709,1.6247,1.5819,1.5541,1.5374,1.5196,3.8171,3.7021,3.6978,3.6978,3.6978,3.6978,3.6978,3.6978,3.7017,3.7226,3.7495,3.7457,3.7643,3.7607,3.691,3.621,3.621,3.5142,3.4568,3.4534,3.4433,3.4568,3.4702,3.4986,3.5397,3.5767,3.6068,3.621,3.6241,3.6068,3.5894,3.5831,3.5958,3.6043,3.5938,3.5799,3.5692,3.5246,3.485,3.4182,3.3336,3.2613,3.1803,3.0795,3.0301,3.0154,2.9797,2.9634,2.9651,2.9634,2.9602,2.9602,2.9602,2.9634,2.9696,2.9772,2.9772,2.9634,2.9713,2.9792,2.9934,3.0101,2.9834,2.978,2.9737,2.9579,2.9276,2.8971,2.8565,2.8289,2.8013,2.7505,2.7632,2.8165,2.8236,2.8194,2.8095,2.7916,2.7544,2.7002,2.6412,2.6032,2.5578,2.5272,2.4977,2.4635,2.4263,2.3712,2.3122,2.2287,2.149,2.0909,2.0547,2.0544,2.0487,2.0461,2.0849,2.1342,2.121,2.0924,2.0951,2.056,2.0825,2.0896,2.018,1.9484,1.8923,1.8396,1.7885,1.7461,1.7112,1.6652,1.6205,1.6021,1.5919,3.8157,3.7063,3.6978,3.6978,3.6978,3.6978,3.6978,3.6978,3.6978,3.7226,3.7572,3.761,3.774,3.7644,3.7075,3.6645,3.6257,3.5344,3.4975,3.4802,3.4601,3.4582,3.4735,3.5037,3.5397,3.5688,3.599,3.6304,3.6429,3.6289,3.61,3.6068,3.6289,3.6368,3.6353,3.6338,3.6292,3.6014,3.5692,3.5019,3.4256,3.3893,3.273,3.1722,3.1168,3.0664,3.0204,2.9806,2.9744,2.9696,2.9665,2.9634,2.9634,2.9634,2.9634,2.9602,2.9634,2.9651,2.9744,2.9792,2.9946,3.0113,3.0222,3.0374,3.0392,3.0173,2.9942,2.9668,2.9363,2.9073,2.8753,2.8636,2.852,2.8749,2.8864,2.8807,2.872,2.8447,2.8071,2.75,2.6822,2.631,2.5689,2.5328,2.5186,2.4778,2.4434,2.4047,2.3428,2.2722,2.1961,2.1272,2.1001,2.0941,2.0851,2.0693,2.1231,2.1818,2.1431,2.1178,2.1313,2.1459,2.1459,2.127,2.088,2.0351,1.9735,1.9136,1.8533,1.8154,1.784,1.7516,1.708,1.6799,1.6645,3.7695,3.7007,3.6978,3.6978,3.6978,3.6978,3.6978,3.6978,3.6978,3.7134,3.7419,3.7839,3.781,3.7557,3.7321,3.6909,3.6257,3.5672,3.5207,3.4953,3.4868,3.4887,3.4986,3.5136,3.5462,3.5816,3.6116,3.6367,3.6492,3.6414,3.6414,3.6414,3.6523,3.6554,3.6569,3.66,3.6569,3.6492,3.6276,3.5707,3.5123,3.4697,3.3452,3.2489,3.1844,3.1264,3.0571,3.0111,3.0019,2.9958,2.9958,2.9958,2.9958,2.9958,2.9927,2.973,2.9682,2.9634,2.9696,2.9761,2.9839,3.0007,3.016,3.0387,3.0507,3.0494,3.0392,3.0161,2.9914,2.9566,2.9348,2.9261,2.9275,2.9405,2.9477,2.9449,2.9347,2.9129,2.8737,2.8061,2.7378,2.6761,2.6092,2.5633,2.5436,2.5003,2.4593,2.4218,2.3748,2.3038,2.2342,2.1665,2.1152,2.0998,2.1084,2.1003,2.1674,2.217,2.1729,2.1517,2.1757,2.1882,2.1862,2.1537,2.0955,2.0698,2.0512,1.9822,1.8934,1.8827,1.8561,1.8262,1.794,1.7645,1.7366,3.754,3.7021,3.6978,3.6978,3.6978,3.6978,3.6978,3.6978,3.6978,3.7123,3.738,3.7901,3.7856,3.742,3.747,3.718,3.6423,3.5914,3.5527,3.5444,3.5184,3.5154,3.5187,3.5397,3.5752,3.6085,3.6352,3.6585,3.6647,3.6677,3.6631,3.6708,3.6708,3.6677,3.6677,3.6693,3.6693,3.6677,3.6538,3.6137,3.5768,3.5415,3.4407,3.3333,3.273,3.1971,3.1081,3.0648,3.0325,3.0142,3.008,3.008,3.008,3.0019,2.9929,2.9792,2.9696,2.9602,2.9634,2.9651,2.973,2.9853,3.0083,3.0266,3.0447,3.0493,3.0509,3.0467,3.0205,2.9972,2.9842,2.9784,2.9944,3.0119,3.0105,3.0134,3.0003,2.9842,2.929,2.8625,2.7995,2.7385,2.6793,2.6231,2.5784,2.5514,2.5008,2.4463,2.4018,2.3423,2.271,2.1984,2.1375,2.095,2.1112,2.1302,2.1685,2.2049,2.1959,2.1862,2.2123,2.2092,2.1925,2.1463,2.0869,2.0655,2.0483,1.9911,1.9249,1.9153,1.9057,1.8754,1.8514,1.8367,1.8081,3.7498,3.6978,3.6978,3.6978,3.6978,3.6978,3.6978,3.6978,3.6978,3.7095,3.7366,3.7938,3.7777,3.7266,3.7541,3.7268,3.6651,3.6131,3.5926,3.5973,3.5623,3.5512,3.5672,3.5943,3.6148,3.6383,3.6647,3.68,3.6908,3.6892,3.6892,3.6984,3.677,3.6739,3.6877,3.6846,3.6877,3.6907,3.6862,3.6631,3.66,3.6415,3.5998,3.4926,3.4091,3.3261,3.1987,3.1169,3.0612,3.031,3.0142,3.0172,3.0127,3.0005,2.9884,2.9792,2.9696,2.9634,2.9602,2.9634,2.9682,2.9806,2.9974,3.0158,3.031,3.0522,3.0582,3.0612,3.038,3.0336,3.0234,3.022,3.0322,3.0395,3.041,3.038,3.0322,3.0104,2.9711,2.9117,2.8627,2.8011,2.7413,2.6876,2.6244,2.6001,2.5412,2.4731,2.4276,2.3758,2.3072,2.2351,2.1787,2.1375,2.1498,2.1631,2.1583,2.1747,2.1949,2.208,2.2247,2.2123,2.1937,2.1537,2.1103,2.0528,2.0172,1.9781,1.9518,1.9288,1.918,1.9133,1.8998,1.8854,1.862,3.7119,3.6978,3.6978,3.6978,3.6978,3.6978,3.6978,3.6978,3.6978,3.7017,3.7211,3.7724,3.766,3.7024,3.7541,3.7332,3.6581,3.6304,3.621,3.6068,3.5863,3.5911,3.5991,3.6196,3.6445,3.6739,3.6938,3.703,3.703,3.7044,3.7029,3.703,3.6923,3.6998,3.7045,3.6998,3.7074,3.715,3.7119,3.6998,3.6938,3.6814,3.6414,3.5491,3.4665,3.377,3.2586,3.1545,3.1102,3.0762,3.0568,3.0522,3.0492,3.0189,3.0036,2.9974,2.9789,2.9696,2.9665,2.9665,2.9727,2.9789,2.9943,3.0066,3.0219,3.0462,3.0582,3.0612,3.0612,3.0612,3.0612,3.0612,3.0612,3.0642,3.0642,3.0642,3.0612,3.0306,3.0016,2.9623,2.9217,2.8698,2.8095,2.7454,2.6818,2.6144,2.5432,2.4848,2.4503,2.4044,2.3389,2.2727,2.226,2.1948,2.2005,2.193,2.1871,2.2037,2.2317,2.2359,2.2328,2.2018,2.1726,2.1726,2.1431,2.0764,2.0248,2.0118,1.9824,1.9462,1.933,1.9264,1.9131,1.8998,1.8865,3.6978,3.6978,3.6889,3.6929,3.6993,3.6915,3.6915,3.6978,3.6978,3.6978,3.7095,3.7648,3.7535,3.6819,3.7321,3.7101,3.6378,3.6288,3.6132,3.6037,3.6132,3.6305,3.6399,3.6461,3.6739,3.7044,3.7165,3.7241,3.7211,3.715,3.715,3.7181,3.721,3.715,3.7181,3.724,3.7254,3.7329,3.7329,3.7255,3.7166,3.7028,3.6828,3.6025,3.5192,3.4277,3.33,3.2181,3.1367,3.0999,3.0717,3.0612,3.0522,3.0326,3.0219,3.0127,2.9974,2.9834,2.9834,2.9851,2.9913,3.0066,3.0219,3.0462,3.0522,3.0732,3.0687,3.0687,3.0612,3.0612,3.0612,3.0612,3.0612,3.0612,3.0612,3.0612,3.0612,3.0496,3.0306,3.0175,2.9853,2.9617,2.9036,2.8475,2.786,2.7315,2.6469,2.551,2.5054,2.4519,2.381,2.3173,2.2744,2.2552,2.2575,2.2387,2.2169,2.2406,2.2635,2.2463,2.2266,2.1851,2.1557,2.1588,2.14,2.0764,2.0377,2.0345,1.9857,1.9374,1.9374,1.944,1.9297,1.9198,1.9075,3.6978,3.6993,3.6811,3.6811,3.6954,3.6811,3.685,3.6978,3.6978,3.6978,3.6989,3.7429,3.7192,3.6927,3.6882,3.6432,3.6082,3.5923,3.5863,3.599,3.6258,3.6352,3.6569,3.6862,3.7059,3.721,3.7375,3.7421,3.745,3.7359,3.7329,3.7421,3.7331,3.7211,3.7345,3.7359,3.7329,3.7435,3.7435,3.745,3.7331,3.7211,3.7043,3.656,3.5751,3.4785,3.3911,3.2831,3.1702,3.1263,3.0999,3.0836,3.0687,3.0568,3.0447,3.0357,3.0357,3.028,3.0249,3.028,3.0401,3.0582,3.0732,3.0821,3.0821,3.0821,3.0777,3.0747,3.0657,3.0642,3.0642,3.0642,3.0642,3.0642,3.0642,3.0612,3.0612,3.0612,3.0553,3.0524,3.0389,3.0208,2.9827,2.9291,2.8812,2.8316,2.7615,2.674,2.5914,2.5253,2.4566,2.394,2.3398,2.3255,2.3092,2.2758,2.2427,2.2575,2.2726,2.2463,2.2185,2.1851,2.162,2.1588,2.123,2.0912,2.0732,2.0667,2.0085,1.9572,1.9704,1.9889,1.9726,1.9594,1.9374,3.6978,3.6978,3.694,3.6954,3.6978,3.694,3.694,3.6978,3.6978,3.6978,3.6905,3.6555,3.6294,3.6179,3.6485,3.6163,3.5511,3.5462,3.5512,3.5576,3.607,3.6242,3.6538,3.6968,3.7255,3.7405,3.748,3.751,3.751,3.7435,3.7435,3.748,3.748,3.7421,3.745,3.7435,3.7435,3.751,3.748,3.7421,3.7287,3.7211,3.7285,3.6705,3.5878,3.5201,3.4392,3.3103,3.2443,3.1979,3.1552,3.1234,3.1058,3.0925,3.0807,3.0717,3.0717,3.0703,3.0717,3.0687,3.0807,3.0955,3.1014,3.091,3.0866,3.0807,3.0777,3.0777,3.0717,3.0791,3.0791,3.0791,3.0762,3.0732,3.0702,3.0612,3.0582,3.0582,3.0568,3.0523,3.0493,3.0328,3.0149,2.9654,2.9146,2.8593,2.8003,2.7179,2.6715,2.6053,2.5328,2.4652,2.4037,2.3526,2.3173,2.2902,2.2682,2.2811,2.2818,2.2543,2.2235,2.1925,2.1726,2.1757,2.1683,2.1431,2.1273,2.1051,2.0732,2.0345,2.0377,2.0377,2.0183,2.002,1.9802]}]]